     2.11           OBSERVATION DATA    G (GPS)             RINEX VERSION / TYPE
teqc 2010Oct21 OPUS Account 20111028 19:35:16UTC            PGM / RUN BY / DATE
Q 1522                                                      MARKER NAME
1170                                                        MARKER NUMBER
DBPROUTY NGS                                                OBSERVER / AGENCY
4624K01634 TRIMBLE NETR5 NP 70.55 / SP 451.54               REC # / TYPE / VERS
12668881 TRM41249.00 NONE                                   ANT # / TYPE
  -738054.0980 -5496299.3771  3140268.1193                  APPROX POSITION XYZ
        2.0000        0.0000        0.0000                  ANTENNA: DELTA H/E/N
     1     1                                                WAVELENGTH FACT L1/2
     5    L1    L2    C1    P1    P2                        # / TYPES OF OBSERV
  2011     8    26     0     0    0.0000000     GPS         TIME OF FIRST OBS
                                                            END OF HEADER
 11  8 26  0  0  0.0000000  0  9G10G25G09G12G17G05G04G30G02
 -20042368.97747 -15582550.83346  20889427.7114                   20889429.1884
  -4551787.816 7  -3534527.366 6  23881558.961
  -2256791.84646  -1721404.21443  23854436.0314                   23854443.5274
 -17824893.665 8 -13877909.616 7  21304403.633
  -7681272.474 7  -5949458.744 6  23273172.352
 -14691073.940 7 -11434242.199 7  21956038.328
 -14862346.66448 -11541618.55945  21731442.3284                   21731445.2464
  -2267797.12046  -1728933.62843  23959772.4144                   23959774.9734
 -22349167.07548 -17380531.88546  20593764.0554                   20593763.0514
 11  8 26  0  0 30.0000000  0  9G10G25G09G12G17G05G04G30G02
 -20039888.42248 -15580617.91646  20889899.9144                   20889901.4734
  -4648881.236 7  -3610184.480 6  23863083.578
  -2175181.53246  -1657811.91544  23869965.5554                   23869973.6954
 -17879158.277 8 -13920193.705 7  21294077.508
  -7624899.569 7  -5905531.857 6  23283899.914
 -14780607.772 7 -11504008.726 7  21939000.570
 -14785158.29448 -11481471.80645  21746130.9774                   21746133.5984
  -2367518.54546  -1806638.50143  23940795.5634                   23940798.6564
 -22349976.13748 -17381162.31446  20593610.3444                   20593609.4104
 11  8 26  0  1  0.0000000  0  9G10G25G09G12G17G05G04G30G02
 -20036773.13147 -15578190.40146  20890492.5864                   20890494.0204
  -4745764.934 7  -3685678.246 6  23844646.094
  -2093441.07146  -1594118.24144  23885521.6564                   23885528.7504
 -17932964.125 8 -13962120.309 7  21283838.492
  -7568363.831 6  -5861478.080 6  23294658.070
 -14869825.936 7 -11573529.279 7  21922022.672
 -14707833.71648 -11421218.90645  21760845.2584                   21760847.7034
  -2466985.30946  -1884144.95443  23921868.1644                   23921870.2274
 -22350495.62248 -17381567.08946  20593511.4924                   20593510.5234
 11  8 26  0  1 30.0000000  0  9G10G25G09G12G17G05G04G30G02
 -20033023.73348 -15575268.77546  20891206.1484                   20891207.6764
  -4842437.437 7  -3761007.381 7  23826249.281
  -2011574.79347  -1530326.49543  23901100.1024                   23901106.9694
 -17986309.876 8 -14003688.380 7  21273686.914
  -7511666.026 6  -5817298.029 6  23305446.953
 -14958727.053 7 -11642802.782 7  21905105.555
 -14630375.80248 -11360862.10845  21775584.8914                   21775587.2424
  -2566195.55246  -1961451.47943  23902988.7034                   23902990.3134
 -22350727.82548 -17381748.01946  20593467.3134                   20593466.6994
 11  8 26  0  2  0.0000000  0  9G10G25G09G12G17G05G04G30G02
 -20028640.28248 -15571853.08946  20892040.0634                   20892041.7464
  -4938895.694 7  -3836169.618 6  23807894.953
  -1929585.67146  -1466439.04443  23916702.2664                   23916709.4414
 -18039192.840 8 -14044895.866 7  21263623.617
  -7454805.649 7  -5772991.311 6  23316267.523
 -15047307.757 7 -11711826.625 7  21888248.625
 -14552786.05548 -11300402.58545  21790350.0634                   21790352.6844
  -2665146.04546  -2038555.63543  23884158.9454                   23884161.4184
 -22350673.52148 -17381705.69046  20593477.5784                   20593476.9144
 11  8 26  0  2 30.0000000  0  9G10G25G09G12G17G05G04G30G02
 -20023622.34347 -15567942.98745  20892994.9534                   20892996.2894
  -5035136.378 7  -3911162.339 6  23789580.180
  -1847476.61246  -1402458.10544  23932326.6254                   23932333.8284
 -18091610.292 8 -14085740.617 7  21253649.063
  -7397781.274 6  -5728556.781 6  23327119.008
 -15135564.645 7 -11780598.129 7  21871454.305
 -14475065.91548 -11239841.46045  21805139.6724                   21805142.1174
  -2763833.38247  -2115454.69743  23865378.9224                   23865382.0984
 -22350332.93248 -17381440.28646  20593542.0634                   20593542.1334
 11  8 26  0  3  0.0000000  0  9G10G25G09G12G17G05G04G30G02
 -20017971.57848 -15563539.78046  20894070.6024                   20894071.4964
  -5131158.939 7  -3985985.117 6  23771308.094
  -1765253.09646  -1338387.98444  23947973.5864                   23947981.2344
 -18143561.930 8 -14126222.410 7  21243763.234
  -7340594.637 6  -5683995.816 6  23338000.875
 -15223496.948 7 -11849116.715 7  21854721.125
 -14397219.23648 -11179181.73745  21819953.5554                   21819955.8754
  -2862256.78346  -2192148.12843  23846649.7584                   23846652.0434
 -22349709.64348 -17380954.58846  20593661.0474                   20593660.2854
 11  8 26  0  3 30.0000000  0  9G10G25G09G12G17G05G04G30G02
 -20011685.82147 -15558641.75746  20895266.2274                   20895267.6414
  -5226958.407 7  -4060634.018 6  23753077.672
  -1682915.85346  -1274229.22843  23963643.0314                   23963648.7344
 -18195043.613 8 -14166337.990 7  21233966.313
  -7283242.799 7  -5639306.111 6  23348914.898
 -15311099.302 7 -11917378.204 7  21838051.156
 -14319245.68048 -11118423.13745  21834791.5704                   21834793.4734
  -2960410.96546  -2268631.75244  23827971.9924                   23827974.9534
 -22348801.89448 -17380247.23346  20593833.8204                   20593832.8594
 11  8 26  0  4  0.0000000  0  9G10G25G09G12G17G05G04G30G02
 -20004766.86648 -15553250.35046  20896583.1414                   20896584.4534
  -5322534.063 7  -4135108.578 6  23734890.266
  -1600470.28646  -1209986.10943  23979330.8674                   23979337.9614
 -18246055.236 8 -14206087.284 7  21224258.992
  -7225727.243 6  -5594488.866 6  23359859.813
 -15398371.048 7 -11985382.083 7  21821443.500
 -14241149.13448 -11057568.69945  21849652.6724                   21849654.6174
  -3058295.26047  -2344905.09343  23809344.6644                   23809348.0704
 -22347613.37548 -17379321.09146  20594059.6804                   20594058.8444
 11  8 26  0  4 30.0000000  0  9G10G25G09G12G17G05G04G30G02
 -19997213.84148 -15547364.85146  20898020.6954                   20898021.6884
  -5417881.899 7  -4209405.555 7  23716745.898
  -1517918.38346  -1145660.14943  23995040.9844                   23995047.2464
 -18296593.297 8 -14245467.577 7  21214641.852
  -7168046.397 6  -5549542.832 6  23370836.156
 -15485308.194 7 -12053125.224 7  21804900.453
 -14162930.06048 -10996618.77845  21864537.0164                   21864539.4494
  -3155905.44346  -2420964.87543  23790771.3674                   23790773.6954
 -22346143.39148 -17378175.63646  20594339.5314                   20594338.6294
 11  8 26  0  5  0.0000000  0  9G10G25G09G12G17G05G04G30G02
 -19989026.86748 -15540985.36945  20899578.1644                   20899579.5004
  -5512999.428 7  -4283523.053 6  23698645.766
  -1435263.87847  -1081254.14543  24010769.6484                   24010776.2194
 -18346655.395 8 -14284477.002 7  21205115.453
  -7110200.085 6  -5504467.837 6  23381844.188
 -15571907.899 8 -12120605.430 7  21788420.586
 -14084590.68648 -10935575.13045  21879444.7424                   21879446.8054
  -3253238.76747  -2496808.94443  23772248.4694                   23772251.7664
 -22344393.05948 -17376811.71746  20594672.8594                   20594671.5784
 11  8 26  0  5 30.0000000  0  9G10G25G09G12G17G05G04G30G02
 -19980206.50348 -15534112.34846  20901256.4534                   20901258.0864
  -5607884.231 7  -4357459.301 6  23680589.578
  -1352510.38946  -1016771.10443  24026516.4694                   24026523.5704
 -18396240.374 8 -14323114.627 7  21195679.977
  -7052188.255 7  -5459263.904 6  23392883.852
 -15658167.774 8 -12187820.837 7  21772005.703
 -14006132.87048 -10874439.21045  21894374.7504                   21894376.8204
  -3350292.77847  -2572435.37343  23753779.7584                   23753782.6174
 -22342364.03148 -17375230.62546  20595059.0634                   20595057.9614
 11  8 26  0  6  0.0000000  0  9G10G25G09G12G17G05G04G30G02
 -19970752.48048 -15526745.55646  20903055.7424                   20903057.2814
  -5702533.509 7  -4431211.896 6  23662578.477
  -1269661.17347   -952213.43244  24042283.0634                   24042289.6214
 -18445346.118 8 -14361378.835 7  21186335.375
  -6994009.849 6  -5413930.141 6  23403954.398
 -15744084.984 7 -12254769.229 7  21755656.313
 -13927558.45848 -10813212.40545  21909326.8134                   21909328.9614
  -3447064.41247  -2647841.78743  23735364.7034                   23735367.4454
 -22340057.27348 -17373433.13246  20595497.9614                   20595496.9384
 11  8 26  0  6 30.0000000  0  9G10G25G09G12G17G05G04G30G02
 -19960665.64548 -15518885.66646  20904974.7894                   20904976.4454
  -5796945.090 7  -4504779.348 6  23644612.563
  -1186719.90047   -887584.03544  24058065.8444                   24058072.8204
 -18493970.938 8 -14399268.289 7  21177082.023
  -6935665.074 6  -5368466.761 6  23415056.875
 -15829657.020 8 -12321448.664 7  21739372.477
 -13848869.95448 -10751896.69845  21924300.9844                   21924303.1214
  -3543551.30947  -2723026.32043  23717003.7034                   23717006.2734
 -22337474.48648 -17371420.54946  20595989.4844                   20595988.4924
 11  8 26  0  7  0.0000000  0  9G10G25G09G12G17G05G04G30G02
 -19949945.30348 -15510532.13846  20907015.0394                   20907016.8054
  -5891115.077 7  -4578158.533 6  23626692.227
  -1103688.55047   -822884.41444  24073866.2344                   24073873.5354
 -18542111.427 8 -14436780.335 7  21167921.180
  -6877152.370 7  -5322872.491 6  23426191.625
 -15914879.944 8 -12387856.065 7  21723154.984
 -13770067.58748 -10690492.27545  21939296.3914                   21939298.4494
  -3639749.44846  -2797985.90943  23698697.6174                   23698700.2384
 -22334615.36648 -17369192.63946  20596533.3674                   20596532.2894
 11  8 26  0  7 30.0000000  0  9G10G25G09G12G17G05G04G30G02
 -19938593.16248 -15501686.29046  20909175.0314                   20909176.9384
  -5985042.226 7  -4651348.462 7  23608819.117
  -1020572.20147   -758118.54843  24089683.1024                   24089690.0664
 -18589766.997 8 -14473914.529 7  21158852.664
  -6818473.335 7  -5277148.611 6  23437358.219
 -15999752.791 7 -12453990.669 7  21707004.164
 -13691154.81048 -10629001.81945  21954313.1804                   21954315.1054
  -3735657.38046  -2872719.35543  23680446.7894                   23680449.9804
 -22331482.44748 -17366751.37946  20597129.4454                   20597128.2934
 11  8 26  0  8  0.0000000  0  9G10G25G09G12G17G05G04G30G02
 -19926608.23748 -15492347.37346  20911455.7274                   20911457.3754
  -6078722.633 7  -4724346.117 7  23590992.227
   -937372.84846   -693288.04443  24105515.3204                   24105522.5784
 -18636934.210 8 -14510668.202 7  21149877.344
  -6759625.651 7  -5231293.344 6  23448556.586
 -16084271.362 8 -12519849.223 7  21690920.656
 -13612132.22948 -10567425.80345  21969350.2344                   21969352.9734
  -3831271.15446  -2947223.53143  23662252.1414                   23662254.8714
 -22328075.85348 -17364096.86246  20597777.5084                   20597776.9344
 11  8 26  0  8 30.0000000  0  9G10G25G09G12G17G05G04G30G02
 -19913991.91148 -15482516.44746  20913856.9924                   20913858.4104
  -6172154.962 7  -4797150.452 7  23573212.969
   -854095.13247   -628396.49044  24121362.6804                   24121370.3284
 -18683612.730 8 -14547041.068 7  21140994.703
  -6700610.214 7  -5185307.361 6  23459787.031
 -16168433.843 7 -12585430.301 7  21674904.727
 -13533003.10148 -10505766.76345  21984408.6094                   21984410.2274
  -3926589.07147  -3021497.23543  23644113.7034                   23644115.6254
 -22324397.63748 -17361230.69546  20598477.6884                   20598476.3484
 11  8 26  0  9  0.0000000  0  9G10G25G09G12G17G05G04G30G02
 -19900743.98748 -15472193.37446  20916377.7664                   20916379.5594
  -6265335.654 7  -4869758.706 6  23555480.500
   -770741.39346   -563445.71143  24137224.9614                   24137231.6454
 -18729799.768 8 -14583030.965 7  21132205.773
  -6641426.032 7  -5139189.842 6  23471049.289
 -16252237.213 8 -12650731.553 7  21658957.672
 -13453768.23448 -10444025.32845  21999486.8204                   21999488.5314
  -4021607.52146  -3095537.57543  23626031.9064                   23626034.3594
 -22320448.40348 -17358153.34246  20599229.0474                   20599227.9774
 11  8 26  0  9 30.0000000  0  9G10G25G09G12G17G05G04G30G02
 -19886864.26148 -15461377.98946  20919019.0784                   20919020.6054
  -6358261.761 7  -4942168.576 7  23537797.586
   -687314.71346   -498438.09443  24153100.8984                   24153107.3484
 -18775493.010 8 -14618636.070 7  21123510.367
  -6582072.419 7  -5092940.335 6  23482343.656
 -16335678.262 7 -12715750.482 7  21643079.398
 -13374429.13548 -10382202.67645  22014584.1334                   22014586.4024
  -4116323.31647  -3169342.08144  23608008.1564                   23608010.4144
 -22316228.92748 -17354865.41346  20600032.0474                   20600030.7934
 11  8 26  0 10  0.0000000  0  9G10G25G09G12G17G05G04G30G02
 -19872354.77848 -15450071.87446  20921780.2034                   20921781.3444
  -6450932.028 7  -5014379.099 7  23520162.664
   -603819.65546   -433377.21043  24168989.3524                   24168996.5514
 -18820691.819 8 -14653855.922 7  21114909.594
  -6522550.381 7  -5046559.591 6  23493671.008
 -16418755.847 8 -12780486.195 7  21627270.203
 -13294989.04848 -10320301.33845  22029701.3054                   22029703.6884
  -4210735.08347  -3242909.67343  23590042.3984                   23590044.6644
 -22311741.61248 -17351368.78646  20600885.5554                   20600884.6254
 11  8 26  0 10 30.0000000  0  9G10G25G09G12G17G05G04G30G02
 -19857214.28948 -15438274.07046  20924660.9694                   20924662.6724
  -6543342.128 7  -5086386.880 7  23502578.031
   -520258.18746   -368264.55043  24184890.6484                   24184898.2344
 -18865392.999 8 -14688688.002 7  21106403.336
  -6462857.761 7  -5000045.891 6  23505029.141
 -16501465.482 8 -12844935.191 7  21611531.078
 -13215448.00847 -10258321.32145  22044837.5084                   22044839.6564
  -4304838.36046  -3316236.87343  23572134.3444                   23572137.0314
 -22306986.16248 -17347663.21046  20601790.8054                   20601789.5124
 11  8 26  0 11  0.0000000  0  9G10G25G09G12G17G05G04G30G02
 -19841443.40448 -15425985.05546  20927662.2734                   20927663.8204
  -6635489.354 7  -5158189.825 7  23485042.000
   -436633.29447   -303102.47243  24200804.1804                   24200811.4964
 -18909593.880 8 -14723130.224 7  21097992.109
  -6402994.290 7  -4953399.074 6  23516421.453
 -16583804.142 8 -12909095.104 7  21595862.273
 -13135807.83847 -10196264.06445  22059992.3444                   22059994.5514
  -4398630.22646  -3389321.39843  23554286.9774                   23554289.6024
 -22301963.42848 -17343749.37646  20602746.3054                   20602745.8554
 11  8 26  0 11 30.0000000  0  9G10G25G09G12G17G05G04G30G02
 -19825044.80248 -15413206.90446  20930782.8054                   20930784.9774
  -6727373.289 7  -5229787.628 7  23467557.609
   -352950.45946   -237895.24843  24216728.8134                   24216736.1684
 -18953295.574 8 -14757183.475 7  21089676.117
  -6342961.675 7  -4906620.456 6  23527845.492
 -16665771.876 8 -12972965.994 7  21580264.398
 -13056072.38647 -10134132.56045  22075165.1024                   22075167.9964
  -4492110.16446  -3462162.89144  23536498.5164                   23536500.4694
 -22296676.83848 -17339629.93546  20603752.5234                   20603751.2854
 11  8 26  0 12  0.0000000  0  9G10G25G09G12G17G05G04G30G02
 -19808016.05248 -15399937.73446  20934023.1724                   20934024.9454
  -6818988.324 7  -5301175.903 7  23450124.172
   -269210.15046   -172643.25943  24232663.2814                   24232670.7624
 -18996492.986 8 -14790843.770 7  21081455.586
  -6282756.995 7  -4859707.771 6  23539302.180
 -16747363.265 8 -13036543.631 7  21564738.188
 -12976240.64647 -10071926.03945  22090357.0704                   22090359.0474
  -4585272.39946  -3534756.74043  23518769.8204                   23518772.0944
 -22291124.77948 -17335303.63446  20604808.7734                   20604807.9844
 11  8 26  0 12 30.0000000  0  9G10G25G09G12G17G05G04G30G02
 -19790360.04148 -15386179.78146  20937383.3054                   20937384.8714
  -6910333.958 7  -5372354.227 7  23432741.492
   -185417.88946   -107350.77443  24248608.6484                   24248616.9384
 -19039186.616 8 -14824111.513 7  21073331.258
  -6222381.455 6  -4812661.927 6  23550790.859
 -16828577.337 8 -13099827.267 7  21549283.438
 -12896316.40547 -10009647.43145  22105565.9774                   22105567.7734
  -4678116.30246  -3607102.60743  23501102.3284                   23501104.8404
 -22285310.47548 -17330772.98946  20605915.3204                   20605914.0004
 11  8 26  0 13  0.0000000  0  9G10G25G09G12G17G05G04G30G02
 -19772076.24148 -15371932.64446  20940862.4304                   20940864.2504
  -7001406.465 7  -5443319.760 7  23415410.867
   -101575.70746    -42019.44043  24264563.5554                   24264571.3014
 -19081373.491 8 -14856984.374 7  21065303.805
  -6161834.104 7  -4765482.222 6  23562313.547
 -16909410.676 8 -13162814.202 7  21533901.594
 -12816300.19647  -9947297.16045  22120792.6094                   22120795.1174
  -4770637.90847  -3679197.28143  23483495.8524                   23483498.6524
 -22279233.76348 -17326037.87646  20607071.7504                   20607070.4144
 11  8 26  0 13 30.0000000  0  9G10G25G09G12G17G05G04G30G02
 -19753165.02748 -15357196.62346  20944461.1884                   20944462.6994
  -7092202.756 7  -5514070.071 7  23398132.352
    -17686.79246     23348.33543  24280527.6954                   24280534.4924
 -19123051.199 8 -14889460.468 7  21057372.602
  -6101113.947 7  -4718167.876 6  23573867.742
 -16989860.008 8 -13225501.944 7  21518592.352
 -12736193.69647  -9884876.52945  22136036.3754                   22136038.9844
  -4862834.13346  -3751038.40543  23465951.0474                   23465954.6804
 -22272895.59748 -17321099.02046  20608277.7114                   20608276.8914
 11  8 26  0 14  0.0000000  0  9G10G25G09G12G17G05G04G30G02
 -19733629.48048 -15341974.10146  20948178.5944                   20948180.3134
  -7182722.483 7  -5584604.895 7  23380907.523
     66243.59646     88748.44143  24296499.0784                   24296506.5824
 -19164219.962 8 -14921539.990 7  21049538.453
  -6040223.207 6  -4670720.584 6  23585454.898
 -17069925.031 8 -13287890.203 7  21503356.078
 -12656000.74747  -9822388.54945  22151296.5474                   22151299.1094
  -4954704.41747  -3822625.54043  23448469.3054                   23448472.3954
 -22266299.26848 -17315958.99546  20609533.0004                   20609531.6134
 11  8 26  0 14 30.0000000  0  9G10G25G09G12G17G05G04G30G02
 -19713466.36548 -15326262.57146  20952015.1414                   20952017.0274
  -7272959.605 7  -5654919.506 7  23363735.242
    150215.54247    154180.93543  24312478.4304                   24312486.2424
 -19204875.109 8 -14953219.306 7  21041801.844
  -5979158.154 6  -4623137.447 6  23597075.219
 -17149600.100 8 -13349974.599 7  21488194.531
 -12575719.54747  -9759831.78045  22166573.6334                   22166575.9064
  -5046242.44747  -3893953.78944  23431050.0864                   23431053.4804
 -22259442.73048 -17310616.22146  20610838.0704                   20610836.6764
 11  8 26  0 15  0.0000000  0  9G10G25G09G12G17G05G04G30G02
 -19692678.68848 -15310064.37346  20955971.1644                   20955972.4964
  -7362913.727 7  -5725013.573 7  23346617.742
    234223.56846    219641.55243  24328464.2504                   24328473.1454
 -19245017.292 8 -14984498.902 7  21034162.664
  -5917920.629 6  -4575419.959 6  23608728.047
 -17228884.815 8 -13411754.829 7  21473107.273
 -12495354.24747  -9697209.49645  22181866.1484                   22181868.8874
  -5137447.93647  -3965022.91743  23413693.9774                   23413696.8484
 -22252329.56248 -17305073.47046  20612191.3444                   20612190.5204
 11  8 26  0 15 30.0000000  0  9G10G25G09G12G17G05G04G30G02
 -19671266.56348 -15293379.58346  20960045.5784                   20960047.0124
  -7452581.360 7  -5794884.429 7  23329554.852
    318265.22146    285128.33943  24344456.8284                   24344464.6414
 -19284643.795 8 -15015376.663 7  21026622.156
  -5856509.542 6  -4527567.192 6  23620413.695
 -17307775.505 8 -13473228.023 7  21458094.898
 -12414905.71547  -9634522.34145  22197175.5704                   22197177.9304
  -5228317.26346  -4035830.11943  23396402.6804                   23396405.3444
 -22244959.79348 -17299330.78646  20613593.5314                   20613592.7734
 11  8 26  0 16  0.0000000  0  9G10G25G09G12G17G05G04G30G02
 -19649231.84648 -15276209.65946  20964238.7424                   20964240.3634
  -7541960.522 7  -5864530.521 7  23312546.461
    402336.70446    350638.35643  24360456.4534                   24360463.7384
 -19323753.690 8 -15045851.872 7  21019179.875
  -5794925.327 6  -4479579.557 6  23632133.680
 -17386270.644 8 -13534393.007 7  21443157.406
 -12334376.25947  -9571772.14545  22212499.9924                   22212501.7504
  -5318848.24446  -4106373.62243  23379173.7814                   23379177.4264
 -22237335.37848 -17293389.66846  20615044.6644                   20615043.6174
 11  8 26  0 16 30.0000000  0  9G10G25G09G12G17G05G04G30G02
 -19626574.97448 -15258554.93946  20968550.0234                   20968552.1024
  -7631048.266 7  -5933949.515 7  23295593.438
    486434.77246    416169.11843  24376459.2194                   24376467.7934
 -19362344.829 8 -15075922.862 7  21011835.867
  -5733167.271 6  -4431456.460 6  23643885.953
 -17464367.082 8 -13595247.311 7  21428296.172
 -12253767.19947  -9508959.90245  22227838.6564                   22227841.5704
  -5409037.77446  -4176651.15243  23362012.3984                   23362013.9304
 -22229457.17348 -17287250.79246  20616543.7584                   20616542.6294
 11  8 26  0 17  0.0000000  0  9G10G25G09G12G17G05G04G30G02
 -19603296.19547 -15240415.62046  20972980.3754                   20972981.7854
  -7719841.583 7  -6003139.078 7  23278696.641
    570556.57546    481718.37543  24392468.1024                   24392475.3284
 -19400415.008 8 -15105587.894 7  21004591.891
  -5671234.838 6  -4383197.452 6  23655670.297
 -17542062.077 8 -13655788.789 7  21413511.398
 -12173079.86447  -9446086.69045  22243193.7034                   22243195.8484
  -5498882.75447  -4246660.15943  23344915.1564                   23344917.1684
 -22221326.03548 -17280914.82146  20618091.0704                   20618090.0314
 11  8 26  0 17 30.0000000  0  9G10G25G09G12G17G05G04G30G02
 -19579396.53048 -15221792.48846  20977527.9224                   20977529.6294
  -7808337.789 7  -6072097.155 7  23261856.664
    654699.13746    547283.79243  24408480.3834                   24408487.9844
 -19437962.729 8 -15134845.823 7  20997446.648
  -5609127.632 7  -4334802.308 6  23667489.805
 -17619353.041 8 -13716015.449 7  21398803.219
 -12092315.96747  -9383153.82145  22258562.0234                   22258564.6454
  -5588380.51047  -4316398.59943  23327883.9534                   23327885.6054
 -22212943.35748 -17274382.83746  20619686.0234                   20619685.5354
 11  8 26  0 18  0.0000000  0  9G10G25G09G12G17G05G04G30G02
 -19554877.44548 -15202686.70346  20982193.5634                   20982195.6054
  -7896534.771 7  -6140822.012 7  23245073.023
    738858.70446    612862.45643  24424495.7424                   24424503.2384
 -19474987.016 8 -15163695.901 7  20990400.836
  -5546845.994 6  -4286271.239 6  23679342.188
 -17696238.207 8 -13775925.905 7  21384172.711
 -12011477.68347  -9320162.99545  22273945.8134                   22273947.5664
  -5677528.69346  -4385864.68243  23310920.1564                   23310921.2384
 -22204310.44948 -17267655.87946  20621328.8594                   20621328.1054
 11  8 26  0 18 30.0000000  0  9G10G25G09G12G17G05G04G30G02
 -19529738.72448 -15183098.07146  20986977.8674                   20986979.2704
  -7984428.769 7  -6209310.762 7  23228347.570
    823032.97746    678452.61643  24440513.0474                   24440520.4964
 -19511485.132 8 -15192135.978 7  20983455.680
  -5484388.759 6  -4237603.317 6  23691227.125
 -17772713.670 8 -13835517.094 7  21369619.852
 -11930565.43247  -9257114.53445  22289342.6644                   22289345.0984
  -5766323.49847  -4455055.43244  23294022.9304                   23294024.5554
 -22195427.40048 -17260734.01746  20623019.4844                   20623017.9964
 11  8 26  0 19  0.0000000  0  9G10G25G09G12G17G05G04G30G02
 -19503981.56848 -15163027.55546  20991878.8364                   20991880.7544
  -8072017.613 7  -6277561.760 7  23211679.633
    907218.36946    744051.42343  24456532.0394                   24456541.0744
 -19547455.719 8 -15220164.988 7  20976610.391
  -5421755.828 7  -4188798.496 6  23703145.586
 -17848777.298 8 -13894787.392 7  21355145.414
 -11849581.38347  -9194010.09445  22304753.4614                   22304755.2504
  -5854762.69647  -4523969.03844  23277193.7584                   23277196.0274
 -22186295.86048 -17253618.52746  20624757.0944                   20624756.0744
 11  8 26  0 19 30.0000000  0  9G10G25G09G12G17G05G04G30G02
 -19477608.04348 -15142476.74546  20996897.6174                   20996899.1844
  -8159299.707 7  -6345573.650 7  23195070.109
    991410.79446    809655.72043  24472554.8204                   24472563.0904
 -19582897.963 8 -15247782.306 7  20969866.117
  -5358947.761 7  -4139857.194 6  23715097.578
 -17924428.130 8 -13953736.028 7  21340749.102
 -11768528.04847  -9130851.68845  22320177.3914                   22320179.4494
  -5942844.39247  -4592604.11244  23260431.6484                   23260434.4264
 -22176918.03348 -17246311.12346  20626541.6724                   20626540.7274
 11  8 26  0 20  0.0000000  0  9G10G25G09G12G17G05G04G30G02
 -19450617.21948 -15121444.90746  21002033.9384                   21002035.3754
  -8246270.440 7  -6413342.961 7  23178520.156
   1075608.88746    875264.37943  24488577.0004                   24488585.2154
 -19617808.545 8 -15274985.346 7  20963223.031
  -5295962.623 6  -4090777.943 6  23727083.055
 -17999661.311 8 -14012359.219 7  21326433.039
 -11687405.25747  -9067639.15545  22335613.9844                   22335616.5434
  -6030564.02546  -4660957.05844  23243739.3204                   23243742.1954
 -22167293.14948 -17238811.20546  20628373.7034                   20628372.2734
 11  8 26  0 20 30.0000000  0  9G10G25G09G12G17G05G04G30G02
 -19423012.09747 -15099934.40646  21007286.5864                   21007288.4184
  -8332929.228 7  -6480869.170 7  23162029.484
   1159807.43946    940873.36742  24504599.8364                   24504608.5234
 -19652188.348 8 -15301774.788 7  20956680.750
  -5232801.984 7  -4041561.913 6  23739102.117
 -18074476.669 8 -14070656.842 7  21312195.719
 -11606216.57547  -9004375.30845  22351064.2584                   22351066.7344
  -6117920.78247  -4729027.24044  23227116.0784                   23227118.4804
 -22157424.40948 -17231121.27746  20630251.1024                   20630250.1414
 11  8 26  0 21  0.0000000  0  9G10G25G09G12G17G05G04G30G02
 -19394792.69447 -15077945.24746  21012657.0394                   21012658.5664
  -8419272.077 7  -6548149.189 7  23145599.094
   1244004.80746   1006481.52942  24520622.4304                   24520630.2664
 -19686034.479 8 -15328148.397 7  20950240.094
  -5169464.569 6  -3992208.157 6  23751155.047
 -18148870.457 8 -14128625.966 7  21298039.328
 -11524962.24847  -8941060.28045  22366526.1564                   22366528.8874
  -6204910.64646  -4796811.49144  23210562.6024                   23210565.4494
 -22147311.71948 -17223241.24146  20632175.4844                   20632174.7464
 11  8 26  0 21 30.0000000  0  9G10G25G09G12G17G05G04G30G02
 -19365960.00247 -15055478.19246  21018143.6644                   21018144.8954
  -8505296.293 7  -6615180.972 7  23129229.125
   1328197.66746   1072086.06442  24536642.5004                   24536651.8874
 -19719345.259 7 -15354104.844 7  20943901.125
  -5105949.935 7  -3942716.290 6  23763241.859
 -18222840.057 8 -14186264.556 7  21283963.594
 -11443643.67647  -8877695.21744  22382000.9384                   22382003.1884
  -6291530.84646  -4864307.74544  23194079.1644                   23194082.0394
 -22136956.24848 -17215172.04346  20634146.2344                   20634145.2974
 11  8 26  0 22  0.0000000  0  9G10G25G09G12G17G05G04G30G02
 -19336516.51748 -15032535.20246  21023746.4224                   21023748.0664
  -8591000.862 7  -6681963.628 6  23112920.516
   1412381.19346   1137683.46843  24552664.0234                   24552672.3244
 -19752120.668 8 -15379644.127 7  20937664.227
  -5042259.177 7  -3893087.195 6  23775361.367
 -18296384.641 8 -14243571.968 7  21269968.063
 -11362264.03447  -8814282.55445  22397486.9384                   22397489.2274
  -6377780.10047  -4931514.86844  23177666.5234                   23177669.9804
 -22126360.92548 -17206915.94546  20636162.4844                   20636161.4774
 11  8 26  0 22 30.0000000  0  9G10G25G09G12G17G05G04G30G02
 -19306460.64948 -15009115.03046  21029466.1884                   21029468.1764
  -8676380.573 7  -6748493.174 7  23096672.727
   1496554.95846   1203273.13342  24568681.2974                   24568690.2274
 -19784356.114 8 -15404762.657 7  20931529.875
  -4978389.899 6  -3843318.958 6  23787515.563
 -18369499.078 8 -14300544.191 7  21256054.711
 -11280822.50747  -8750821.67645  22412984.4224                   22412987.3324
  -6463653.21247  -4998428.90044  23161324.5474                   23161328.7894
 -22115523.68448 -17198471.34646  20638224.6724                   20638223.8834
 11  8 26  0 23  0.0000000  0  9G10G25G09G12G17G05G04G30G02
 -19275795.37347 -14985219.98846  21035300.9454                   21035302.8874
  -8761434.172 7  -6814768.642 7  23080487.586
   1580714.61546   1268851.83743  24584696.0314                   24584705.4024
 -19816052.097 8 -15429460.833 7  20925498.078
  -4914343.245 6  -3793412.546 6  23799703.180
 -18442182.763 8 -14357180.772 7  21242223.719
 -11199321.81847  -8687314.68945  22428493.9454                   22428496.3954
  -6549148.76947  -5065048.75644  23145055.6414                   23145058.9224
 -22104447.55948 -17189840.60046  20640332.6414                   20640331.4734
 11  8 26  0 23 30.0000000  0  9G10G25G09G12G17G05G04G30G02
 -19244522.46648 -14960851.46746  21041252.3444                   21041254.1764
  -8846159.542 7  -6880788.319 6  23064365.344
   1664856.53746   1334416.69943  24600708.3284                   24600717.9574
 -19847207.844 8 -15453738.034 7  20919569.633
  -4850119.211 6  -3743367.863 6  23811924.250
 -18514433.620 8 -14413480.085 7  21228474.594
 -11117763.94947  -8623763.13745  22444013.7584                   22444016.0704
  -6634264.68647  -5131372.74744  23128858.7584                   23128861.6564
 -22093133.66248 -17181024.57146  20642485.1564                   20642484.1294
 11  8 26  0 24  0.0000000  0  9G10G25G09G12G17G05G04G30G02
 -19212642.05747 -14936009.58846  21047318.7584                   21047320.9024
  -8930553.126 7  -6946549.512 6  23048305.469
   1748978.23746   1399965.78543  24616715.9064                   24616725.3914
 -19877821.289 8 -15477592.665 7  20913744.328
  -4785716.551 6  -3693184.031 6  23824179.445
 -18586248.262 8 -14469439.484 7  21214808.734
 -11036149.54047  -8560167.51744  22459543.8284                   22459547.0784
  -6718997.23947  -5197398.01844  23112734.5234                   23112736.4694
 -22081582.87048 -17172023.94446  20644683.4224                   20644682.5004
 11  8 26  0 24 30.0000000  0  9G10G25G09G12G17G05G04G30G02
 -19180155.73747 -14910695.55246  21053500.8204                   21053502.5554
  -9014612.774 7  -7012050.495 6  23032309.266
   1833076.44146   1465496.60943  24632719.4384                   24632728.8554
 -19907890.782 8 -15501023.442 7  20908021.773
  -4721135.669 6  -3642861.291 6  23836469.938
 -18657624.906 8 -14525057.589 7  21201225.953
 -10954480.57447  -8496529.39644  22475086.1174                   22475088.5124
  -6803344.17747  -5263122.79744  23096683.6724                   23096687.5944
 -22069796.64548 -17162839.87146  20646926.1334                   20646924.8794
 11  8 26  0 25  0.0000000  0  9G10G25G09G12G17G05G04G30G02
 -19147065.06147 -14884910.59946  21059797.6884                   21059799.0124
  -9098336.435 7  -7077289.646 6  23016377.492
   1917147.46246   1531006.26543  24648717.7664                   24648727.4064
 -19937415.701 8 -15524029.882 7  20902403.680
  -4656376.800 6  -3592399.892 6  23848792.648
 -18728561.822 8 -14580333.059 7  21187727.656
 -10872759.19847  -8432850.43444  22490636.8284                   22490639.2384
  -6887303.44947  -5328545.51644  23080706.8054                   23080710.2194
 -22057776.50648 -17153473.52846  20649213.4694                   20649212.5434
 11  8 26  0 25 30.0000000  0  9G10G25G09G12G17G05G04G30G02
 -19113370.69847 -14858655.24046  21066209.7584                   21066211.3834
  -9181720.456 7  -7142264.198 6  23000509.703
   2001189.22946   1596493.11043  24664711.3674                   24664720.7114
 -19966393.609 8 -15546610.075 7  20896889.172
  -4591438.540 6  -3541798.677 6  23861150.117
 -18799055.683 8 -14635263.285 7  21174312.688
 -10790985.71147  -8369130.83944  22506197.9694                   22506200.0004
  -6970871.35447  -5393663.30344  23064804.8284                   23064807.4844
 -22045522.89248 -17143925.24346  20651545.1094                   20651543.9304
 11  8 26  0 26  0.0000000  0  9G10G25G09G12G17G05G04G30G02
 -19079073.86748 -14831930.42846  21072736.0704                   21072737.2304
  -9264762.185 7  -7206972.010 7  22984707.445
   2085198.57346   1661954.66943  24680698.1174                   24680706.3284
 -19994823.087 8 -15568762.917 7  20891479.234
  -4526321.409 6  -3491058.087 6  23873540.984
 -18869104.082 8 -14689846.389 7  21160982.844
 -10709161.49047  -8305371.72545  22521767.9384                   22521770.8134
  -7054045.11647  -5458473.94044  23048977.4924                   23048978.9884
 -22033036.52848 -17134195.60446  20653920.9454                   20653920.2194
 11  8 26  0 26 30.0000000  0  9G10G25G09G12G17G05G04G30G02
 -19044176.37247 -14804737.57046  21079376.8594                   21079378.4924
  -9347459.465 7  -7271411.430 6  22968970.875
   2169171.92546   1727388.18143  24696677.1644                   24696686.6564
 -20022703.437 8 -15590487.865 7  20886173.930
  -4461025.094 6  -3440177.834 6  23885966.766
 -18938705.036 8 -14744080.841 7  21147738.336
 -10627288.63047  -8241574.72844  22537348.5314                   22537350.5474
  -7136822.55047  -5522975.72144  23033224.0784                   23033227.0634
 -22020318.98948 -17124285.82546  20656341.6484                   20656340.1484
 11  8 26  0 27  0.0000000  0  9G10G25G09G12G17G05G04G30G02
 -19008680.00847 -14777078.06346  21086131.7734                   21086133.3484
  -9429810.139 7  -7335580.771 7  22953299.531
   2253105.87646   1792790.96042  24712649.4384                   24712658.1914
 -20050033.926 8 -15611784.354 8  20880973.109
  -4395550.258 6  -3389158.523 6  23898426.297
 -19007856.892 8 -14797965.348 7  21134579.000
 -10545368.98547  -8177741.26244  22552936.6334                   22552939.9454
  -7219201.47547  -5587167.01244  23017548.8054                   23017550.3984
 -22007372.15148 -17114197.36646  20658804.9064                   20658804.2624
 11  8 26  0 27 30.0000000  0  9G10G25G09G12G17G05G04G30G02
 -18972584.46347 -14748951.66346  21093000.1484                   21093002.1484
  -9511809.876 7  -7399476.672 6  22937695.633
   2336999.41945   1858162.23242  24728614.4774                   24728623.8674
 -20076811.479 8 -15632649.988 7  20875877.563
  -4329894.356 6  -3337998.150 6  23910921.156
 -19076555.528 8 -14851496.695 7  21121506.188
 -10463402.17147  -8113871.05444  22568534.7194                   22568537.3404
  -7301177.38847  -5651044.30244  23001949.3984                   23001950.8594
 -21994195.38748 -17103929.74846  20661312.5704                   20661311.5124
 11  8 26  0 28  0.0000000  0  9G10G25G09G12G17G05G04G30G02
 -18935892.95847 -14720360.87546  21099982.5314                   21099984.0204
  -9593457.982 7  -7463098.541 7  22922158.148
   2420847.44445   1923498.10542  24744569.2894                   24744580.2894
 -20103036.651 8 -15653085.179 7  20870886.852
  -4264059.260 6  -3286698.085 6  23923448.031
 -19144800.735 8 -14904674.727 7  21108519.352
 -10381391.61247  -8049966.75145  22584140.6484                   22584144.3134
  -7382749.59847  -5714606.99544  22986426.1804                   22986428.5944
 -21980791.74448 -17093485.33446  20663863.0474                   20663862.1024
 11  8 26  0 28 30.0000000  0  9G10G25G09G12G17G05G04G30G02
 -18898605.76748 -14691305.92346  21107077.8914                   21107079.9184
  -9674750.776 7  -7526443.536 6  22906689.125
   2504648.19045   1988797.09342  24760516.0004                   24760528.6564
 -20128707.061 8 -15673088.100 7  20866002.000
  -4198044.378 6  -3235257.940 6  23936010.633
 -19212589.282 8 -14957496.902 7  21095619.633
 -10299337.57547  -7986028.60645  22599754.9454                   22599758.2934
  -7463914.49847  -5777852.30844  22970980.1644                   22970983.1884
 -21967161.42548 -17082864.29546  20666456.5314                   20666455.8634
 11  8 26  0 29  0.0000000  0  9G10G25G09G12G17G05G04G30G02
 -18860724.64548 -14661788.17346  21114286.7194                   21114288.4304
  -9755685.997 7  -7589509.919 7  22891287.203
   2588397.87045   2054056.34542  24776453.3364                   24776465.6254
 -20153821.909 8 -15692658.108 7  20861222.789
  -4131849.437 6  -3183677.506 6  23948607.414
 -19279919.005 8 -15009961.564 7  21082806.930
 -10217241.77347  -7922057.87044  22615377.8204                   22615380.9024
  -7544669.62447  -5840778.32444  22955613.3524                   22955615.7774
 -21953305.79148 -17072067.68546  20669093.2664                   20669092.4964
 11  8 26  0 29 30.0000000  0  9G10G25G09G12G17G05G04G30G02
 -18822251.46048 -14631809.05146  21121607.6334                   21121608.9024
  -9836261.417 7  -7652295.897 7  22875954.148
   2672093.17745   2119273.15442  24792380.5394                   24792393.2584
 -20178380.138 8 -15711794.400 7  20856549.578
  -4065474.430 6  -3131956.781 6  23961237.141
 -19346788.325 8 -15062067.468 7  21070082.281
 -10135106.10447  -7858056.10744  22631008.0784                   22631010.4144
  -7625012.79147  -5903383.36144  22940325.1564                   22940327.4184
 -21939226.18448 -17061096.55746  20671772.7194                   20671771.8524
 11  8 26  0 30  0.0000000  0  9G10G25G09G12G17G05G04G30G02
 -18783187.50048 -14601369.60146  21129041.5704                   21129042.9184
  -9916474.053 7  -7714799.213 7  22860690.258
   2755731.404 6                  24808297.648
 -20202380.595 8 -15730496.060 7  20851982.453
  -3998919.122 6  -3080095.511 6  23973903.461
 -19413194.442 8 -15113812.434 7  21057445.750
 -10052931.44247  -7794023.94844  22646645.0704                   22646647.8444
  -7704940.89347  -5965664.94444  22925115.2584                   22925118.1454
 -21924923.14848 -17049951.32846  20674494.6414                   20674493.7774
 11  8 26  0 30 30.0000000  0  9G10G25G09G12G17G05G04G30G02
 -18743534.36148 -14570471.06246  21136587.3594                   21136588.6214
  -9996321.450 7  -7777017.905 7  22845495.633
   2839309.655 5                  24824202.016
 -20225821.959 8 -15748762.053 7  20847521.203
  -3932183.232 6  -3028093.558 6  23986601.695
 -19479135.142 8 -15165194.735 7  21044897.070
  -9970719.05347  -7729962.37344  22662289.7504                   22662292.1994
  -7784451.37147  -6027621.10144  22909984.7814                   22909987.4804
 -21910398.21848 -17038633.17946  20677258.2424                   20677257.1134
 11  8 26  0 31  0.0000000  0  9G10G25G09G12G17G05G04G30G02
 -18703294.36248 -14539115.21946  21144244.8364                   21144246.1374
 -10075801.518 7  -7838950.386 7  22830371.336
   2922824.389 6                  24840094.813
 -20248703.835 8 -15766592.084 7  20843167.180
  -3865267.317 6  -2975951.324 6  23999336.180
 -19544609.046 8 -15216213.313 7  21032438.023
  -9888471.11647  -7665873.11344  22677940.1644                   22677943.7344
  -7863542.35447  -6089250.37044  22894933.8594                   22894936.6414
 -21895653.11448 -17027143.47946  20680064.2894                   20680063.1484
 11  8 26  0 31 30.0000000  0  9G10G25G09G12G17G05G04G30G02
 -18662452.14948 -14507290.11646  21152016.6884                   21152018.3244
 -10154895.234 7  -7900581.774 7  22815320.172
   3006289.404 6                  24855977.109
 -20271008.643 8 -15783972.454 7  20838922.844
  -3798154.821 6  -2923655.950 6  24012107.867
 -19609597.607 8 -15266853.680 7  21020071.242
  -9806172.32347  -7601744.24444  22693601.7894                   22693604.9494
  -7942194.50147  -6150537.73544  22879967.2664                   22879969.7034
 -21880672.25448 -17015470.07446  20682914.9384                   20682913.8554
 11  8 26  0 32  0.0000000  0  8G10G25G12G17G05G04G30G02
 -18621041.58048 -14475022.15846  21159896.8284                   21159898.1884
 -10233632.199 7  -7961935.185 7  22800337.047
 -20292767.244 8 -15800927.201 7  20834782.219
  -3730877.498 6  -2871232.097 6  24024909.875
 -19674130.759 8 -15317139.206 7  21007790.781
  -9723856.17647  -7537601.82545  22709265.7424                   22709269.0474
  -8020437.55947  -6211506.31944  22865077.8134                   22865080.8404
 -21865488.97648 -17003638.93346  20685804.3984                   20685803.3324
 11  8 26  0 32 30.0000000  0  8G10G25G12G17G05G04G30G02
 -18579047.48447 -14442299.48346  21167888.1724                   21167889.4844
 -10311992.995 7  -8022995.501 7  22785425.555
 -20313961.286 8 -15817442.036 7  20830749.109
  -3663418.239 6  -2818666.470 6  24037746.953
 -19738189.482 8 -15367055.026 7  20995600.813
  -9641507.13447  -7473433.80244  22724937.0004                   22724939.6054
  -8098252.02847  -6272140.92344  22850270.7344                   22850273.1174
 -21850087.58548 -16991637.83546  20688735.1724                   20688733.9534
 11  8 26  0 33  0.0000000  0  8G10G25G12G17G05G04G30G02
 -18536471.97947 -14409123.76045  21175989.8054                   21175991.3054
 -10389975.556 7  -8083761.071 7  22770586.531
 -20334590.966 7 -15833517.115 7  20826823.680
  -3595777.995 6  -2765959.840 6  24050618.359
 -19801772.066 8 -15416599.866 7  20983501.336
  -9559127.06947  -7409241.59844  22740612.9304                   22740615.4614
  -8175635.79947  -6332439.90844  22835544.4224                   22835547.6024
 -21834469.66148 -16979468.01146  20691707.2504                   20691706.0904
 11  8 26  0 33 30.0000000  0  8G10G25G12G17G05G04G30G02
 -18493316.79947 -14375496.35645  21184201.8914                   21184203.4494
 -10467577.321 7  -8144229.910 7  22755818.859
 -20354655.022 8 -15849151.433 7  20823005.539
  -3527956.127 6  -2713111.676 6  24063524.445
 -19864876.218 8 -15465771.856 7  20971492.891
  -9476717.00647  -7345025.99644  22756294.9694                   22756298.3674
  -8252586.24547  -6392401.26944  22820901.3984                   22820903.7774
 -21818636.27748 -16967130.29546  20694720.3134                   20694719.2274
 11  8 26  0 34  0.0000000  0  8G10G25G12G17G05G04G30G02
 -18449583.83447 -14341418.72645  21192524.0004                   21192525.5704
 -10544796.120 7  -8204400.351 7  22741124.773
 -20374152.707 8 -15864344.430 7  20819295.258
  -3459953.113 6  -2660122.388 5  24076464.891
 -19927500.834 8 -15514570.222 7  20959575.695
  -9394278.89047  -7280788.54344  22771982.7974                   22771985.5434
  -8329101.29347  -6452023.35944  22806341.2424                   22806342.5124
 -21802589.00648 -16954625.90946  20697773.8754                   20697772.7774
 11  8 26  0 34 30.0000000  0  8G10G25G12G17G05G04G30G02
 -18405276.01747 -14306893.15145  21200955.5234                   21200956.8794
 -10621630.708 7  -8264271.412 7  22726503.555
 -20393084.397 8 -15879096.387 7  20815692.766
  -3391769.852 6  -2606992.583 6  24089440.422
 -19989644.661 8 -15562993.922 7  20947750.211
  -9311815.15947  -7216531.12244  22787675.2034                   22787678.3134
  -8405179.58647  -6511305.11344  22791864.0474                   22791864.6564
 -21786330.09148 -16941956.61546  20700867.9144                   20700866.2854
 11  8 26  0 35  0.0000000  0  8G10G25G12G17G05G04G30G02
 -18360391.69947 -14271918.35645  21209496.9614                   21209498.5274
 -10698075.049 7  -8323838.392 7  22711956.727
 -20411445.360 8 -15893403.639 7  20812198.523
  -3323403.135 6  -2553719.893 6  24102449.117
 -20051302.421 8 -15611038.886 7  20936016.984
  -9229323.65247  -7152252.03044  22803372.3594                   22803375.5234
  -8480815.08847  -6570241.84444  22777470.6484                   22777472.2624
 -21769857.18948 -16929120.56946  20704002.5234                   20704001.0744
 11  8 26  0 35 30.0000000  0  8G10G25G12G17G05G04G30G02
 -18314935.76047 -14236498.14845  21218146.6254                   21218148.1024
 -10774129.880 7  -8383101.835 7  22697483.430
 -20429238.418 8 -15907268.354 7  20808812.750
  -3254856.005 6  -2500306.584 5  24115493.305
 -20112475.388 8 -15658706.065 7  20924376.430
  -9146808.78647  -7087954.74044  22819075.1254                   22819076.8324
  -8556008.53647  -6628834.09744  22763162.2894                   22763163.3674
 -21753174.98648 -16916121.42546  20707177.1334                   20707175.7464
 11  8 26  0 36  0.0000000  0  8G10G25G12G17G05G04G30G02
 -18268908.46448 -14200632.72846  21226905.5554                   21226907.3554
 -10849791.121 7  -8442058.604 7  22683085.602
 -20446460.992 8 -15920688.534 7  20805535.430
  -3186126.767 6  -2446751.385 6  24128572.516
 -20173159.870 8 -15705992.628 7  20912828.273
  -9064270.13647  -7023638.93044  22834781.4694                   22834783.6644
  -8630755.93647  -6687078.78644  22748937.8754                   22748939.2074
 -21736282.32548 -16902958.29246  20710391.5784                   20710390.4344
 11  8 26  0 36 30.0000000  0  8G10G25G12G17G05G04G30G02
 -18222311.89748 -14164323.70546  21235772.7274                   21235774.0704
 -10925056.392 7  -8500706.793 6  22668763.039
 -20463112.089 8 -15933663.396 7  20802366.859
  -3117215.214 6  -2393054.107 6  24141685.359
 -20233353.802 8 -15752896.933 7  20901373.734
  -8981709.31647  -6959305.82844  22850493.0554                   22850494.5944
  -8705054.73247  -6744973.90644  22734799.9534                   22734801.0784
 -21719180.56148 -16889632.22446  20713646.1804                   20713644.9264
 11  8 26  0 37  0.0000000  0  8G10G25G12G17G05G04G30G02
 -18175149.33548 -14127573.64846  21244746.8594                   21244748.4884
 -10999924.776 7  -8559045.736 7  22654515.531
 -20479192.362 8 -15946193.469 7  20799306.953
  -3048122.961 6  -2339216.038 6  24154834.242
 -20293057.028 8 -15799418.871 7  20890012.461
  -8899128.74347  -6894957.33544  22866206.7344                   22866209.2504
  -8778904.14947  -6802518.86644  22720746.7034                   22720748.3594
 -21701872.70848 -16876145.56346  20716939.6334                   20716938.1254
 11  8 26  0 37 30.0000000  0  8G10G25G12G17G05G04G30G02
 -18127419.53948 -14090381.60346  21253830.1804                   21253831.6644
 -11074390.847 7  -8617071.216 7  22640345.539
 -20494698.067 8 -15958275.816 7  20796356.367
  -2978847.300 6  -2285235.048 6  24168016.484
 -20352264.594 8 -15845554.586 7  20878745.727
  -8816527.01847  -6830592.37144  22881925.3204                   22881928.1454
  -8852298.68147  -6859709.34844  22706779.6254                   22706781.4494
 -21684356.93048 -16862496.88146  20720272.7664                   20720271.4184
 11  8 26  0 38  0.0000000  0  8G10G25G12G17G05G04G30G02
 -18079127.75847 -14052751.62845  21263019.8754                   21263021.0274
 -11148455.497 7  -8674783.889 7  22626251.656
 -20509631.857 8 -15969912.530 8  20793514.727
  -2909391.460 6  -2231113.653 6  24181234.266
 -20410978.079 8 -15891305.301 7  20867572.797
  -8733908.59347  -6766214.39944  22897647.1094                   22897649.5394
  -8925239.28547  -6916546.11945  22692900.4384                   22692901.5594
 -21666637.45948 -16848689.48846  20723644.5234                   20723643.6294
 11  8 26  0 38 30.0000000  0  8G10G25G12G17G05G04G30G02
 -18030273.79248 -14014683.60145  21272316.5704                   21272317.7774
 -11222114.208 7  -8732180.243 7  22612235.070
 -20523991.198 8 -15981101.610 7  20790781.719
  -2839752.689 7  -2176849.726 6  24194485.656
 -20469193.320 8 -15936667.770 7  20856494.781
  -8651272.48447  -6701822.64744  22913372.4224                   22913375.7154
  -8997721.45547  -6973025.66145  22679106.8674                   22679108.9304
 -21648713.42948 -16834722.70246  20727055.2034                   20727054.1094
 11  8 26  0 39  0.0000000  0  8G10G25G12G17G05G04G30G02
 -17980861.67847 -13976180.64845  21281719.0784                   21281720.7274
 -11295366.498 8  -8789259.915 7  22598295.133
 -20537776.624 8 -15991843.484 7  20788158.703
  -2769934.015 7  -2122445.557 6  24207772.039
 -20526910.552 8 -15981642.190 7  20845511.500
  -8568622.09947  -6637419.77644  22929099.8284                   22929103.4414
  -9069744.74647  -7029147.66545  22665401.5164                   22665403.1414
 -21630587.84248 -16820598.85046  20730504.5554                   20730503.1914
 11  8 26  0 39 30.0000000  0  8G10G25G12G17G05G04G30G02
 -17930890.04647 -13937241.70145  21291228.3134                   21291229.7194
 -11368206.530 7  -8846018.339 7  22584434.391
 -20550984.589 8 -16002135.393 7  20785645.156
  -2699931.378 6  -2067898.096 6  24221092.211
 -20584124.627 8 -16026224.520 7  20834623.961
  -8485955.08747  -6573003.94944  22944830.8984                   22944833.9774
  -9141303.25647  -7084907.50045  22651783.8134                   22651785.7234
 -21612258.36648 -16806316.13346  20733992.8674                   20733991.4224
 11  8 26  0 40  0.0000000  0  8G10G25G12G17G05G04G30G02
 -17880363.93247 -13897870.69146  21300842.8364                   21300844.9804
 -11440635.218 7  -8902456.253 7  22570651.602
 -20563617.392 8 -16011979.117 7  20783241.055
  -2629748.533 7  -2013210.190 6  24234448.453
 -20640837.023 8 -16070415.945 7  20823831.898
  -8403275.93547  -6508578.63644  22960564.4924                   22960567.6374
  -9212398.12847  -7140306.04345  22638254.9614                   22638257.6134
 -21593729.54848 -16791878.07646  20737518.4694                   20737517.0234
 11  8 26  0 40 30.0000000  0  8G10G25G12G17G05G04G30G02
 -17829283.19247 -13858067.52546  21310563.2504                   21310565.0434
 -11512648.013 8  -8958570.089 7  22556947.789
 -20575672.387 8 -16021372.608 7  20780947.258
  -2559382.847 7  -1958379.825 6  24247838.656
 -20697043.653 8 -16114213.271 7  20813136.172
  -8320583.76047  -6444143.20744  22976299.7584                   22976302.8714
  -9283024.66947  -7195339.64345  22624815.0784                   22624817.4534
 -21575000.22248 -16777283.78846  20741082.5864                   20741081.1994
 11  8 26  0 41  0.0000000  0  8G10G25G12G17G05G04G30G02
 -17777649.86647 -13817833.76446  21320388.9924                   21320390.4344
 -11584242.520 7  -9014357.979 7  22543323.531
 -20587148.897 8 -16030315.329 7  20778763.391
  -2488834.411 6  -1903406.993 6  24261263.219
 -20752742.480 8 -16157614.893 7  20802537.000
  -8237879.57146  -6379698.40344  22992038.5314                   22992041.2734
  -9353180.57747  -7250006.53044  22611465.2734                   22611467.1914
 -21556071.47248 -16762534.10646  20744684.2504                   20744683.2504
 11  8 26  0 41 30.0000000  0  8G10G25G12G17G05G04G30G02
 -17725466.82847 -13777171.65145  21330318.8594                   21330320.5434
 -11655417.494 7  -9069818.977 7  22529779.547
 -20598047.197 8 -16038807.508 7  20776689.727
  -2418104.513 6  -1848292.812 6  24274722.438
 -20807933.153 8 -16200620.569 7  20792034.625
  -8155165.75147  -6315246.12144  23007778.7974                   23007781.2774
  -9422864.58747  -7304305.70844  22598204.3594                   22598207.0124
 -21536945.54148 -16747630.77346  20748324.2114                   20748322.3364
 11  8 26  0 42  0.0000000  0  8G10G25G12G17G05G04G30G02
 -17672736.33547 -13736082.95446  21340353.2894                   21340355.3954
 -11726170.230 7  -9124950.941 7  22516315.938
 -20608366.593 8 -16046848.592 7  20774725.922
  -2347192.856 6  -1793036.990 6  24288216.258
 -20862613.765 8 -16243228.786 7  20781629.016
  -8072443.28947  -6250787.06744  23023519.9304                   23023522.2424
  -9492074.06047  -7358235.12945  22585033.6884                   22585036.6564
 -21517623.19748 -16732574.38946  20752001.1024                   20751999.2734
 11  8 26  0 42 30.0000000  0  8G10G25G12G17G05G04G30G02
 -17619459.66447 -13694568.67045  21350491.2114                   21350492.7704
 -11796497.862 7  -9179751.654 7  22502932.570
 -20618106.505 8 -16054438.123 7  20772872.289
  -2276099.144 7  -1737639.341 6  24301745.672
 -20916782.120 8 -16285437.851 7  20771321.195
  -7989712.57847  -6186321.59944  23039263.2344                   23039265.5824
  -9560806.14647  -7411792.55645  22571954.6174                   22571957.5044
 -21498105.14748 -16717365.50346  20755715.5234                   20755713.4844
 11  8 26  0 43  0.0000000  0  8G10G25G12G17G05G04G30G02
 -17565639.17347 -13652630.64445  21360733.2894                   21360734.7624
 -11866398.105 7  -9234219.359 7  22489631.141
 -20627266.038 8 -16061575.404 7  20771129.352
  -2204823.114 6  -1682099.579 6  24315309.117
 -20970436.532 8 -16327246.425 8  20761111.422
  -7906974.96147  -6121850.78944  23055008.1804                   23055010.1564
  -9629058.79647  -7464976.38545  22558966.9064                   22558969.7384
 -21478392.29348 -16702004.83546  20759466.5704                   20759464.6524
 11  8 26  0 43 30.0000000  0  9G10G25G29G12G17G05G04G30G02
 -17511278.14247 -13610271.38545  21371077.6414                   21371079.2464
 -11935869.918 7  -9288353.226 7  22476411.188
    442137.16316    355996.69916  24657123.867
 -20635845.727 8 -16068260.876 8  20769496.875
  -2133366.395 6  -1626419.077 6  24328905.688
 -21023576.292 8 -16368653.985 7  20750998.781
  -7824232.67547  -6057376.33344  23070753.6484                   23070755.5274
  -9696830.76847  -7517785.67845  22546070.5394                   22546073.1884
 -21458487.26347 -16686494.41746  20763254.0864                   20763252.5474
 11  8 26  0 44  0.0000000  0  9G10G25G29G12G17G05G04G30G02
 -17456376.33147 -13567490.75945  21381525.3284                   21381526.8554
 -12004908.801 7  -9342149.729 7  22463273.703
    361600.916 6    293241.279 5  24641798.281
 -20643843.035 8 -16074492.540 7  20767975.016
  -2061726.484 6  -1570595.826 6  24342539.289
 -21076197.908 8 -16409657.786 7  20740985.695
  -7741484.68147  -5992897.41744  23086499.7894                   23086501.9494
  -9764117.75847  -7570217.07345  22533266.1414                   22533268.4574
 -21438388.74148 -16670833.23146  20767078.7114                   20767077.0514
 11  8 26  0 44 30.0000000  0  9G10G25G29G12G17G05G04G30G02
 -17400937.43547 -13524291.62645  21392075.1484                   21392076.3054
 -12073513.898 7  -9395608.232 7  22450218.867
    280992.825 6    230429.902 5  24626459.672
 -20651258.909 7 -16080271.151 7  20766563.414
  -1989905.444 6  -1514631.413 6  24356207.078
 -21128300.937 8 -16450257.511 8  20731070.430
  -7658733.68547  -5928416.16844  23102246.5084                   23102249.0904
  -9830919.03347  -7622270.00044  22520554.5084                   22520555.7114
 -21418099.36048 -16655023.32346  20770939.8984                   20770938.0084
 11  8 26  0 45  0.0000000  0  9G10G25G29G12G17G05G04G30G02
 -17344964.17047 -13480676.08045  21402725.9614                   21402727.9224
 -12141683.438 7  -9448727.357 7  22437245.938
    200312.722 7    167562.404 5  24611106.445
 -20658093.655 8 -16085596.913 7  20765263.148
  -1917903.645 6  -1458526.175 6  24369908.281
 -21179884.356 8 -16490452.339 8  20721253.969
  -7575981.10647  -5863933.68244  23117994.0784                   23117996.5594
  -9897232.75847  -7673942.99944  22507935.4614                   22507936.4144
 -21397620.89848 -16639066.08446  20774837.0314                   20774834.9774
 11  8 26  0 45 30.0000000  0  9G10G25G29G12G17G05G04G30G02
 -17288456.56847 -13436644.18845  21413479.1644                   21413480.7424
 -12209413.205 7  -9501503.754 7  22424357.891
    119563.343 6    104640.866 5  24595740.688
 -20664345.052 8 -16090468.143 7  20764073.148
  -1845719.318 6  -1402278.684 6  24383644.156
 -21230944.910 8 -16530239.745 8  20711537.813
  -7493226.34847  -5799449.52544  23133741.8444                   23133744.3794
  -9963054.71847  -7725232.81544  22495409.9224                   22495410.3524
 -21376952.21948 -16622960.61446  20778769.5394                   20778768.3634
 11  8 26  0 46  0.0000000  0  9G10G25G29G12G17G05G04G30G02
 -17231419.20747 -13392199.48245  21424332.8134                   21424334.8054
 -12276702.679 8  -9553937.099 7  22411553.016
     38743.237 6     41664.323 6  24580359.422
 -20670014.373 8 -16094885.799 7  20762994.570
  -1773354.367 6  -1345890.437 6  24397415.125
 -21281482.581 8 -16569619.702 7  20701920.859
  -7410472.05446  -5734965.68944  23149489.1334                   23149492.0044
 -10028384.63247  -7776139.20844  22482977.3594                   22482978.4734
 -21356096.57448 -16606709.45746  20782738.5474                   20782736.9104
 11  8 26  0 46 30.0000000  0  9G10G25G29G12G17G05G04G30G02
 -17173851.94247 -13347341.88245  21435287.6414                   21435289.5314
 -12343547.616 7  -9606024.045 7  22398832.867
    -42145.076 6    -21365.422 6  24564966.938
 -20675099.115 8 -16098847.927 7  20762026.992
  -1700806.802 6  -1289359.907 6  24411219.945
 -21331494.064 8 -16608589.648 8  20692403.648
  -7327717.37846  -5670481.57843  23165236.6724                   23165239.3874
 -10093218.33447  -7826658.96144  22470640.3524                   22470641.7464
 -21335052.57948 -16590311.54746  20786742.8524                   20786741.8284
 11  8 26  0 47  0.0000000  0  9G10G25G29G12G17G05G04G30G02
 -17115759.30947 -13302074.88945  21446342.5314                   21446343.8634
 -12409948.180 7  -9657764.711 7  22386197.125
   -123103.208 6    -84449.579 6  24549560.813
 -20679601.129 8 -16102355.989 7  20761170.148
  -1628078.984 6  -1232688.907 6  24425059.461
 -21380979.859 8 -16647149.968 7  20682986.898
  -7244965.74446  -5605999.80444  23180983.9774                   23180986.1994
 -10157555.87747  -7876792.09445  22458397.1564                   22458398.5124
 -21313823.71648 -16573769.58046  20790782.9454                   20790781.3094
 11  8 26  0 47 30.0000000  0  9G10G25G29G12G17G05G04G30G02
 -17057141.38847 -13256398.57645  21457497.3364                   21457498.6644
 -12475899.941 7  -9709155.681 7  22373646.828
   -204128.667 6   -147586.258 6  24534143.063
 -20683518.579 8 -16105408.537 7  20760424.719
  -1555169.219 6  -1175876.068 6  24438934.141
 -21429936.536 8 -16685297.974 7  20673670.766
  -7162216.01546  -5541519.51643  23196730.5084                   23196732.6914
 -10221393.08447  -7926535.32345  22446248.9924                   22446250.3244
 -21292409.13248 -16557082.89446  20794857.7664                   20794856.5274
 11  8 26  0 48  0.0000000  0  9G10G25G29G12G17G05G04G30G02
 -16998001.77247 -13210315.75445  21468750.7194                   21468752.7734
 -12541401.974 7  -9760196.202 7  22361182.195
   -285222.214 6   -210775.937 6  24518711.102
 -20686852.297 8 -16108006.243 7  20759790.313
  -1482078.866 6  -1118922.571 6  24452842.445
 -21478363.900 8 -16723033.560 7  20664455.484
  -7079470.43246  -5477042.47644  23212476.1564                   23212479.7974
 -10284729.07447  -7975888.01245  22434196.9454                   22434198.4454
 -21270810.86048 -16540253.06746  20798967.8914                   20798966.6214
 11  8 26  0 48 30.0000000  0  9G10G25G29G12G17G05G04G30G02
 -16938342.93247 -13163828.32745  21480103.6254                   21480105.2774
 -12606452.063 7  -9810884.557 7  22348803.289
   -366383.078 6   -274018.089 6  24503267.375
 -20689601.801 8 -16110148.711 7  20759266.883
  -1408808.010 6  -1061828.471 6  24466785.820
 -21526260.620 8 -16760355.638 8  20655340.922
  -6996730.26446  -5412569.63243  23228221.8834                   23228223.6174
 -10347561.81847  -8024848.55245  22422240.5394                   22422241.8404
 -21249030.25848 -16523281.17946  20803112.4614                   20803111.4844
 11  8 26  0 49  0.0000000  0  9G10G25G29G12G17G05G04G30G02
 -16878166.17447 -13116937.34945  21491554.8594                   21491556.4774
 -12671047.191 7  -9861218.415 7  22336511.195
   -447609.785 6   -337311.539 6  24487809.836
 -20691766.024 7 -16111835.106 7  20758855.211
  -1335355.820 6  -1004592.991 6  24480763.266
 -21573624.211 8 -16797262.279 8  20646327.750
  -6913995.33647  -5348100.89544  23243965.9064                   23243968.6564
 -10409888.22947  -8073414.55445  22410379.8284                   22410381.6844
 -21227067.66048 -16506167.45346  20807291.5084                   20807290.4144
 11  8 26  0 49 30.0000000  0  9G10G25G29G12G17G05G04G30G02
 -16817475.22747 -13069645.69645  21503104.1484                   21503105.2464
 -12735186.312 7  -9911196.935 7  22324305.672
   -528903.109 6   -400656.903 6  24472341.516
 -20693345.860 7 -16113066.141 7  20758554.813
  -1261723.891 6   -947217.488 6  24494776.023
 -21620454.408 8 -16833753.316 8  20637416.391
  -6831268.14747  -5283638.17644  23259707.8524                   23259711.2734
 -10471707.42147  -8121585.31845  22398616.2974                   22398617.6684
 -21204924.97948 -16488913.41546  20811505.3284                   20811504.2584
 11  8 26  0 50  0.0000000  0  9G10G25G29G12G17G05G04G30G02
 -16756260.93347 -13021946.24845  21514752.6954                   21514753.4844
 -12798856.284 7  -9960809.887 7  22312190.016
   -610251.405 6   -464045.046 6  24456860.188
 -20694330.137 8 -16113833.099 8  20758367.141
  -1187901.149 6   -889693.260 6  24508822.273
 -21666739.030 8 -16869819.202 7  20628608.680
  -6748538.50147  -5219173.55344  23275450.8834                   23275454.3094
 -10533006.32247  -8169350.65544  22386950.8914                   22386953.5474
 -21182592.40148 -16471511.41246  20815755.2194                   20815753.7814
 11  8 26  0 50 30.0000000  0  8G10G25G29G12G05G04G30G02
 -16694544.46047 -12973855.47945  21526496.9774                   21526498.1294
 -12862073.341 7 -10010069.926 7  22300160.305
   -691672.408 6   -527489.820 5  24441365.617
 -20694737.461 8 -16114150.485 7  20758289.734
 -21712495.059 8 -16905473.211 8  20619901.453
  -6665826.08047  -5154722.33044  23291190.9614                   23291193.8794
 -10593801.36747  -8216723.39845  22375382.3134                   22375383.8164
 -21160089.20848 -16453976.46546  20820037.2894                   20820035.9574
 11  8 26  0 51  0.0000000  0  8G10G25G29G12G05G04G30G02
 -16632321.86947 -12925370.33545  21538337.2194                   21538339.1724
 -12924829.012 7 -10058970.435 7  22288218.492
   -773159.050 6   -590985.785 5  24425860.164
 -20694561.388 8 -16114013.290 7  20758323.273
 -21757714.714 8 -16940709.264 8  20611296.492
  -6583125.25547  -5090280.15244  23306928.3364                   23306931.0864
 -10654084.04647  -8263696.89745  22363911.2114                   22363911.9694
 -21137410.32248 -16436304.60646  20824352.7194                   20824351.4884
 11  8 26  0 51 30.0000000  0  8G10G25G29G12G05G04G30G02
 -16569592.34047 -12876490.17645  21550274.3984                   21550275.8404
 -12987118.134 7 -10107507.408 7  22276365.273
   -854707.870 7   -654530.139 6  24410341.477
 -20693798.640 8 -16113418.932 7  20758468.578
 -21802393.543 8 -16975523.895 8  20602794.266
  -6500433.98547  -5025845.40544  23322663.9304                   23322666.6954
 -10713849.48447  -8310267.36044  22352537.3444                   22352538.8484
 -21114553.58048 -16418494.16246  20828702.2734                   20828701.0124
 11  8 26  0 52  0.0000000  0  8G10G25G29G12G05G04G30G02
 -16506358.69747 -12827217.21345  21562307.0474                   21562309.0204
 -13048939.127 7 -10155679.610 7  22264600.617
   -936318.877 7   -718123.063 5  24394811.258
 -20692449.800 8 -16112367.881 7  20758724.969
 -21846530.803 8 -17009916.516 8  20594394.977
  -6417753.89047  -4961419.40844  23338397.6884                   23338400.3444
 -10773096.13147  -8356433.59645  22341262.8754                   22341264.2544
 -21091520.51348 -16400546.32246  20833085.3754                   20833084.4224
 11  8 26  0 52 30.0000000  0  8G10G25G29G12G05G04G30G02
 -16442624.69947 -12777554.35145  21574435.0314                   21574436.6334
 -13110290.886 8 -10203486.173 7  22252926.383
  -1017992.226 7   -781764.544 5  24379269.453
 -20690515.760 7 -16110860.832 7  20759093.492
 -21890126.345 8 -17043887.021 8  20586098.953
  -6335086.77347  -4897003.50144  23354127.6954                   23354131.5164
 -10831823.00547  -8402194.80545  22330087.5704                   22330089.5514
 -21068313.25648 -16382462.74346  20837501.3594                   20837500.2814
 11  8 26  0 53  0.0000000  0  8G10G25G29G12G05G04G30G02
 -16378392.73047 -12727503.46545  21586658.2034                   21586659.9024
 -13171171.329 8 -10250925.466 7  22241341.023
  -1099727.215 6   -845454.021 6  24363715.656
 -20687996.291 8 -16108897.620 7  20759572.844
 -21933178.924 8 -17077434.451 8  20577906.500
  -6252433.62547  -4832598.47944  23369857.1724                   23369860.6454
 -10890028.21447  -8447549.50445  22319012.1484                   22319013.6484
 -21044932.79448 -16364244.21146  20841950.3984                   20841949.7544
 11  8 26  0 53 30.0000000  0  8G10G25G29G12G05G04G30G02
 -16313663.12047 -12677064.81445  21598975.8444                   21598977.7344
 -13231576.317 7 -10297994.296 7  22229846.539
  -1181521.243 6   -909189.532 6  24348150.547
 -20684889.655 8 -16106476.871 7  20760164.031
 -21975685.383 8 -17110556.315 8  20569817.828
  -6169793.27646  -4768203.43444  23385582.4224                   23385585.9694
 -10947707.69247  -8492494.55045  22308035.7814                   22308037.5234
 -21021378.01848 -16345889.83646  20846432.9384                   20846431.5044
 11  8 26  0 54  0.0000000  0  8G10G25G29G12G05G04G30G02
 -16248440.06047 -12626241.64745  21611387.4924                   21611388.9304
 -13291505.402 8 -10344692.253 7  22218442.156
  -1263375.161 6   -972971.709 6  24332574.016
 -20681197.123 8 -16103599.572 7  20760866.336
 -22017646.013 8 -17143252.870 8  20561832.938
  -6087168.28147  -4703820.34143  23401305.5004                   23401308.7234
 -11004861.09347  -8537029.68445  22297159.6334                   22297161.8094
 -20997651.60348 -16327401.71446  20850948.3284                   20850946.8674
 11  8 26  0 54 30.0000000  0  8G10G25G29G12G05G04G30G02
 -16182725.97247 -12575035.88045  21623892.4144                   21623894.1884
 -13350956.706 7 -10391017.925 7  22207129.070
  -1345288.370 6  -1036800.086 6  24316986.273
 -20676919.290 8 -16100266.203 8  20761680.641
 -22059059.883 8 -17175523.378 8  20553952.141
  -6004559.83046  -4639450.17343  23417025.3284                   23417028.7424
 -11061486.73447  -8581153.53745  22286384.6484                   22286386.3164
 -20973754.61748 -16308780.69146  20855495.4614                   20855494.3634
 11  8 26  0 55  0.0000000  0  8G10G25G29G12G05G04G30G02
 -16116522.60047 -12523448.85145  21636490.5634                   21636492.2814
 -13409927.546 7 -10436969.199 7  22195907.320
  -1427259.751 6  -1100673.800 6  24301387.867
 -20672055.591 8 -16096476.314 8  20762606.258
 -22099924.902 8 -17207366.209 8  20546175.859
  -5921968.07246  -4575092.96443  23432742.4614                   23432744.7114
 -11117582.02747  -8624864.18345  22275709.5234                   22275712.1604
 -20949687.72148 -16290027.26846  20860075.4924                   20860074.7624
 11  8 26  0 55 30.0000000  0  8G10G25G29G12G05G04G30G02
 -16049832.82747 -12471482.81545  21649181.4924                   21649183.1644
 -13468416.167 8 -10482544.723 7  22184777.234
  -1509288.799 6  -1164592.427 6  24285776.766
 -20666606.325 8 -16092230.143 8  20763643.250
 -22140240.474 8 -17238780.896 7  20538503.852
  -5839394.10146  -4510749.66243  23448455.5704                   23448458.4454
 -11173145.42247  -8668160.33745  22265136.6884                   22265138.9064
 -20925451.98548 -16271142.27646  20864687.4614                   20864686.2504
 11  8 26  0 56  0.0000000  0  8G10G25G29G12G05G04G30G02
 -15982658.50547 -12419139.19745  21661964.4454                   21661966.0824
 -13526419.732 7 -10527742.274 7  22173739.391
  -1591373.799 6  -1228554.745 6  24270157.391
 -20660570.941 8 -16087527.260 7  20764791.656
 -22180004.459 8 -17269765.783 8  20530936.781
  -5756838.00246  -4446420.29443  23464165.4694                   23464168.5314
 -11228174.20947  -8711039.89345  22254665.0554                   22254667.3834
 -20901047.40748 -16252125.72046  20869331.4064                   20869330.3094
 11  8 26  0 56 30.0000000  0  8G10G25G29G12G05G04G30G02
 -15915004.32547 -12366421.67045  21674838.7034                   21674839.9964
 -13583938.656 8 -10572562.166 7  22162793.305
  -1673516.722 6  -1292562.140 6  24254527.031
 -20653951.569 8 -16082369.310 7  20766051.195
 -22219218.186 8 -17300321.896 8  20523474.961
  -5674303.10746  -4382107.42043  23479871.0084                   23479874.7544
 -11282668.93047  -8753503.29045  22244294.9534                   22244297.4304
 -20876477.35348 -16232980.21046  20874006.6644                   20874005.5554
 11  8 26  0 57  0.0000000  0  8G10G25G29G12G05G04G30G02
 -15846870.60847 -12313330.47345  21687804.3524                   21687805.9734
 -13640968.646 8 -10617001.097 7  22151941.055
  -1755714.161 7  -1356612.038 6  24238885.023
 -20646746.274 8 -16076754.809 7  20767422.109
 -22257878.481 8 -17330446.751 8  20516118.055
  -5591787.93347  -4317809.94644  23495574.3674                   23495577.1604
 -11336625.49547  -8795547.34745  22234027.4924                   22234029.3984
 -20851740.71048 -16213704.90046  20878714.0234                   20878712.9804
 11  8 26  0 57 30.0000000  0  8G10G25G29G12G05G04G30G02
 -15778261.17547 -12259868.58545  21700859.6884                   21700861.3284
 -13697508.984 8 -10661058.478 7  22141181.688
  -1837966.753 7  -1420704.931 6  24223233.063
 -20638956.670 8 -16070684.985 8  20768904.625
 -22295985.349 8 -17360140.372 8  20508866.578
  -5509294.55047  -4253529.42343  23511272.3204                   23511275.3324
 -11390043.29347  -8837171.58845  22223862.5004                   22223864.0314
 -20826839.53848 -16194301.37946  20883452.3284                   20883451.3594
 11  8 26  0 58  0.0000000  0  8G10G25G29G12G05G04G30G02
 -15709178.19247 -12206037.72145  21714005.8914                   21714007.3594
 -13753557.624 8 -10704732.708 7  22130516.547
  -1920273.502 7  -1484839.997 6  24207570.250
 -20630582.798 8 -16064159.905 8  20770498.289
 -22333537.742 8 -17389401.936 8  20501720.563
  -5426823.48847  -4189266.30144  23526966.0234                   23526968.0044
 -11442920.44347  -8878374.54145  22213800.1414                   22213801.6334
 -20801774.83748 -16174770.43146  20888222.3524                   20888221.0784
 11  8 26  0 58 30.0000000  0  8G10G25G29G12G05G04G30G02
 -15639622.51447 -12151838.49945  21727242.0944                   21727243.3754
 -13809110.692 7 -10748020.784 7  22119944.719
  -2002631.761 6  -1549015.194 6  24191897.648
 -20621623.150 8 -16057178.362 8  20772203.070
 -22370532.680 8 -17418229.121 8  20494680.406
  -5344373.75847  -4125019.80744  23542656.3054                   23542658.3244
 -11495253.26447  -8919153.34545  22203841.5314                   22203843.7234
 -20776545.37948 -16155111.11346  20893023.1724                   20893022.2774
 11  8 26  0 59  0.0000000  0  8G10G25G29G12G05G04G30G02
 -15569598.28147 -12097274.17245  21740567.2344                   21740568.4654
 -13864167.692 8 -10790922.329 7  22109468.109
  -2085042.465 6  -1613231.291 6  24176215.617
 -20612079.080 8 -16049741.424 8  20774019.500
 -22406970.455 8 -17446622.153 8  20487746.578
  -5261947.73747  -4060791.77444  23558341.3674                   23558343.5234
 -11547041.45247  -8959507.75945  22193986.5474                   22193988.6134
 -20751153.60248 -16135325.30246  20897855.0004                   20897853.8594
 11  8 26  0 59 30.0000000  0  8G10G25G29G12G05G04G30G02
 -15499107.77447 -12042346.52245  21753981.0554                   21753982.4574
 -13918726.757 8 -10833435.850 7  22099085.609
  -2167504.668 6  -1677487.475 5  24160522.352
 -20601951.161 8 -16041849.538 8  20775946.453
 -22442850.094 8 -17474580.262 8  20480918.977
  -5179546.03147  -3996582.71644  23574021.5784                   23574024.3244
 -11598283.36147  -8999436.48845  22184235.2584                   22184237.8134
 -20725600.80348 -16115414.02546  20902717.9304                   20902716.3634
 11  8 26  1  0  0.0000000  0  8G10G25G29G12G05G04G30G02
 -15428152.20948 -11987056.49045  21767483.5394                   21767485.4144
 -13972784.518 8 -10875558.767 7  22088798.414
  -2250015.856 6  -1741781.823 5  24144822.555
 -20591238.296 8 -16033501.862 7  20777985.352
 -22478169.417 8 -17502101.774 8  20474198.141
  -5097168.08246  -3932392.12844  23589697.4384                   23589700.6644
 -11648975.72747  -9038937.01745  22174588.8444                   22174591.3284
 -20699885.90848 -16095376.44046  20907611.4924                   20907610.1214
 11  8 26  1  0 30.0000000  0  8G10G25G29G12G05G04G30G02
 -15356736.85348 -11931408.16645  21781072.9694                   21781075.2974
 -14026341.564 8 -10917291.489 7  22078607.484
  -2332577.710 6  -1806115.619 6  24129110.789
 -20579943.029 8 -16024700.350 8  20780134.430
 -22512929.777 8 -17529187.732 8  20467583.313
  -5014817.17147  -3868222.62344  23605368.4774                   23605371.7234
 -11699119.33347  -9078009.93745  22165046.8134                   22165049.3714
 -20674012.59948 -16075215.41246  20912534.6804                   20912533.2274
 11  8 26  1  1  0.0000000  0  8G10G25G29G12G05G04G30G02
 -15284862.64947 -11875402.31145  21794750.4224                   21794752.1954
 -14079394.404 8 -10958631.343 7  22068511.500
  -2415187.815 6  -1870487.070 6  24113390.578
 -20568063.942 8 -16015443.916 8  20782395.336
 -22547128.833 8 -17555836.308 8  20461075.383
  -4932492.13346  -3804073.29043  23621033.8674                   23621036.3754
 -11748710.86047  -9116652.65645  22155609.9534                   22155612.7704
 -20647980.02748 -16054930.29846  20917488.4384                   20917487.6254
 11  8 26  1  1 30.0000000  0  8G10G25G29G12G05G04G30G02
 -15212533.22747 -11819041.73445  21808514.2894                   21808516.0554
 -14131942.354 8 -10999577.783 7  22058512.133
  -2497846.523 6  -1934896.353 6  24097660.633
 -20555603.580 8 -16005734.534 7  20784766.117
 -22580766.820 8 -17582047.686 8  20454674.125
  -4850195.19447  -3739945.85743  23636694.4844                   23636697.7734
 -11797749.90847  -9154864.88445  22146278.1644                   22146280.5864
 -20621790.40048 -16034522.79546  20922472.4064                   20922471.0784
 11  8 26  1  2  0.0000000  0  8G10G25G29G12G05G04G30G02
 -15139750.10147 -11762327.63445  21822364.1094                   21822366.3284
 -14183982.467 8 -11040128.515 7  22048609.117
  -2580551.818 6  -1999341.969 6  24081922.773
 -20542560.666 8 -15995571.213 7  20787247.836
 -22613841.691 8 -17607820.270 8  20448380.117
  -4767925.72146  -3675839.82143  23652349.5234                   23652353.0984
 -11846233.67447  -9192644.40845  22137051.5704                   22137053.8284
 -20595443.22448 -16013992.52346  20927485.6094                   20927484.3014
 11  8 26  1  2 30.0000000  0  8G10G25G29G12G05G04G30G02
 -15066515.56747 -11705261.78245  21836300.4384                   21836302.2774
 -14235512.564 8 -11080281.796 7  22038803.531
  -2663302.639 7  -2063823.063 6  24066176.289
 -20528935.048 8 -15984953.838 7  20789840.758
 -22646352.284 8 -17633153.172 8  20442193.539
  -4685684.26046  -3611755.60743  23667999.8754                   23668003.5204
 -11894160.07347  -9229989.63545  22127931.2344                   22127933.3244
 -20568939.29348 -15993340.11346  20932529.2504                   20932528.1524
 11  8 26  1  3  0.0000000  0  8G10G25G29G12G05G04G30G02
 -14992834.82647 -11647848.23745  21850321.5234                   21850323.0164
 -14286533.109 8 -11120038.031 7  22029094.266
  -2746100.049 7  -2128340.462 6  24050420.133
 -20514729.757 8 -15973884.764 7  20792544.211
 -22678300.020 8 -17658047.467 8  20436114.422
  -4603473.80746  -3547695.59543  23683643.4614                   23683647.3594
 -11941530.01747  -9266901.24745  22118917.4534                   22118918.9534
 -20542281.74948 -15972568.00046  20937602.3204                   20937600.9964
 11  8 26  1  3 30.0000000  0  8G10G25G29G12G05G04G30G02
 -14918708.44847 -11590087.43345  21864427.0084                   21864429.1254
 -14337040.541 8 -11159394.438 7  22019483.297
  -2828941.948 6  -2192892.552 6  24034655.609
 -20499943.339 8 -15962362.871 7  20795357.977
 -22709681.966 8 -17682500.892 8  20430142.523
  -4521293.01246  -3483658.67743  23699282.2114                   23699286.3364
 -11988339.98347  -9303376.51944  22110009.5314                   22110011.0474
 -20515469.74048 -15951675.52146  20942704.0004                   20942702.8594
 11  8 26  1  4  0.0000000  0  8G10G25G29G12G05G04G30G02
 -14844140.60747 -11531982.62645  21878616.9384                   21878618.8324
 -14387034.508 8 -11198350.773 7  22009969.406
  -2911828.002 7  -2257479.046 6  24018883.148
 -20484577.589 8 -15950389.550 7  20798281.781
 -22740499.566 8 -17706514.564 8  20424277.961
  -4439144.25046  -3419646.67943  23714914.6174                   23714917.8794
 -12034589.90647  -9339415.39544  22101208.4844                   22101209.7774
 -20488505.08148 -15930664.11046  20947835.5084                   20947834.5664
 11  8 26  1  4 30.0000000  0  8G10G25G29G12G05G04G30G02
 -14769132.33847 -11473534.64645  21892890.6484                   21892892.4534
 -14436511.886 8 -11236904.546 7  22000554.172
  -2994756.375 7  -2322098.529 6  24003101.844
 -20468632.176 8 -15937964.539 7  20801316.125
 -22770750.278 8 -17730086.514 8  20418521.406
  -4357026.77646  -3355659.08943  23730541.2194                   23730544.0824
 -12080276.88747  -9375015.60344  22092514.8524                   22092516.1374
 -20461387.79548 -15909533.76646  20952995.9534                   20952994.6524
 11  8 26  1  5  0.0000000  0  8G10G25G29G12G05G04G30G02
 -14693684.90147 -11414744.45245  21907248.1804                   21907249.7074
 -14485469.282 8 -11275053.128 7  21991238.063
  -3077724.566 7  -2386749.004 6  23987313.539
 -20452106.059 8 -15925087.054 8  20804461.008
 -22800431.700 8 -17753214.864 8  20412873.047
  -4274939.51646  -3291695.05343  23746160.9454                   23746165.4454
 -12125397.68447  -9410174.61645  22083928.7584                   22083930.0434
 -20434116.66848 -15888283.54146  20958185.1884                   20958183.9454
 11  8 26  1  5 30.0000000  0  8G10G25G29G12G05G04G30G02
 -14617804.75647 -11355617.08045  21921687.8594                   21921689.3634
 -14533908.847 8 -11312798.199 7  21982020.039
  -3160735.386 7  -2451432.701 6  23971517.109
 -20435002.903 8 -15911759.906 7  20807715.813
 -22829547.111 8 -17775902.155 8  20407332.820
  -4192886.96247  -3227758.04443  23761776.2344                   23761779.3874
 -12169954.72547  -9444894.34845  22075449.3914                   22075451.3484
 -20406696.63548 -15866917.28046  20963403.1954                   20963401.6454
 11  8 26  1  6  0.0000000  0  8G10G25G29G12G05G04G30G02
 -14541493.65547 -11296153.90445  21936209.4614                   21936210.7814
 -14581827.658 8 -11350137.481 7  21972901.766
  -3243786.509 7  -2516147.785 6  23955713.070
 -20417322.672 8 -15897983.104 7  20811080.297
 -22858094.520 8 -17798146.855 8  20401900.133
  -4110868.48047  -3163847.59643  23777384.5634                   23777387.3244
 -12213945.27947  -9479172.67545  22067078.3444                   22067079.3134
 -20379127.31148 -15845434.68446  20968649.2274                   20968648.3524
 11  8 26  1  6 30.0000000  0  8G10G25G29G12G05G04G30G02
 -14464752.61247 -11236355.70845  21950812.5394                   21950814.6454
 -14629222.873 8 -11387068.769 7  21963882.516
  -3326876.259 7  -2580893.012 6  23939902.242
 -20399065.258 8 -15883756.545 7  20814554.570
 -22886072.055 8 -17819947.483 8  20396576.148
  -4028883.81347  -3099963.45143  23792985.3204                   23792987.8014
 -12257366.86147  -9513007.62345  22058815.6884                   22058816.6844
 -20351408.28548 -15823835.44346  20973924.0554                   20973922.9024
 11  8 26  1  7  0.0000000  0  8G10G25G29G12G05G04G30G02
 -14387585.75747 -11176225.71545  21965497.1644                   21965499.1294
 -14676093.898 8 -11423591.595 7  21954963.461
  -3410004.240 7  -2645668.013 6  23924082.570
 -20380231.578 8 -15869080.943 7  20818138.258
 -22913480.206 8 -17841304.445 8  20391360.828
  -3946934.31846  -3036106.72843  23808580.2664                   23808582.6414
 -12300218.90047  -9546398.77745  22050661.0554                   22050662.0784
 -20323541.45448 -15802121.02246  20979226.8914                   20979225.6414
 11  8 26  1  7 30.0000000  0  8G10G25G29G12G05G04G30G02
 -14309995.11147 -11115765.48045  21980261.9694                   21980263.5274
 -14722438.570 8 -11459704.304 7  21946143.977
  -3493169.071 6  -2710471.719 6  23908256.859
 -20360822.475 8 -15853956.972 7  20821831.742
 -22940317.770 8 -17862216.803 8  20386253.664
  -3865020.34246  -2972277.72343  23824168.0634                   23824170.8674
 -12342499.56747  -9579344.72745  22042614.8524                   22042616.2704
 -20295527.10748 -15780291.65946  20984558.3204                   20984556.3404
 11  8 26  1  8  0.0000000  0  8G10G25G29G12G05G04G30G02
 -14231982.80347 -11054976.68445  21995107.2894                   21995108.6804
 -14768254.575 8 -11495405.034 7  21937425.742
  -3576369.096 6  -2775302.817 6  23892424.086
 -20340837.525 8 -15838384.289 7  20825634.773
 -22966583.712 8 -17882683.725 8  20381255.367
  -3783141.76446  -2908476.25243  23839748.5084                   23839751.7624
 -12384206.84447  -9611843.87145  22034678.6024                   22034680.0554
 -20267365.40348 -15758347.46446  20989917.0704                   20989915.3444
 11  8 26  1  8 30.0000000  0  8G10G25G29G12G05G04G30G02
 -14153553.76947 -10993863.16145  22010031.9774                   22010033.0704
 -14813542.203 8 -11530694.071 7  21928807.625
  -3659605.025 7  -2840161.945 6  23876585.914
 -20320279.002 8 -15822364.673 7  20829546.820
 -22992279.007 8 -17902706.001 8  20376365.813
  -3701300.92547  -2844704.17543  23855322.4454                   23855325.4494
 -12425341.24047  -9643896.60145  22026850.2894                   22026852.4104
 -20239058.86148 -15736290.42146  20995303.1414                   20995302.2974
 11  8 26  1  9  0.0000000  0  8G10G25G29G12G05G04G30G02
 -14074707.76947 -10932424.72545  22025035.6804                   22025037.0274
 -14858297.440 8 -11565568.261 7  21920290.734
  -3742873.639 6  -2905046.481 6  23860739.539
 -20299146.182 8 -15805897.537 7  20833568.383
 -23017401.093 8 -17922281.613 8  20371585.344
  -3619496.13746  -2780960.23343  23870889.0004                   23870892.6684
 -12465899.00647  -9675500.02445  22019132.6414                   22019134.5824
 -20210606.05748 -15714119.40446  21000717.9454                   21000716.9144
 11  8 26  1  9 30.0000000  0  8G10G25G29G12G05G04G30G02
 -13995450.50147 -10870665.82345  22040117.5634                   22040119.0164
 -14902521.501 8 -11600028.531 7  21911875.242
  -3826176.380 6  -2969957.635 6  23844887.172
 -20277442.269 8 -15788985.404 7  20837698.672
 -23041952.107 8 -17941412.243 8  20366913.016
  -3537730.66746  -2717246.91243  23886448.5234                   23886452.5744
 -12505881.60647  -9706655.26945  22011524.7274                   22011526.0204
 -20182010.47848 -15691837.13146  21006159.3754                   21006158.3914
 11  8 26  1 10  0.0000000  0  8G10G25G29G12G05G04G30G02
 -13915782.28947 -10808586.70645  22055277.7734                   22055279.4574
 -14946210.343 8 -11634071.767 7  21903561.531
  -3909509.684 7  -3034892.601 6  23829029.125
 -20255165.005 8 -15771626.503 7  20841937.938
 -23065928.972 8 -17960095.478 8  20362350.508
  -3456002.62546  -2653562.75443  23902000.8674                   23902004.5234
 -12545285.25747  -9737359.38645  22004026.6094                   22004027.5394
 -20153270.50048 -15669442.33646  21011628.7734                   21011627.2194
 11  8 26  1 10 30.0000000  0  8G10G25G29G12G05G04G30G02
 -13835706.88447 -10746190.30545  22070516.2584                   22070517.1374
 -14989363.280 8 -11667697.409 7  21895349.828
  -3992873.868 7  -3099851.656 6  23813165.867
 -20232316.914 8 -15753822.801 7  20846285.727
 -23089331.986 8 -17978331.559 8  20357897.070
  -3374313.23446  -2589908.73043  23917546.5554                   23917549.0434
 -12584109.52947  -9767612.04345  21996638.6334                   21996640.1484
 -20124387.29648 -15646935.93946  21017124.7034                   21017123.7194
 11  8 26  1 11  0.0000000  0  8G10G25G29G12G05G04G30G02
 -13755228.02647 -10683479.52845  22085830.5394                   22085832.0864
 -15031980.198 8 -11700905.389 7  21887240.016
  -4076269.085 7  -3164834.848 6  23797296.117
 -20208899.996 8 -15735575.865 7  20850741.508
 -23112162.184 8 -17996121.281 8  20353552.563
  -3292664.66546  -2526286.51343  23933083.5234                   23933086.8834
 -12622354.59147  -9797413.35645  21989360.6174                   21989362.1564
 -20095363.59148 -15624320.06146  21022647.7734                   21022646.5084
 11  8 26  1 11 30.0000000  0  8G10G25G29G12G05G04G30G02
 -13674346.85647 -10620455.25045  22101221.6724                   22101223.3204
 -15074057.613 8 -11733692.965 7  21879232.648
  -4159692.259 7  -3229839.876 6  23781420.945
 -20184913.210 8 -15716884.874 7  20855306.563
 -23134417.465 8 -18013463.030 8  20349317.477
  -3211055.46146  -2462694.96843  23948613.0474                   23948616.8794
 -12660017.20347  -9826760.82545  21982193.6884                   21982196.3524
 -20066197.77148 -15601593.44446  21028197.6564                   21028196.5984
 11  8 26  1 12  0.0000000  0  8G10G25G29G12G05G04G30G02
 -13593067.86147 -10557120.99345  22116688.9224                   22116690.4924
 -15115595.801 8 -11766060.384 7  21871328.664
  -4243143.790 7  -3294866.953 6  23765541.133
 -20160359.165 8 -15697751.863 7  20859978.477
 -23156098.996 8 -18030357.700 8  20345191.672
  -3129487.73346  -2399135.71843  23964134.4064                   23964138.1564
 -12697097.93947  -9855654.87545  21975137.6884                   21975139.8324
 -20036892.62248 -15578758.25846  21033774.3914                   21033773.6294
 11  8 26  1 12 30.0000000  0  8G10G25G29G12G05G04G30G02
 -13511393.64047 -10493478.75745  22132230.6954                   22132232.6564
 -15156593.347 8 -11798006.501 7  21863527.125
  -4326622.939 7  -3359915.580 6  23749655.969
 -20135238.725 8 -15678177.508 7  20864759.242
 -23177206.316 8 -18046804.924 8  20341175.102
  -3047962.19746  -2335609.34243  23979648.2344                   23979652.2854
 -12733595.74347  -9884094.68945  21968191.6174                   21968193.9844
 -20007448.87648 -15555815.07546  21039377.2734                   21039376.2974
 11  8 26  1 13  0.0000000  0  8G10G25G29G12G05G04G30G02
 -13429326.00147 -10429529.94445  22147847.6334                   22147849.7774
 -15197047.693 8 -11829529.355 7  21855828.555
  -4410127.135 7  -3424983.706 6  23733765.688
 -20109551.531 8 -15658161.520 7  20869647.086
 -23197737.984 8 -18062803.593 8  20337267.563
  -2966477.93446  -2272115.15943  23995154.6174                   23995157.7344
 -12769508.26347  -9912078.44645  21961358.0164                   21961360.0704
 -19977866.00648 -15532763.49746  21045006.7894                   21045006.1134
 11  8 26  1 13 30.0000000  0  8G10G25G29G12G05G04G30G02
 -13346867.33247 -10365276.47245  22163539.3284                   22163540.6174
 -15236957.168 8 -11860627.637 7  21848234.016
  -4493655.189 7  -3490070.416 6  23717869.852
 -20083298.688 8 -15637704.773 7  20874642.953
 -23217693.355 8 -18078353.208 8  20333470.430
  -2885035.48646  -2208653.54743  24010652.3134                   24010655.7624
 -12804834.07447  -9939605.03245  21954636.0084                   21954637.3164
 -19948144.50048 -15509603.87546  21050662.9144                   21050661.6214
 11  8 26  1 14  0.0000000  0  8G10G25G29G12G05G04G30G02
 -13264021.10247 -10300720.98345  22179304.1954                   22179305.8674
 -15276321.108 8 -11891300.819 7  21840743.039
  -4577206.757 7  -3555175.459 6  23701971.219
 -20056481.791 8 -15616808.500 7  20879745.945
 -23237072.961 8 -18093454.163 8  20329782.586
  -2803635.87846  -2145225.25043  24026142.1954                   24026145.8674
 -12839572.82847  -9966674.18345  21948025.1334                   21948026.7664
 -19918285.72548 -15486337.29646  21056344.7114                   21056343.5084
 11  8 26  1 14 30.0000000  0  8G10G25G29G12G05G04G30G02
 -13180790.91347 -10235866.30245  22195142.7734                   22195144.4574
 -15315138.754 8 -11921548.332 7  21833356.406
  -4660781.006 7  -3620298.204 6  23686066.711
 -20029102.200 7 -15595473.770 7  20884956.297
 -23255877.289 8 -18108106.858 8  20326204.156
  -2722280.27246  -2081831.31843  24041623.5474                   24041627.4534
 -12873724.12147  -9993285.56245  21941526.6644                   21941527.5704
 -19888291.17347 -15462964.90846  21062052.5394                   21062050.9884
 11  8 26  1 15  0.0000000  0  8G10G25G29G12G05G04G30G02
 -13097178.33147 -10170713.66245  22211053.6334                   22211054.7114
 -15353407.436 8 -11951368.066 7  21826073.961
  -4744375.707 7  -3685436.908 6  23670159.430
 -20001160.165 8 -15573700.777 7  20890273.461
 -23274104.933 8 -18122310.186 8  20322735.656
  -2640967.87446  -2018471.06643  24057097.0864                   24057100.6914
 -12907285.56947 -10019437.33845  21935140.1174                   21935140.9184
 -19858159.89848 -15439485.98346  21067786.0784                   21067785.1414
 11  8 26  1 15 30.0000000  0  8G10G25G29G12G05G04G30G02
 -13013187.33647 -10105266.15945  22227036.3204                   22227038.7504
 -15391127.647 8 -11980760.417 7  21818896.414
  -4827991.546 7  -3750592.106 6  23654248.352
 -19972658.428 8 -15551491.657 7  20895697.172
 -23291757.124 8 -18136065.116 8  20319376.438
  -2559700.84246  -1955146.12243  24072561.4064                   24072565.4264
 -12940257.95647 -10045130.08945  21928865.0164                   21928866.2304
 -19827894.90248 -15415902.87046  21073545.4844                   21073543.9884
 11  8 26  1 16  0.0000000  0  8G10G25G29G12G05G04G30G02
 -12928821.50247 -10039526.55445  22243090.2974                   22243091.9734
 -15428298.422 8 -12009724.658 7  21811823.102
  -4911627.560 7  -3815763.025 6  23638332.453
 -19943598.286 8 -15528847.396 7  20901227.352
 -23308834.110 8 -18149371.829 8  20316126.797
  -2478480.09246  -1891857.27043  24088018.0004                   24088021.5004
 -12972640.50047 -10070363.23345  21922703.4064                   21922703.9494
 -19797496.93048 -15392216.14346  21079329.9304                   21079328.8794
 11  8 26  1 16 30.0000000  0  8G10G25G29G12G05G04G30G02
 -12844080.48247  -9973494.60945  22259215.7504                   22259218.1054
 -15464915.256 8 -12038257.225 7  21804855.266
  -4995279.528 7  -3880946.357 6  23622414.641
 -19913977.970 8 -15505766.646 7  20906863.617
 -23325332.377 8 -18162227.584 8  20312987.125
  -2397302.64846  -1828602.14543  24103464.9694                   24103468.8324
 -13004429.13147 -10095133.59545  21916654.4304                   21916654.7384
 -19766963.34848 -15368423.73946  21085140.3284                   21085139.1764
 11  8 26  1 17  0.0000000  0  8G10G25G29G12G05G04G30G02
 -12758968.44347  -9907173.57645  22275412.8834                   22275414.7624
 -15500978.185 8 -12066358.214 7  21797992.398
  -5078947.450 7  -3946142.090 6  23606493.125
 -19883799.620 8 -15482251.049 7  20912606.180
 -23341253.355 8 -18174633.515 8  20309957.617
  -2316170.42746  -1765382.23643  24118904.1254                   24118908.3164
 -13035624.20747 -10119441.44245  21910717.6884                   21910718.4224
 -19736296.26448 -15344527.31046  21090976.1024                   21090974.9304
 11  8 26  1 17 30.0000000  0  8G10G25G29G12G05G04G30G02
 -12673489.40347  -9840566.55445  22291679.1954                   22291680.2934
 -15536487.163 8 -12094027.502 7  21791234.914
  -5162630.933 7  -4011349.950 6  23590568.453
 -19853065.551 8 -15458302.439 7  20918455.023
 -23356598.022 8 -18186590.363 8  20307037.492
  -2235084.87446  -1702198.75343  24134334.2114                   24134337.4384
 -13066225.96547 -10143286.96845  21904894.1094                   21904895.3524
 -19705497.88148 -15320528.56646  21096836.6094                   21096835.7194
 11  8 26  1 18  0.0000000  0  8G10G25G29G12G05G04G30G02
 -12587646.89747  -9773676.31445  22308013.8984                   22308015.7814
 -15571441.639 8 -12121264.753 7  21784583.766
  -5246329.931 7  -4076569.905 6  23574641.266
 -19821777.770 8 -15433922.358 7  20924408.578
 -23371366.862 8 -18198098.528 8  20304227.000
  -2154047.10346  -1639052.45443  24149755.7034                   24149758.8164
 -13096234.13547 -10166669.94845  21899184.0704                   21899184.9734
 -19674568.88348 -15296428.04246  21102721.9614                   21102720.7774
 11  8 26  1 18 30.0000000  0  8G10G25G29G12G05G04G30G02
 -12501443.52347  -9706504.87245  22324417.8204                   22324419.6914
 -15605840.257 8 -12148068.861 7  21778037.836
  -5330043.118 7  -4141800.882 6  23558710.617
 -19789936.805 8 -15409111.235 7  20930467.797
 -23385559.675 8 -18209157.828 8  20301526.516
  -2073057.34646  -1575943.59743  24165167.6254                   24165170.8794
 -13125647.75447 -10189589.63745  21893586.5164                   21893587.6884
 -19643510.01248 -15272226.33146  21108632.4224                   21108631.3244
 11  8 26  1 19  0.0000000  0  8G10G25G29G12G05G04G30G02
 -12414879.04947  -9639052.06044  22340890.1804                   22340892.6134
 -15639679.034 8 -12174436.725 7  21771598.922
  -5413765.932 7  -4207039.336 6  23542777.914
 -19757542.016 8 -15383868.542 7  20936632.563
 -23399173.710 8 -18219766.135 8  20298935.727
  -1992113.26946  -1512870.27343  24180570.2504                   24180573.6174
 -13154463.17147 -10212043.19145  21888103.3204                   21888104.9844
 -19612319.15948 -15247921.77846  21114568.0394                   21114567.1454
 11  8 26  1 19 30.0000000  0  8G10G25G29G12G05G04G30G02
 -12327958.97647  -9571322.13944  22357431.0084                   22357433.0044
 -15672959.312 8 -12200369.397 7  21765265.547
  -5497499.754 7  -4272286.389 6  23526843.969
 -19724596.936 8 -15358197.068 7  20942901.641
 -23412211.380 8 -18229925.343 8  20296454.609
  -1911217.69046  -1449834.77643  24195964.0234                   24195967.6174
 -13182681.97947 -10234031.85845  21882732.9534                   21882734.9024
 -19580999.43548 -15223516.79646  21120528.0084                   21120526.6374
 11  8 26  1 20  0.0000000  0  8G10G25G29G12G05G04G30G02
 -12240685.73947  -9503317.04145  22374038.3444                   22374040.6884
 -15705679.783 8 -12225865.850 7  21759038.750
  -5581243.421 7  -4337541.097 6  23510908.078
 -19691102.489 8 -15332097.505 7  20949275.297
 -23424672.321 8 -18239635.137 8  20294083.578
  -1830370.95246  -1386837.34243  24211348.0704                   24211352.2504
 -13210303.23647 -10255554.88645  21877477.5394                   21877478.8874
 -19549551.38948 -15199011.83546  21126511.8754                   21126510.8594
 11  8 26  1 20 30.0000000  0  8G10G25G29G12G05G04G30G02
 -12153059.74447  -9435037.08145  22390713.7114                   22390715.2424
 -15737836.885 8 -12250923.299 7  21752919.703
  -5664992.883 6  -4402800.372 6  23494970.742
 -19657057.617 8 -15305569.039 7  20955753.820
 -23436554.301 8 -18248893.803 8  20291822.336
  -1749570.56346  -1323876.06243  24226724.2194                   24226728.1994
 -13237323.73547 -10276609.80545  21872335.8674                   21872337.6054
 -19517973.07047 -15174405.35446  21132520.9844                   21132520.1684
 11  8 26  1 21  0.0000000  0  8G10G25G29G12G05G04G30G02
 -12065088.98347  -9366488.44844  22407453.2344                   22407455.3324
 -15769434.518 8 -12275544.816 7  21746906.359
  -5748751.896 7  -4468067.095 6  23479032.328
 -19622468.734 8 -15278616.679 7  20962336.336
 -23447862.341 8 -18257705.232 8  20289670.273
  -1668822.38046  -1260955.38543  24242091.0784                   24242093.9734
 -13263747.62647 -10297199.83245  21867307.4924                   21867309.2034
 -19486269.92647 -15149701.60646  21138554.4924                   21138552.9774
 11  8 26  1 21 30.0000000  0  8G10G25G29G12G05G04G30G02
 -11976771.43747  -9297669.59644  22424259.7274                   22424261.6254
 -15800466.820 8 -12299725.821 7  21741001.680
  -5832514.507 6  -4533336.575 6  23463092.383
 -19587332.148 8 -15251237.524 7  20969022.180
 -23458591.557 8 -18266065.638 8  20287628.813
  -1588121.65646  -1198071.73043  24257447.6954                   24257451.1684
 -13289569.45447 -10317320.69745  21862393.5474                   21862395.1604
 -19454437.99447 -15124897.50246  21144611.8524                   21144610.7464
 11  8 26  1 22  0.0000000  0  8G10G25G29G12G05G04G30G02
 -11888113.99547  -9228585.87144  22441130.9614                   22441132.2584
 -15830936.525 8 -12323468.417 7  21735203.023
  -5916283.077 7  -4598610.722 6  23447152.531
 -19551652.897 8 -15223435.523 7  20975811.859
 -23468746.099 8 -18273978.251 8  20285696.484
  -1507472.43246  -1135228.20043  24272794.3754                   24272797.8554
 -13314792.39347 -10336974.92245  21857593.8914                   21857595.2774
 -19422481.66347 -15099996.47846  21150692.9774                   21150691.8364
 11  8 26  1 22 30.0000000  0  8G10G25G29G12G05G04G30G02
 -11799119.25047  -9159239.32644  22458065.5474                   22458067.4494
 -15860842.537 8 -12346771.786 7  21729512.383
  -6000056.063 7  -4663888.324 6  23431211.063
 -19515432.323 8 -15195211.711 7  20982704.180
 -23478325.805 8 -18281442.917 8  20283873.367
  -1426874.98246  -1072425.02343  24288132.0944                   24288135.2774
 -13339415.56447 -10356161.78145  21852907.8754                   21852909.4614
 -19390401.32747 -15074998.81946  21156797.3594                   21156796.0124
 11  8 26  1 23  0.0000000  0  9G10G25G29G12G26G05G04G30G02
 -11709786.02147  -9089629.02744  22475065.9304                   22475066.9774
 -15890180.055 8 -12369632.157 7  21723929.859
  -6083828.876 7  -4729165.758 6  23415269.273
 -19478668.600 8 -15166564.667 7  20989700.188
   -593532.15256   -404313.82253  24816298.5784                   24816304.2234
 -23487327.056 8 -18288456.859 8  20282160.422
  -1346326.06246  -1009659.65543  24303459.9064                   24303462.3594
 -13363434.60348 -10374877.91045  21848337.4064                   21848339.0704
 -19358194.03447 -15049902.23046  21162926.0234                   21162925.0904
 11  8 26  1 23 30.0000000  0  9G10G25G29G12G26G05G04G30G02
 -11620119.76447  -9019759.21144  22492128.3914                   22492130.1524
 -15918950.647 8 -12392050.802 7  21718454.695
  -6167602.272 7  -4794443.663 6  23399327.828
 -19441365.429 8 -15137497.264 7  20996798.859
   -687800.62446   -477769.47142  24798359.3134                   24798366.0124
 -23495752.662 8 -18295022.242 8  20280557.273
  -1265828.18146   -946934.00543  24318777.9694                   24318781.3364
 -13386851.38947 -10393124.72545  21843881.3364                   21843883.0514
 -19325862.57248 -15024708.87746  21169079.1884                   21169077.4104
 11  8 26  1 24  0.0000000  0  9G10G25G29G12G26G05G04G30G02
 -11530123.93447  -8949632.61044  22509254.0004                   22509255.4774
 -15947153.839 8 -12414027.288 7  21713087.820
  -6251375.644 7  -4859721.514 6  23383385.789
 -19403524.515 8 -15108010.857 7  21003999.703
   -782192.20646   -551321.14043  24780398.1334                   24780403.4734
 -23503603.294 8 -18301139.584 8  20279063.242
  -1185382.32946   -884248.92843  24334086.5234                   24334089.2154
 -13409665.74947 -10410902.12945  21839539.8054                   21839541.7544
 -19293407.82647 -14999419.46246  21175254.8284                   21175253.5704
 11  8 26  1 24 30.0000000  0  9G10G25G29G12G26G05G04G30G02
 -11439801.03847  -8879251.13444  22526441.9384                   22526443.3754
 -15974788.406 8 -12435560.720 7  21707829.406
  -6335146.844 7  -4924997.692 6  23367445.063
 -19365147.222 8 -15078106.479 7  21011302.438
   -876703.69246   -624966.21443  24762413.1334                   24762417.6214
 -23510878.737 8 -18306808.751 8  20277678.641
  -1104988.45346   -821604.37243  24349384.3134                   24349388.0784
 -13431876.95748 -10428209.53445  21835313.4224                   21835314.3984
 -19260830.29548 -14974034.36646  21181453.6094                   21181452.8524
 11  8 26  1 25  0.0000000  0  9G10G25G29G12G26G05G04G30G02
 -11349153.51247  -8808616.72644  22543690.8594                   22543693.3014
 -16001853.147 8 -12456650.099 7  21702679.383
  -6418914.668 7  -4990271.254 6  23351504.633
 -19326234.574 8 -15047784.959 7  21018707.453
   -971331.77546   -698702.11443  24744405.3674                   24744411.0004
 -23517578.852 8 -18312029.593 8  20276403.375
  -1024646.57146   -759000.34243  24364673.1884                   24364677.0044
 -13453484.11847 -10445046.25845  21831201.3444                   21831203.2034
 -19228130.25448 -14948553.81246  21187676.8134                   21187675.2584
 11  8 26  1 25 30.0000000  0  9G10G25G29G12G26G05G04G30G02
 -11258184.11347  -8737731.51444  22561002.1724                   22561004.8164
 -16028347.195 8 -12477294.790 7  21697637.445
  -6502677.308 6  -5055540.795 6  23335564.859
 -19286788.469 8 -15017047.744 7  21026213.680
  -1066073.47046   -772526.58243  24726376.3834                   24726381.7234
 -23523704.091 8 -18316802.474 8  20275238.266
   -944356.74146   -696436.85943  24379951.2974                   24379955.3914
 -13474486.70148 -10461411.89045  21827204.8594                   21827206.2704
 -19195308.09348 -14922978.10346  21193922.7584                   21193921.4924
 11  8 26  1 26  0.0000000  0  9G10G25G29G12G26G05G04G30G02
 -11166895.51047  -8666597.56644  22578374.6484                   22578375.8874
 -16054269.320 8 -12497493.842 7  21692704.289
  -6586433.314 6  -5120805.126 6  23319626.203
 -19246810.060 8 -14985895.748 7  21033821.703
  -1160925.58746   -846437.13543  24708327.0314                   24708331.3954
 -23529254.185 8 -18321127.201 8  20274181.602
   -864119.19046   -633914.13543  24395220.4224                   24395224.3404
 -13494883.90848 -10477305.79945  21823323.6564                   21823324.7774
 -19162364.25148 -14897307.57646  21200191.7424                   21200190.3594
 11  8 26  1 26 30.0000000  0  9G10G25G29G12G26G05G04G30G02
 -11075292.14847  -8595218.34944  22595805.2734                   22595807.2154
 -16079620.385 8 -12517247.907 7  21687880.602
  -6670182.987 7  -5186064.565 6  23303689.500
 -19206302.380 8 -14954331.332 7  21041529.859
  -1255886.69946   -920432.56143  24690256.0084                   24690261.2584
 -23534231.422 8 -18325005.539 8  20273235.164
   -783935.81446   -571433.57043  24410478.8284                   24410482.6334
 -13514676.94448 -10492728.92845  21819556.7114                   21819558.4384
 -19129300.80248 -14871543.84246  21206483.4844                   21206482.3594
 11  8 26  1 27  0.0000000  0  9G10G25G29G12G26G05G04G30G02
 -10983375.49447  -8523595.00544  22613296.9924                   22613298.2114
 -16104398.222 8 -12536555.298 7  21683165.383
  -6753923.300 7  -5251316.722 6  23287754.086
 -19165265.696 8 -14922354.717 7  21049339.148
  -1350952.17846   -994509.33543  24672165.3054                   24672170.8524
 -23538634.550 8 -18328436.515 8  20272396.680
   -703805.24946   -508994.18243  24425727.3364                   24425731.1334
 -13533863.92648 -10507679.80945  21815905.2814                   21815907.1564
 -19096117.03947 -14845686.36146  21212798.3284                   21212797.1844
 11  8 26  1 27 30.0000000  0  9G10G25G29G12G26G05G04G30G02
 -10891148.96546  -8451730.18544  22630846.8594                   22630849.0084
 -16128602.443 8 -12555415.726 7  21678559.547
  -6837653.358 6  -5316560.837 6  23271820.563
 -19123702.083 8 -14889967.492 7  21057248.117
  -1446119.83546  -1068665.76043  24654056.1174                   24654059.9734
 -23542464.651 8 -18331420.990 8  20271668.188
   -623728.25146   -446596.54743  24440966.2974                   24440969.4964
 -13552444.95148 -10522158.51645  21812369.8444                   21812371.0474
 -19062813.55948 -14819735.59546  21219135.9534                   21219134.3444
 11  8 26  1 28  0.0000000  0  9G10G25G29G12G26G05G04G30G02
 -10798614.96647  -8379625.78744  22648455.5394                   22648457.3594
 -16152232.000 8 -12573828.360 7  21674063.031
  -6921371.325 6  -5381795.528 6  23255889.430
 -19081613.094 8 -14857170.888 7  21065257.758
  -1541386.35146  -1142899.15143  24635926.0864                   24635931.5634
 -23545721.610 8 -18333958.846 8  20271048.234
   -543704.91346   -384240.66143  24456192.8364                   24456196.9104
 -13570419.30248 -10536164.48045  21808949.3984                   21808950.6254
 -19029390.91547 -14793691.95946  21225495.9534                   21225494.7664
 11  8 26  1 28 30.0000000  0  9G10G25G29G12G26G05G04G30G02
 -10705777.22547  -8307284.72444  22666122.1804                   22666123.4804
 -16175287.070 8 -12591793.344 7  21669675.773
  -7005076.835 6  -5447020.545 6  23239960.586
 -19039000.629 8 -14823966.389 7  21073366.453
  -1636749.36246  -1217207.75543  24617778.4064                   24617784.3134
 -23548406.649 8 -18336051.048 8  20270537.047
   -463735.91646   -321927.19543  24471410.4384                   24471414.8244
 -13587787.58548 -10549698.18345  21805644.1564                   21805645.6174
 -18995850.09948 -14767556.24446  21231878.4064                   21231877.1684
 11  8 26  1 29  0.0000000  0  9G10G25G29G12G26G05G04G30G02
 -10612637.73047  -8234708.51644  22683845.8754                   22683847.3164
 -16197766.040 8 -12609309.407 7  21665398.055
  -7088767.553 7  -5512234.039 7  23224035.391
 -18995866.332 8 -14790355.253 7  21081574.508
  -1732205.13946  -1291588.67743  24599614.0164                   24599619.2504
 -23550519.385 8 -18337697.310 8  20270135.297
   -383821.20346   -259655.96443  24486618.2734                   24486622.0634
 -13604548.57548 -10562758.68145  21802454.9844                   21802456.1294
 -18962191.12848 -14741328.46546  21238283.5394                   21238282.4344
 11  8 26  1 29 30.0000000  0  9G10G25G29G12G26G05G04G30G02
 -10519200.85747  -8161900.58344  22701625.8364                   22701628.2424
 -16219669.934 8 -12626377.350 7  21661229.773
  -7172443.598 7  -5577436.089 6  23208112.063
 -18952213.251 8 -14756339.880 7  21089881.422
  -1827752.06546  -1366040.62643  24581431.3834                   24581437.3524
 -23552061.867 8 -18338899.214 8  20269841.445
   -303962.20646   -197428.19543  24501815.3524                   24501818.8754
 -13620703.63348 -10575347.01745  21799380.6884                   21799381.9734
 -18928415.90448 -14715010.09146  21244710.4774                   21244709.5274
 11  8 26  1 30  0.0000000  0  9G10G25G29G12G26G05G04G30G02
 -10425468.23047  -8088862.21244  22719463.1094                   22719465.0984
 -16240996.750 8 -12642995.649 7  21657171.641
  -7256102.069 7  -5642624.475 6  23192192.477
 -18908041.728 8 -14721920.538 7  21098287.109
  -1923385.79946  -1440560.20143  24563233.6254                   24563239.3404
 -23553033.465 8 -18339656.277 8  20269656.703
   -224157.97746   -135243.13943  24517001.4304                   24517005.1564
 -13636251.22848 -10587462.01145  21796422.1724                   21796423.3524
 -18894523.68448 -14688600.57446  21251160.0164                   21251158.6564
 11  8 26  1 30 30.0000000  0  9G10G25G29G12G26G05G04G30G02
 -10331443.28447  -8015596.03944  22737355.6414                   22737357.3484
 -16261746.349 8 -12659164.165 7  21653222.758
  -7339742.269 7  -5707798.599 6  23176276.711
 -18863354.024 8 -14687098.954 7  21106791.133
  -2019103.98646  -1515145.57642  24545019.6724                   24545023.4184
 -23553435.132 8 -18339969.246 8  20269580.203
   -144409.07746    -73101.14743  24532177.1564                   24532180.1214
 -13651191.54448 -10599103.82045  21793578.9614                   21793579.9534
 -18860515.56348 -14662100.74146  21257631.8284                   21257630.5944
 11  8 26  1 31  0.0000000  0  9G10G25G29G12G26G05G04G30G02
 -10237128.45047  -7942103.97644  22755303.1414                   22755304.6484
 -16281917.831 8 -12674882.219 7  21649384.703
  -7423362.269 7  -5772957.005 6  23160363.898
 -18818151.564 8 -14651876.261 7  21115392.250
  -2114903.19646  -1589794.06843  24526788.8834                   24526793.3284
 -23553266.728 8 -18339837.990 8  20269612.078
    -64715.60046    -11002.32743  24547341.8914                   24547345.3874
 -13665524.10448 -10610272.03145  21790851.5394                   21790852.7584
 -18826391.38648 -14635510.46346  21264125.0864                   21264123.6724
 11  8 26  1 31 30.0000000  0  9G10G25G29G12G26G05G04G30G02
 -10142525.97747  -7868387.80844  22773305.5314                   22773307.2854
 -16301510.049 8 -12690148.882 7  21645656.398
  -7506959.858 7  -5838097.934 6  23144456.078
 -18772435.375 8 -14616253.275 7  21124092.008
  -2210779.51546  -1664502.65142  24508544.8674                   24508548.8204
 -23552528.650 8 -18339262.845 8  20269752.641
     14922.91446     51053.63243  24562496.8984                   24562500.3164
 -13679248.15848 -10620966.10545  21788239.5314                   21788241.1054
 -18792151.05248 -14608829.67346  21270640.7194                   21270639.8094
 11  8 26  1 32  0.0000000  0  9G10G25G29G12G26G05G04G30G02
 -10047640.15947  -7794450.86244  22791362.2034                   22791363.6804
 -16320523.955 8 -12704964.909 7  21642037.539
  -7590534.844 7  -5903221.238 6  23128552.383
 -18726209.126 8 -14580232.839 7  21132889.000
  -2306731.50146  -1739270.17343  24490284.1254                   24490289.6484
 -23551222.808 8 -18338245.274 8  20270000.945
     94504.70346    113065.38643  24577641.2274                   24577644.7114
 -13692365.16048 -10631187.14445  21785743.6094                   21785745.2584
 -18757796.87248 -14582060.16946  21277178.1254                   21277176.7344
 11  8 26  1 32 30.0000000  0  9G10G25G29G12G26G05G04G30G02
  -9952474.83547  -7720296.05344  22809471.2584                   22809473.0204
 -16338959.697 8 -12719330.429 7  21638529.844
  -7674086.489 7  -5968326.398 6  23112652.695
 -18679475.438 8 -14543816.990 7  21141781.906
  -2402756.59646  -1814094.65742  24472011.5234                   24472015.7034
 -23549350.464 8 -18336786.280 8  20270357.281
    174029.20746    175032.44843  24592773.1804                   24592777.4574
 -13704875.45048 -10640935.43345  21783363.3674                   21783364.4144
 -18723329.67747 -14555202.61046  21283737.1414                   21283735.7194
 11  8 26  1 33  0.0000000  0  9G10G25G29G12G26G05G04G30G02
  -9857028.90547  -7645922.62644  22827633.9844                   22827635.7854
 -16356813.183 8 -12733242.243 7  21635132.141
  -7757609.971 7  -6033409.568 6  23096758.570
 -18632232.292 8 -14507004.175 7  21150772.000
  -2498848.10446  -1888971.00443  24453725.7584                   24453730.5554
 -23546908.775 8 -18334883.637 8  20270822.180
    253499.57546    236957.37343  24607896.9844                   24607900.4264
 -13716775.55048 -10650208.26545  21781098.6804                   21781100.0434
 -18688746.48048 -14528254.68346  21290318.6724                   21290317.0824
 11  8 26  1 33 30.0000000  0  9G10G25G29G12G26G05G04G30G02
  -9761309.12847  -7571335.80644  22845849.4534                   22845851.0784
 -16374087.811 8 -12746702.998 7  21631844.984
  -7841107.216 7  -6098472.352 6  23080869.813
 -18584485.534 8 -14469798.919 7  21159858.039
  -2595007.02546  -1963899.86643  24435427.9844                   24435431.6294
 -23543902.491 8 -18332541.060 8  20271394.063
    332912.02446    298837.14643  24623008.2664                   24623012.1374
 -13728069.20648 -10659008.52245  21778949.3754                   21778951.0204
 -18654051.49848 -14501219.63946  21296920.3364                   21296919.6174
 11  8 26  1 34  0.0000000  0  9G10G25G29G12G26G05G04G30G02
  -9665316.68147  -7496536.51744  22864115.5004                   22864117.0554
 -16390781.293 8 -12759710.935 7  21628668.672
  -7924575.139 7  -6163512.254 6  23064986.344
 -18536234.997 8 -14432201.122 7  21169039.523
  -2691228.03746  -2038877.05343  24417116.9614                   24417120.6644
 -23540330.006 8 -18329757.277 8  20272073.930
    412268.06346    360672.98943  24638109.6174                   24638113.2774
 -13738754.42948 -10667334.69345  21776916.0944                   21776917.4144
 -18619243.34748 -14474096.39546  21303543.9694                   21303542.7034
 11  8 26  1 34 30.0000000  0  9G10G25G29G12G26G05G04G30G02
  -9569054.92547  -7421527.37044  22882433.8834                   22882435.6604
 -16406893.916 8 -12772266.240 7  21625602.391
  -8008012.629 6  -6228528.481 6  23049108.297
 -18487483.537 8 -14394212.988 7  21178316.641
  -2787508.84946  -2113900.82643  24398795.3284                   24398798.3594
 -23536192.740 8 -18326533.409 8  20272861.250
    491566.90646    422464.27343  24653199.1254                   24653202.9964
 -13748832.06948 -10675187.42345  21774998.2344                   21775000.0944
 -18584322.99548 -14446885.73946  21310189.1954                   21310187.6294
 11  8 26  1 35  0.0000000  0  9G10G25G29G12G26G05G04G30G02
  -9472526.55047  -7346310.47744  22900802.5234                   22900804.6804
 -16422425.133 8 -12784368.493 7  21622646.859
  -8091418.199 7  -6293519.813 6  23033236.766
 -18438232.637 8 -14355835.682 7  21187688.867
  -2883846.17246  -2188968.73143  24380462.7424                   24380467.0944
 -23531491.728 8 -18322870.263 8  20273755.898
    570808.55846    484210.97243  24668278.5784                   24668282.2934
 -13758301.90748 -10682566.53545  21773196.7424                   21773197.8134
 -18549290.86048 -14419587.97746  21316855.4924                   21316854.2384
 11  8 26  1 35 30.0000000  0  8G10G25G29G12G26G05G30G02
  -9375732.67647  -7270886.72244  22919221.8984                   22919223.6524
 -16437372.780 8 -12796016.016 7  21619802.055
  -8174788.481 6  -6358483.651 6  23017371.898
 -18388482.702 8 -14317069.508 7  21197155.695
  -2980234.91946  -2264076.68943  24362120.8674                   24362123.8444
 -23526225.718 8 -18318766.853 8  20274757.563
 -13767162.26747 -10689470.73145  21771510.7034                   21771511.5744
 -18514145.56048 -14392202.02446  21323543.6174                   21323542.2424
 11  8 26  1 36  0.0000000  0  8G10G25G29G12G26G05G30G02
  -9278679.94547  -7195261.24344  22937690.7114                   22937692.4534
 -16451740.486 8 -12807211.647 7  21617068.188
  -8258125.677 7  -6423421.671 6  23001513.680
 -18338239.980 8 -14277919.353 7  21206717.023
  -3076675.87546  -2339225.26543  24343768.2274                   24343771.8134
 -23520399.427 8 -18314226.870 8  20275866.727
 -13775417.20547 -10695903.16545  21769939.3914                   21769941.2704
 -18478891.47648 -14364731.31346  21330252.1884                   21330250.7504
 11  8 26  1 36 30.0000000  0  8G10G25G29G12G26G05G30G02
  -9181369.28447  -7119434.78444  22956208.2194                   22956210.5664
 -16465525.967 8 -12817953.589 7  21614444.547
  -8341426.065 7  -6488331.076 6  22985662.109
 -18287504.280 8 -14238385.064 7  21216371.656
  -3173164.08046  -2414410.69443  24325406.9534                   24325410.3634
 -23514011.339 8 -18309249.115 8  20277082.094
 -13783064.74648 -10701862.30445  21768484.2114                   21768485.4384
 -18443526.97048 -14337174.55446  21336981.8444                   21336980.7194
 11  8 26  1 37  0.0000000  0  8G10G25G29G12G26G05G30G02
  -9083803.25547  -7043409.33544  22974774.3984                   22974776.1524
 -16478728.420 8 -12828241.202 7  21611931.945
  -8424687.965 7  -6553210.454 6  22969817.984
 -18236276.992 8 -14198467.714 7  21226119.867
  -3269695.64546  -2489629.91043  24307037.3444                   24307041.0944
 -23507062.147 8 -18303834.142 8  20278404.430
 -13790104.66148 -10707347.98845  21767144.7274                   21767146.1914
 -18408051.96448 -14309531.70046  21343732.5234                   21343730.7854
 11  8 26  1 37 30.0000000  0  8G10G25G29G12G26G05G30G02
  -8985985.42147  -6967187.66744  22993388.9064                   22993390.7234
 -16491348.521 8 -12838075.057 7  21609530.703
  -8507910.308 7  -6618059.008 6  22953980.727
 -18184560.798 8 -14158169.394 7  21235961.078
  -3366268.27846  -2564881.12143  24288660.4924                   24288663.9304
 -23499553.671 8 -18297983.362 8  20279833.102
 -13796537.90748 -10712360.90745  21765920.3284                   21765921.9574
 -18372467.63648 -14281803.67146  21350504.1334                   21350502.9884
 11  8 26  1 38  0.0000000  0  8G10G25G29G12G26G05G30G02
  -8887917.94747  -6890771.49744  23012050.0554                   23012052.0554
 -16503385.407 8 -12847454.447 7  21607240.516
  -8591091.161 7  -6682875.208 7  22938152.344
 -18132357.390 8 -14117491.429 7  21245895.188
  -3462878.27546  -2640161.44243  24270276.3674                   24270278.9064
 -23491485.911 8 -18291696.781 8  20281368.430
 -13802364.20748 -10716900.89545  21764811.2894                   21764813.9344
 -18336773.95048 -14253990.39946  21357296.5084                   21357294.9344
 11  8 26  1 38 30.0000000  0  8G10G25G29G12G26G05G30G02
  -8789604.09547  -6814163.30944  23030757.9774                   23030760.8364
 -16514839.299 8 -12856379.544 7  21605060.578
  -8674228.920 7  -6747657.876 7  22922331.445
 -18079669.321 8 -14076435.798 7  21255921.414
  -3559522.62746  -2715468.54643  24251884.8594                   24251888.0664
 -23482860.464 8 -18284975.634 8  20283009.859
 -13807584.12447 -10720968.37345  21763818.6254                   21763819.4534
 -18300971.63948 -14226092.50646  21364109.3914                   21364107.9804
 11  8 26  1 39  0.0000000  0  8G10G25G29G12G26G05G30G02
  -8691046.73747  -6737365.41844  23049513.2114                   23049515.5944
 -16525710.034 8 -12864850.237 7  21602992.352
  -8757322.153 7  -6812405.802 7  22906518.945
 -18026498.951 8 -14035004.368 7  21266039.336
  -3656198.20546  -2790800.01243  24233487.7344                   24233491.9104
 -23473677.896 8 -18277820.374 8  20284757.078
 -13812197.87148 -10724563.50245  21762940.8444                   21762941.8134
 -18265060.90548 -14198110.10746  21370942.6954                   21370941.7194
 11  8 26  1 39 30.0000000  0  8G10G25G29G12G26G05G30G02
  -8592248.20946  -6660379.55944  23068313.6564                   23068316.0274
 -16535996.811 8 -12872865.893 7  21601034.836
  -8840368.461 6  -6877117.169 7  22890716.188
 -17972847.512 8 -13993198.052 7  21276249.055
  -3752901.15446  -2866152.77943  24215085.5704                   24215089.5004
 -23463938.617 8 -18270231.309 8  20286610.430
 -13816205.15347 -10727686.06745  21762177.9844                   21762179.5944
 -18229041.52648 -14170043.05546  21377797.2194                   21377796.0474
 11  8 26  1 40  0.0000000  0  8G10G25G29G12G26G05G30G02
  -8493211.43146  -6583208.06444  23087159.1804                   23087162.1254
 -16545699.918 8 -12880426.751 7  21599188.227
  -8923366.682 7  -6941791.060 7  22874921.453
 -17918717.576 8 -13951018.898 7  21286549.797
  -3849628.60946  -2941524.68443  24196678.4694                   24196682.8714
 -23453644.146 8 -18262209.629 8  20288569.594
 -13819606.63747 -10730336.57345  21761530.9534                   21761532.2734
 -18192914.15648 -14141891.85646  21384671.9614                   21384670.4264
 11  8 26  1 40 30.0000000  0  8G10G25G29G12G26G05G30G02
  -8393939.92646  -6505853.68244  23106050.7814                   23106052.9184
 -16554819.987 8 -12887533.282 7  21597452.656
  -9006315.829 7  -7006426.705 7  22859137.313
 -17864111.630 8 -13908468.832 7  21296940.734
  -3946377.87146  -3016913.53043  24178268.1414                   24178272.2114
 -23442796.037 8 -18253756.539 8  20290633.688
 -13822403.43048 -10732515.88245  21760998.7114                   21760999.9224
 -18156679.86448 -14113657.33746  21391567.2114                   21391565.6174
 11  8 26  1 41  0.0000000  0  8G10G25G29G12G26G05G30G02
  -8294436.60346  -6428318.66543  23124984.7974                   23124987.6374
 -16563356.879 8 -12894185.397 7  21595828.242
  -9089214.356 7  -7071022.906 7  22843362.273
 -17809032.260 8 -13865549.854 7  21307421.859
  -4043145.68746  -3092316.91043  24159853.2664                   24159857.6844
 -23431395.431 8 -18244872.934 8  20292803.219
 -13824595.84347 -10734224.25145  21760581.6724                   21760582.6334
 -18120339.18548 -14085339.92546  21398482.4534                   21398481.0434
 11  8 26  1 41 30.0000000  0  8G10G25G29G12G26G05G30G02
  -8194704.17246  -6350605.10244  23143963.8524                   23143965.8674
 -16571310.458 8 -12900382.978 7  21594314.570
  -9172060.289 7  -7135578.126 7  22827597.172
 -17753481.382 8 -13822263.476 7  21317992.734
  -4139928.66546  -3167732.07543  24141435.9534                   24141440.0274
 -23419443.165 8 -18235559.466 8  20295077.617
 -13826184.26148 -10735461.97746  21760278.9384                   21760280.3954
 -18083892.22548 -14056939.69946  21405418.1254                   21405416.8204
 11  8 26  1 42  0.0000000  0  8G10G25G29G12G26G05G30G02
  -8094745.08046  -6272714.92744  23162985.3054                   23162988.0634
 -16578680.447 8 -12906125.829 7  21592911.961
  -9254851.651 7  -7200090.822 6  22811842.313
 -17697461.050 8 -13778611.286 7  21328653.258
  -4236723.22246  -3243156.28643  24123016.6954                   24123021.3954
 -23406940.112 8 -18225816.808 8  20297457.000
 -13827168.67548 -10736229.05445  21760092.1024                   21760093.1764
 -18047339.07748 -14028456.72646  21412373.8834                   21412372.8554
 11  8 26  1 42 30.0000000  0  8G10G25G29G12G26G05G30G02
  -7994562.86147  -6194650.89744  23182049.6024                   23182051.5354
 -16585467.420 8 -12911414.372 7  21591620.922
  -9337587.154 7  -7264559.984 6  22796098.141
 -17640973.781 8 -13734595.252 7  21339402.641
  -4333526.52346  -3318587.31543  24104595.4454                   24104598.8554
 -23393887.519 8 -18215645.942 8  20299940.586
 -13827550.20648 -10736526.35345  21760018.9614                   21760020.5394
 -18010680.58448 -13999891.65246  21419350.1094                   21419348.6024
 11  8 26  1 43  0.0000000  0  8G10G25G29G12G26G05G30G02
  -7894159.48946  -6116414.52844  23201155.8984                   23201157.3794
 -16591670.703 8 -12916248.095 7  21590440.258
  -9420264.652 7  -7328983.941 6  22780364.969
 -17584021.026 7 -13690216.503 7  21350240.086
  -4430334.61046  -3394022.06843  24086174.1414                   24086177.2074
 -23380286.080 8 -18205047.412 8  20302529.109
 -13827328.66048 -10736353.72145  21760061.7814                   21760062.9574
 -17973916.53148 -13971244.33146  21426346.1254                   21426344.2194
 11  8 26  1 43 30.0000000  0  8G10G25G29G12G26G05G30G02
  -7793537.87747  -6038008.11844  23220304.0084                   23220305.8554
 -16597290.609 8 -12920627.239 7  21589371.023
  -9502882.551 7  -7393361.511 6  22764643.898
 -17526605.879 7 -13645477.447 7  21361165.883
  -4527144.59346  -3469458.27843  24067751.5944                   24067755.1334
 -23366136.906 8 -18194022.067 8  20305221.438
 -13826504.78348 -10735711.74145  21760218.1174                   21760219.4304
 -17937047.05948 -13942514.85646  21433361.9224                   21433360.3874
 11  8 26  1 44  0.0000000  0  8G10G25G29G12G26G05G30G02
  -7692701.77447  -5959434.55244  23239492.9064                   23239494.7194
 -16602328.278 8 -12924552.693 7  21588412.125
  -9585440.223 7  -7457692.098 6  22748933.781
 -17468731.466 7 -13600380.514 7  21372178.984
  -4623954.12046  -3544894.12543  24049329.2034                   24049331.1334
 -23351442.593 8 -18182571.944 8  20308017.602
 -13825080.14647 -10734601.63445  21760489.4384                   21760490.5864
 -17900073.74948 -13913704.46546  21440397.3594                   21440396.2194
 11  8 26  1 44 30.0000000  0  8G10G25G29G12G26G05G30G02
  -7591652.55647  -5880694.93144  23258720.9534                   23258723.4844
 -16606782.170 8 -12928023.253 7  21587564.703
  -9667934.082 7  -7521972.987 6  22733235.477
 -17410397.766 7 -13554925.697 7  21383279.531
  -4720758.03346  -3620325.63843  24030907.9304                   24030910.8484
 -23336202.491 8 -18170696.526 8  20310917.922
 -13823053.65447 -10733022.54845  21760874.8134                   21760876.1764
 -17862995.14748 -13884812.04746  21447453.1024                   21447452.1724
 11  8 26  1 45  0.0000000  0  8G10G25G29G12G26G05G30G02
  -7490394.91147  -5801792.89044  23277989.9454                   23277991.8324
 -16610653.994 8 -12931040.263 7  21586828.055
  -9750363.915 7  -7586203.994 6  22717549.672
 -17351609.337 8 -13509116.552 7  21394466.656
  -4817554.50246  -3695751.30943  24012488.1804                   24012490.9924
 -23320419.285 8 -18158397.905 8  20313921.453
 -13820427.45948 -10730976.17745  21761374.9844                   21761375.7464
 -17825813.11448 -13855839.01946  21454529.2344                   21454527.7584
 11  8 26  1 45 30.0000000  0  8G10G25G29G12G26G05G30G02
  -7388929.04047  -5722728.64044  23297298.5084                   23297300.4494
 -16613941.801 8 -12933602.183 7  21586202.391
  -9832726.061 7  -7650382.264 6  22701876.406
 -17292366.354 7 -13462953.202 7  21405740.383
  -4914338.16046  -3771166.99943  23994071.2584                   23994073.5664
 -23304092.090 8 -18145675.411 8  20317028.102
 -13817200.14547 -10728461.38945  21761988.7344                   21761989.8554
 -17788525.97448 -13826784.09646  21461624.6564                   21461623.2074
 11  8 26  1 46  0.0000000  0  8G10G25G29G12G26G05G30G02
  -7287260.50547  -5643506.41244  23316645.0234                   23316646.8714
 -16616648.852 8 -12935711.589 7  21585687.156
  -9915021.614 7  -7714508.604 6  22686216.180
 -17232674.048 7 -13416439.729 7  21417099.469
  -5011108.79247  -3846572.56643  23975655.8674                   23975659.4144
 -23287225.279 8 -18132532.423 8  20320238.117
 -13813375.26148 -10725480.96645  21762716.6254                   21762717.8134
 -17751136.90248 -13797649.75346  21468739.3914                   21468738.2704
 11  8 26  1 46 30.0000000  0  8G10G25G29G12G26G05G30G02
  -7185389.34147  -5564126.34443  23336030.8364                   23336032.5204
 -16618772.278 8 -12937366.215 7  21585283.000
  -9997245.969 7  -7778579.492 7  22670568.805
 -17172531.752 7 -13369575.622 7  21428544.305
  -5107859.65646  -3921962.68743  23957244.3204                   23957247.7234
 -23269816.833 8 -18118967.392 8  20323550.680
 -13808950.49948 -10722033.11145  21763558.9774                   21763559.7194
 -17713643.02348 -13768433.72446  21475874.1884                   21475873.1804
 11  8 26  1 47  0.0000000  0  8G10G25G29G12G26G05G30G02
  -7083320.89847  -5484592.48044  23355452.7734                   23355455.9024
 -16620314.982 8 -12938568.330 7  21584989.758
 -10079399.893 7  -7842595.508 7  22654935.656
 -17111944.261 8 -13322364.607 7  21440073.563
  -5204590.35146  -3997337.13443  23938836.3834                   23938839.8364
 -23251870.516 8 -18104983.230 8  20326965.398
 -13803929.26847 -10718120.46446  21764514.1414                   21764515.3984
 -17676047.35947 -13739138.38946  21483027.9454                   21483027.0234
 11  8 26  1 47 30.0000000  0  8G10G25G29G12G26G05G30G02
  -6981056.33647  -5404905.86044  23374914.1644                   23374915.5044
 -16621275.671 8 -12939316.922 7  21584806.742
 -10161479.742 7  -7906553.777 7  22639316.305
 -17050912.093 8 -13274807.092 7  21451687.805
  -5301295.71646  -4072691.81743  23920434.8444                   23920438.5004
 -23233386.218 8 -18090579.870 8  20330482.969
 -13798310.64448 -10713742.33345  21765583.6094                   21765584.6684
 -17638348.67348 -13709762.78646  21490201.7034                   21490200.8444
 11  8 26  1 48  0.0000000  0  8G10G25G29G12G26G05G30G02
  -6878599.16547  -5325069.10744  23394411.6954                   23394412.7344
 -16621655.150 8 -12939612.612 7  21584734.570
 -10243484.455 7  -7970453.528 7  22623711.391
 -16989438.680 8 -13226905.751 7  21463385.867
  -5397972.86946  -4148024.56043  23902037.5314                   23902040.9884
 -23214366.067 8 -18075758.962 8  20334102.344
 -13792095.92548 -10708899.69445  21766765.7664                   21766766.9264
 -17600547.58547 -13680307.38946  21497395.2114                   21497394.7194
 11  8 26  1 48 30.0000000  0  8G10G25G29G12G26G05G30G02
  -6775952.06547  -5245084.38044  23413943.7504                   23413946.1254
 -16621453.935 8 -12939455.824 7  21584773.258
 -10325412.463 7  -8034293.482 6  22608120.469
 -16927527.021 7 -13178662.914 7  21475166.781
  -5494618.47646  -4223332.67743  23883645.9534                   23883649.1454
 -23194811.378 8 -18060521.538 8  20337823.547
 -13785286.08448 -10703593.34445  21768062.2814                   21768063.0314
 -17562644.36048 -13650772.40646  21504607.8674                   21504606.8444
 11  8 26  1 49  0.0000000  0  8G10G25G29G12G26G05G30G02
  -6673116.76747  -5164953.00643  23433513.0864                   23433514.0944
 -16620671.560 8 -12938846.183 7  21584921.609
 -10407260.929 7  -8098071.497 7  22592545.516
 -16865178.007 7 -13130079.298 7  21487031.734
  -5591228.59746  -4298613.15143  23865262.4064                   23865264.8164
 -23174722.345 8 -18044867.727 8  20341646.516
 -13777881.10048 -10697823.22045  21769470.7424                   21769472.3794
 -17524638.34348 -13621157.31846  21511840.2344                   21511839.1804
 11  8 26  1 49 30.0000000  0  8G10G25G29G12G26G05G30G02
  -6570097.82747  -5084678.50643  23453116.4844                   23453118.5514
 -16619310.073 8 -12937785.292 7  21585180.609
 -10489029.550 7  -8161787.287 7  22576985.234
 -16802396.045 8 -13081158.304 7  21498978.570
  -5687801.13546  -4373864.32543  23846884.0634                   23846887.3524
 -23154102.225 8 -18028800.089 8  20345570.195
 -13769883.44548 -10691591.28845  21770992.9844                   21770993.6724
 -17486531.71648 -13591463.84145  21519091.5004                   21519090.5124
 11  8 26  1 50  0.0000000  0  8G10G25G29G12G26G05G30G02
  -6466897.54747  -5004262.75543  23472754.6174                   23472756.7074
 -16617369.448 8 -12936273.114 7  21585550.133
 -10570716.160 7  -8225439.186 7  22561441.688
 -16739183.121 8 -13031901.502 7  21511007.641
  -5784332.19446  -4449083.22444  23828515.5704                   23828518.7854
 -23132951.929 8 -18012319.340 8  20349595.055
 -13761293.67048 -10684897.95245  21772627.7274                   21772628.3984
 -17448324.24048 -13561691.77045  21526362.2974                   21526361.1804
 11  8 26  1 50 30.0000000  0  8G10G25G29G12G26G05G30G02
  -6363518.11247  -4923707.36543  23492427.0234                   23492429.2274
 -16614849.378 8 -12934309.437 7  21586029.758
 -10652318.292 7  -8289025.247 7  22545913.133
 -16675540.765 8 -12982310.077 7  21523118.516
  -5880817.71046  -4524266.66543  23810155.0234                   23810158.3754
 -23111272.007 8 -17995425.881 8  20353720.656
 -13752111.86348 -10677743.29745  21774374.7114                   21774376.0554
 -17410015.14848 -13531840.54346  21533651.8054                   21533651.4384
 11  8 26  1 51  0.0000000  0  8G10G25G29G12G26G05G30G02
  -6259962.55047  -4843014.69543  23512133.5784                   23512134.8134
 -16611750.774 8 -12931894.926 7  21586619.398
 -10733834.244 7  -8352544.132 7  22530400.742
 -16611472.223 8 -12932386.558 7  21535310.125
  -5977254.80847  -4599412.32343  23791803.1334                   23791806.0984
 -23089064.676 8 -17978121.448 8  20357946.422
 -13742339.36748 -10670128.36745  21776234.4844                   21776235.2664
 -17371605.36348 -13501910.83746  21540961.3204                   21540960.8244
 11  8 26  1 51 30.0000000  0  8G10G25G29G12G26G05G30G02
  -6156233.83546  -4762187.14843  23531872.8204                   23531874.3634
 -16608074.687 8 -12929030.445 7  21587318.844
 -10815263.015 7  -8415995.103 6  22514905.953
 -16546980.038 8 -12882132.928 7  21547582.789
  -6073640.44147  -4674517.88643  23773460.6334                   23773464.4184
 -23066331.770 8 -17960407.480 8  20362272.398
 -13731977.68248 -10662054.32545  21778206.2974                   21778207.0044
 -17333095.43148 -13471903.11045  21548289.5234                   21548288.7664
 11  8 26  1 52  0.0000000  0  8G10G25G29G12G26G05G30G02
  -6052334.97547  -4681227.02243  23551643.6484                   23551645.9924
 -16603821.522 8 -12925716.292 7  21588128.313
 -10896602.402 7  -8479376.441 6  22499427.234
 -16482066.925 8 -12831551.316 7  21559935.461
  -6169970.85647  -4749580.46643  23755130.8134                   23755132.7234
 -23043074.477 8 -17942284.909 8  20366698.008
 -13721027.77648 -10653521.93445  21780289.7344                   21780290.9964
 -17294485.50348 -13441817.45746  21555637.0394                   21555636.1844
 11  8 26  1 52 30.0000000  0  8G10G25G29G12G26G05G30G02
  -5948267.48546  -4600135.48943  23571447.2034                   23571449.3484
 -16598990.608 8 -12921951.956 7  21589047.672
 -10977849.402 7  -8542685.809 6  22483966.680
 -16416734.672 8 -12780643.081 7  21572367.242
  -6266241.58547  -4824596.48143  23736810.4224                   23736812.8244
 -23019292.926 8 -17923753.819 8  20371223.695
 -13709489.39348 -10644530.98445  21782485.5634                   21782486.4384
 -17255774.33448 -13411652.91246  21563003.6564                   21563002.1764
 11  8 26  1 53  0.0000000  0  8G10G25G29G12G26G05G30G02
  -5844034.06447  -4518914.65743  23591282.0474                   23591284.3054
 -16593582.810 8 -12917738.085 7  21590076.797
 -11059002.365 7  -8605921.896 6  22468523.695
 -16350985.467 8 -12729409.967 7  21584879.609
  -6362449.42947  -4899563.55543  23718502.4694                   23718505.2154
 -22994989.106 8 -17904815.764 8  20375848.500
 -13697363.87847 -10635082.52645  21784792.7814                   21784793.5824
 -17216962.45647 -13381409.90045  21570389.4454                   21570388.1374
 11  8 26  1 53 30.0000000  0  8G10G25G29G12G26G05G30G02
  -5739638.24046  -4437567.26643  23611147.9694                   23611149.5084
 -16587599.716 8 -12913075.938 8  21591215.203
 -11140060.412 7  -8669084.015 6  22453098.188
 -16284823.038 8 -12677854.847 7  21597469.727
  -6458591.75446  -4974479.54643  23700207.5004                   23700210.7344
 -22970165.701 8 -17885472.842 8  20380572.172
 -13684653.23648 -10625178.15745  21787211.7034                   21787212.7154
 -17178051.29747 -13351089.52446  21577793.7274                   21577792.3164
 11  8 26  1 54  0.0000000  0  9G10G25G29G12G26G05G15G30G02
  -5635082.05546  -4356094.92543  23631043.7734                   23631046.8794
 -16581041.198 8 -12907965.412 7  21592463.711
 -11221020.889 7  -8732170.105 7  22437691.773
 -16218249.352 8 -12625979.287 7  21610137.914
  -6554664.33346  -5049341.21043  23681925.0084                   23681927.7384
 -22944823.228 8 -17865725.455 8  20385394.594
   -233786.42216   -168528.38315  24625761.250
 -13671357.92248 -10614818.16945  21789741.6644                   21789742.9184
 -17139040.15947 -13320691.24346  21585217.6334                   21585215.5984
 11  8 26  1 54 30.0000000  0  9G10G25G29G12G26G05G15G30G02
  -5530372.00646  -4274502.73543  23650969.7034                   23650972.8244
 -16573911.658 8 -12902409.921 7  21593819.844
 -11301885.584 7  -8795181.538 7  22422304.336
 -16151270.070 8 -12573787.654 7  21622884.000
  -6650667.39646  -5124148.69043  23663655.9454                   23663658.5554
 -22918967.067 8 -17845577.787 8  20390314.922
   -328417.482 6   -242266.542 6  24607754.289
 -13657482.62848 -10604006.26745  21792381.9774                   21792383.2034
 -17099932.83947 -13290218.01545  21592659.0704                   21592657.9494
 11  8 26  1 55  0.0000000  0  9G10G25G29G12G26G05G15G30G02
  -5425505.10946  -4192788.34143  23670925.6884                   23670927.9884
 -16566206.097 8 -12896405.615 7  21595286.266
 -11382646.885 7  -8858112.392 6  22406935.906
 -16083883.165 8 -12521278.402 7  21635707.422
  -6746591.87146  -5198894.95643  23645402.4774                   23645405.0274
 -22892593.276 8 -17825026.764 8  20395333.633
   -423167.769 6   -316097.625 6  24589722.875
 -13643022.98648 -10592739.00945  21795133.4224                   21795135.1604
 -17060723.76148 -13259665.50745  21600120.3524                   21600119.2344
 11  8 26  1 55 30.0000000  0  9G10G25G29G12G26G05G15G30G02
  -5320486.31646  -4110955.54743  23690909.5634                   23690912.5204
 -16557927.567 8 -12889954.817 7  21596861.281
 -11463305.247 7  -8920963.090 7  22391587.086
 -16016093.141 8 -12468455.042 7  21648607.047
  -6842436.43246  -5273578.91643  23627163.7274                   23627166.3914
 -22865705.672 8 -17804075.370 8  20400450.063
   -518036.992 6   -390021.378 6  24571670.047
 -13627982.37248 -10581019.07145  21797995.7274                   21797997.0124
 -17021415.63347 -13229035.81546  21607600.8364                   21607599.7504
 11  8 26  1 56  0.0000000  0  9G10G25G29G12G26G05G15G30G02
  -5215318.55147  -4029006.68344  23710922.5004                   23710925.7384
 -16549077.122 8 -12883058.375 7  21598546.086
 -11543858.862 7  -8983732.116 7  22376258.109
 -15947902.925 8 -12415319.829 7  21661583.805
  -6938197.95546  -5348198.18743  23608941.0234                   23608943.3524
 -22838305.988 8 -17782724.964 8  20405664.430
   -613022.580 6   -464035.805 6  24553594.625
 -13612362.40948 -10568847.66745  21800968.0634                   21800969.5594
 -16982008.69948 -13198329.12345  21615099.6484                   21615097.7274
 11  8 26  1 56 30.0000000  0  9G10G25G29G12G26G05G15G30G02
  -5110004.58147  -3946943.88544  23730963.4924                   23730965.6454
 -16539655.350 8 -12875716.727 7  21600338.703
 -11624305.549 7  -9046417.833 7  22360949.219
 -15879314.546 8 -12361874.366 7  21674635.680
  -7033872.62746  -5422749.80843  23590734.6644                   23590737.5864
 -22810395.732 8 -17760976.701 8  20410975.336
   -708121.843 6   -538138.930 6  24535498.023
 -13596164.05548 -10556225.56845  21804050.1094                   21804052.1954
 -16942503.11848 -13167545.57345  21622617.3834                   21622615.5864
 11  8 26  1 57  0.0000000  0  9G10G25G29G12G26G05G15G30G02
  -5004546.66847  -3864768.94044  23751032.4534                   23751034.3714
 -16529662.684 8 -12867930.251 7  21602239.867
 -11704643.384 7  -9109018.688 7  22345661.781
 -15810330.706 8 -12308120.745 7  21687762.625
  -7129456.67747  -5497230.78643  23572545.6024                   23572548.3484
 -22781976.480 8 -17738831.802 8  20416383.023
   -803332.058 6   -612328.455 6  24517379.711
 -13579388.32548 -10543153.59545  21807242.8204                   21807244.1024
 -16902898.55348 -13136684.88445  21630153.6954                   21630152.3984
 11  8 26  1 57 30.0000000  0  9G10G25G29G12G26G05G15G30G02
  -4898948.91247  -3782484.96443  23771125.5084                   23771128.3444
 -16519101.657 8 -12859700.894 7  21604249.891
 -11784871.549 7  -9171534.119 7  22330394.703
 -15740956.140 8 -12254062.688 7  21700963.984
  -7224948.38747  -5571639.80943  23554374.3134                   23554376.0314
 -22753051.310 8 -17716292.710 8  20421887.352
   -898652.406 6   -686603.827 6  24499241.258
 -13562038.19748 -10529634.00445  21810544.0864                   21810545.7114
 -16863196.62947 -13105748.31745  21637708.5704                   21637707.0234
 11  8 26  1 58  0.0000000  0  9G10G25G29G12G26G05G15G30G02
  -4793211.92647  -3700092.52843  23791247.7974                   23791249.1294
 -16507971.062 8 -12851027.721 7  21606367.883
 -11864986.561 7  -9233961.349 7  22315150.055
 -15671191.039 8 -12199700.289 7  21714239.953
  -7320341.96047  -5645972.38944  23536221.3754                   23536223.7774
 -22723620.130 8 -17693359.298 8  20427487.758
   -994078.347 6   -760961.503 6  24481081.656
 -13544112.94548 -10515666.27445  21813955.4844                   21813957.2814
 -16823395.60848 -13074734.53645  21645282.5234                   21645281.0594
 11  8 26  1 58 30.0000000  0  9G10G25G29G12G26G05G15G30G02
  -4687339.42846  -3617594.47743  23811394.3204                   23811396.2854
 -16496272.739 8 -12841912.164 7  21608594.250
 -11944987.292 7  -9296299.543 7  22299926.109
 -15601039.076 7 -12145036.449 7  21727589.398
  -7415634.79647  -5720226.45744  23518087.0704                   23518089.9224
 -22693685.440 8 -17670033.554 8  20433184.531
  -1089607.905 7   -835399.957 6  24462903.703
 -13525614.78848 -10501252.14645  21817475.1884                   21817476.9654
 -16783496.59247 -13043644.39445  21652875.3134                   21652873.9844
 11  8 26  1 59  0.0000000  0  9G10G25G29G12G26G05G15G30G02
  -4581332.74746  -3534991.89043  23831565.8054                   23831568.7114
 -16484006.501 8 -12832354.066 7  21610928.352
 -12024870.486 7  -9358546.169 7  22284724.578
 -15530501.495 7 -12090072.122 7  21741012.492
  -7510822.48747  -5794398.58844  23499973.2424                   23499976.6024
 -22663247.860 8 -17646315.949 8  20438976.563
  -1185237.489 6   -909916.326 6  24444705.328
 -13506544.07948 -10486391.87045  21821104.9534                   21821106.0594
 -16743498.81547 -13012477.30145  21660486.4384                   21660485.0434
 11  8 26  1 59 30.0000000  0  9G10G25G29G12G26G05G15G30G02
  -4475195.94246  -3452287.91043  23851763.7974                   23851766.1134
 -16471174.658 8 -12822355.234 7  21613370.133
 -12104635.632 7  -9420700.760 7  22269545.164
 -15459583.133 7 -12034811.095 7  21754507.719
  -7605902.46147  -5868486.81444  23481880.2894                   23481882.4534
 -22632310.475 8 -17622208.875 8  20444863.664
  -1280966.336 7   -984509.993 6  24426489.000
 -13486903.59448 -10471087.60545  21824842.1334                   21824843.1844
 -16703403.29847 -12981234.04645  21668116.4064                   21668115.3404
 11  8 26  2  0  0.0000000  0  9G10G25G29G12G26G05G15G30G02
  -4368931.38246  -3369484.34543  23871985.3284                   23871986.7464
 -16457777.769 8 -12811916.118 7  21615919.500
 -12184280.319 7  -9482761.517 7  22254389.461
 -15388286.095 8 -11979254.985 7  21768075.320
  -7700870.93347  -5942488.13144  23463808.6644                   23463810.4884
 -22600874.865 8 -17597713.583 8  20450845.656
  -1376791.106 6  -1059178.455 6  24408253.234
 -13466694.28748 -10455340.10545  21828688.2504                   21828689.2704
 -16663209.77648 -12949914.41445  21675765.0084                   21675764.2274
 11  8 26  2  0 30.0000000  0  9G10G25G29G12G26G05G15G30G02
  -4262541.77746  -3286583.39243  23892230.5234                   23892232.2544
 -16443817.038 8 -12801037.622 7  21618576.234
 -12263802.781 7  -9544727.025 7  22239257.844
 -15316613.185 7 -11923405.992 7  21781714.086
  -7795724.79447  -6016400.18344  23445758.2504                   23445761.0594
 -22568942.847 8 -17572831.485 8  20456922.250
  -1472709.377 6  -1133919.771 5  24390000.141
 -13445917.83548 -10439150.66445  21832641.3284                   21832642.7154
 -16622918.72847 -12918518.79945  21683432.1334                   21683431.1954
 11  8 26  2  1  0.0000000  0  9G10G25G29G12G26G05G15G30G02
  -4156028.81246  -3203586.30043  23912499.1484                   23912501.5124
 -16429292.482 8 -12789719.799 7  21621339.992
 -12343199.976 8  -9606594.942 7  22224149.164
 -15244566.217 7 -11867265.515 7  21795424.359
  -7890459.20347  -6090219.12644  23427731.1484                   23427733.0274
 -22536515.080 8 -17547563.061 8  20463093.039
  -1568717.439 6  -1208731.069 6  24371730.445
 -13424574.76648 -10422519.71845  21836702.9224                   21836704.8054
 -16582529.28548 -12887046.50546  21691118.0164                   21691117.1844
 11  8 26  2  1 30.0000000  0  9G10G25G29G12G26G05G15G30G02
  -4049396.88846  -3120496.53643  23932791.4304                   23932793.0234
 -16414206.962 8 -12777964.868 7  21624210.422
 -12422471.775 8  -9668365.132 7  22209064.141
 -15172149.904 7 -11810837.251 7  21809205.016
  -7985072.48047  -6163943.65944  23409726.2664                   23409729.4924
 -22503595.498 8 -17521911.426 8  20469357.281
  -1664814.433 6  -1283611.683 6  24353444.164
 -13402668.47448 -10405449.89145  21840871.7344                   21840872.5314
 -16542043.47248 -12855499.11245  21698821.9304                   21698821.0004
 11  8 26  2  2  0.0000000  0  9G10G25G29G12G26G05G15G30G02
  -3942647.46046  -3037315.21543  23953104.3984                   23953107.2384
 -16398560.538 8 -12765772.860 7  21627188.133
 -12501615.386 7  -9730035.417 7  22194003.391
 -15099365.724 7 -11754122.316 7  21823054.820
  -8079560.01547  -6237570.29144  23391746.6094                   23391748.6994
 -22470184.772 8 -17495877.084 8  20475715.227
  -1760997.039 6  -1358558.953 6  24335140.398
 -13380199.41548 -10387941.54245  21845147.4924                   21845148.8364
 -16501460.21047 -12823875.79345  21706544.8524                   21706543.6094
 11  8 26  2  2 30.0000000  0  9G10G25G29G12G26G05G15G30G02
  -3835782.86946  -2954044.16743  23973440.3984                   23973442.7734
 -16382353.840 8 -12753144.279 7  21630272.203
 -12580627.754 7  -9791603.437 7  22178967.391
 -15026216.359 7 -11697122.844 7  21836974.852
  -8173917.81047  -6311095.76244  23373790.6484                   23373792.6334
 -22436284.164 8 -17469461.009 8  20482166.477
  -1857261.811 7  -1433570.323 5  24316822.070
 -13357168.61348 -10369995.47745  21849530.0004                   21849531.0354
 -16460779.12348 -12792176.24545  21714285.8834                   21714284.8244
 11  8 26  2  3  0.0000000  0  9G10G25G29G12G26G05G15G30G02
  -3728805.06447  -2870684.87543  23993797.8284                   23993799.7194
 -16365587.431 8 -12740079.551 7  21633462.938
 -12659506.628 7  -9853067.426 7  22163957.117
 -14952703.946 7 -11639840.451 7  21850963.695
  -8268141.52747  -6384516.76844  23355860.5164                   23355862.9734
 -22401895.040 8 -17442664.275 8  20488710.313
  -1953605.705 7  -1508643.272 6  24298488.547
 -13333577.21148 -10351612.56945  21854019.2344                   21854020.2584
 -16419999.74148 -12760400.10845  21722046.3524                   21722044.9304
 11  8 26  2  3 30.0000000  0  9G10G25G29G12G26G05G15G30G02
  -3621717.99346  -2787240.42843  24014175.5314                   24014177.7544
 -16348264.062 8 -12726580.835 7  21636759.414
 -12738251.731 7  -9914427.197 7  22148972.297
 -14878832.468 7 -11582278.273 7  21865021.328
  -8362229.43647  -6457831.95443  23337954.7974                   23337958.6214
 -22367020.837 8 -17415489.552 8  20495346.609
  -2050027.668 6  -1583777.067 6  24280139.078
 -13309428.35248 -10332795.28345  21858614.8914                   21858616.0234
 -16379123.56848 -12728548.53045  21729824.8444                   21729823.5944
 11  8 26  2  4  0.0000000  0  9G10G25G29G12G26G05G15G30G02
  -3514523.83447  -2703712.54043  24034574.1954                   24034575.7934
 -16330384.362 8 -12712648.616 7  21640161.383
 -12816860.157 8  -9975680.484 7  22134013.672
 -14804604.879 7 -11524438.618 7  21879146.336
  -8456177.34747  -6531038.08343  23320078.0554                   23320080.3054
 -22331663.055 8 -17387938.029 8  20502074.836
  -2146524.554 7  -1658969.291 6  24261777.188
 -13284723.17548 -10313544.51145  21863315.8204                   21863317.4844
 -16338150.25648 -12696621.28845  21737621.4844                   21737620.4264
 11  8 26  2  4 30.0000000  0  9G10G25G29G12G26G05G15G30G02
  -3407226.05746  -2620103.93343  24054991.6414                   24054994.2114
 -16311950.227 8 -12698284.378 7  21643669.594
 -12895330.587 8 -10036826.250 7  22119081.422
 -14730024.467 8 -11466324.026 7  21893338.602
  -8549982.06446  -6604132.61044  23302227.6094                   23302230.1134
 -22295824.402 8 -17360011.785 8  20508894.766
  -2243094.153 6  -1734218.210 6  24243399.961
 -13259464.06447 -10293862.09845  21868122.5314                   21868124.1484
 -16297080.69548 -12664619.02345  21745437.1564                   21745435.8094
 11  8 26  2  5  0.0000000  0  9G10G25G29G12G26G05G15G30G02
  -3299825.31646  -2536415.06143  24075429.8984                   24075432.2074
 -16292961.367 8 -12683487.890 7  21647283.141
 -12973659.486 7 -10097861.716 7  22104175.336
 -14655092.603 8 -11407935.581 7  21907597.641
  -8643638.82447  -6677111.81044  23284404.6954                   23284407.3134
 -22259505.262 8 -17331711.154 8  20515805.969
  -2339732.572 6  -1809520.715 6  24225010.227
 -13233651.09647 -10273748.10845  21873034.3754                   21873036.1524
 -16255913.40748 -12632540.62345  21753270.5704                   21753269.8834
 11  8 26  2  5 30.0000000  0  9G10G25G29G12G26G05G15G30G02
  -3192325.46946  -2452648.96343  24095885.7034                   24095888.4924
 -16273420.448 8 -12668261.207 7  21651001.398
 -13051845.840 7 -10158786.070 7  22089296.469
 -14579813.334 8 -11349276.431 7  21921922.836
  -8737145.39947  -6749974.02344  23266611.3204                   23266614.3444
 -22222708.635 8 -17303038.447 8  20522808.047
  -2436438.392 6  -1884875.745 6  24206607.516
 -13207287.39448 -10253204.98045  21878051.2194                   21878053.2114
 -16214649.58848 -12600387.00345  21761123.1884                   21761122.0204
 11  8 26  2  6  0.0000000  0  9G10G25G29G12G26G05G15G30G02
  -3084727.49446  -2368806.39743  24116361.0784                   24116364.5164
 -16253326.695 8 -12652603.774 7  21654825.625
 -13129886.301 7 -10219596.759 7  22074445.977
 -14504187.790 8 -11290347.454 7  21936313.797
  -8830496.14747  -6822714.79144  23248847.3754                   23248849.8244
 -22185434.660 8 -17273993.784 8  20529901.063
  -2533206.730 6  -1960279.523 6  24188193.422
 -13180372.78047 -10232232.56245  21883172.8134                   21883174.7034
 -16173287.30048 -12568156.66945  21768994.2504                   21768992.9964
 11  8 26  2  6 30.0000000  0  9G10G25G29G12G26G05G15G30G02
  -2977035.90046  -2284890.89743  24136854.5784                   24136856.5744
 -16232683.544 8 -12636518.215 7  21658753.414
 -13207780.575 8 -10280293.522 7  22059623.773
 -14428220.679 8 -11231152.315 7  21950769.672
  -8923689.46947  -6895332.89144  23231112.6884                   23231115.6644
 -22147687.495 8 -17244580.395 8  20537084.195
  -2630037.208 6  -2035731.680 6  24169767.008
 -13152910.99447 -10210833.79545  21888398.6334                   21888400.9264
 -16131828.91248 -12535851.43645  21776883.4774                   21776882.1334
 11  8 26  2  7  0.0000000  0  9G10G25G29G12G26G05G15G30G02
  -2869251.88146  -2200903.32942  24157364.7344                   24157367.5314
 -16211491.156 8 -12620004.679 7  21662785.914
 -13285525.685 8 -10340874.110 7  22044829.266
 -14351913.944 8 -11171692.538 7  21965290.953
  -9016720.43247  -6967824.50944  23213409.7114                   23213412.2344
 -22109468.086 8 -17214799.025 8  20544357.211
  -2726926.036 6  -2111229.280 6  24151329.633
 -13124902.78347 -10189009.22545  21893728.3594                   21893730.2854
 -16090273.33948 -12503470.47445  21784791.3204                   21784790.0204
 11  8 26  2  7 30.0000000  0  9G10G25G29G12G26G05G15G30G02
  -2761378.14646  -2116845.87842  24177892.0784                   24177895.2424
 -16189751.027 8 -12603064.337 7  21666923.383
 -13363119.429 8 -10401336.746 7  22030063.898
 -14275270.378 8 -11111970.301 7  21979875.172
  -9109585.77247  -7040186.99744  23195738.1644                   23195740.3324
 -22070778.242 8 -17184651.078 8  20551719.477
  -2823870.464 6  -2186770.267 6  24132880.703
 -13096350.04747 -10166760.36545  21899161.9924                   21899163.9494
 -16048620.53348 -12471013.74345  21792717.2584                   21792716.1684
 11  8 26  2  8  0.0000000  0  9G10G25G29G12G26G05G15G30G02
  -2653417.97646  -2032721.09442  24198436.8524                   24198440.1294
 -16167465.286 8 -12585698.840 7  21671164.273
 -13440560.317 7 -10461680.285 7  22015327.070
 -14198293.912 8 -11051988.655 7  21994523.328
  -9202282.43547  -7112418.11544  23178098.7814                   23178101.4304
 -22031621.014 7 -17154138.944 8  20559171.164
  -2920868.605 6  -2262353.098 6  24114423.742
 -13067255.36647 -10144089.20945  21904698.7504                   21904700.1374
 -16006871.40347 -12438481.97245  21800662.2274                   21800661.1094
 11  8 26  2  8 30.0000000  0  9G10G25G29G12G26G05G15G30G02
  -2545373.52446  -1948530.67343  24218996.5554                   24218999.8794
 -16144634.980 8 -12567909.001 7  21675508.977
 -13517846.047 7 -10521902.913 7  22000619.750
 -14120986.980 8 -10991749.513 7  22009234.352
  -9294806.66947  -7184514.85644  23160491.7734                   23160493.8284
 -21991997.994 8 -17123263.856 8  20566711.055
  -3017917.264 6  -2337975.267 6  24095954.953
 -13037620.24748 -10120996.94045  21910338.1484                   21910339.3874
 -15965025.33048 -12405874.64746  21808625.1804                   21808623.7034
 11  8 26  2  9  0.0000000  0  9G10G25G29G12G26G05G15G30G02
  -2437246.65546  -1864275.93643  24239573.2344                   24239575.5124
 -16121260.767 8 -12549695.340 7  21679956.547
 -13594973.633 7 -10582002.283 7  21985943.016
 -14043351.842 8 -10931254.629 7  22024007.906
  -9387153.88147  -7256473.66044  23142918.2194                   23142920.5434
 -21951910.313 8 -17092026.695 8  20574339.531
  -3115013.209 7  -2413634.307 6  24077477.961
 -13007445.73847 -10097484.35745  21916080.3204                   21916081.6644
 -15923081.71448 -12373191.31846  21816606.7114                   21816605.8444
 11  8 26  2  9 30.0000000  0  9G10G25G29G12G26G05G15G30G02
  -2329040.55846  -1779959.52143  24260163.5394                   24260166.1764
 -16097345.148 8 -12531059.819 7  21684507.625
 -13671942.173 8 -10641977.753 7  21971297.109
 -13965392.368 8 -10870506.998 7  22038843.766
  -9479321.79347  -7328292.77044  23125379.8984                   23125381.8984
 -21911360.990 8 -17060429.797 8  20582055.609
  -3212154.422 6  -2489328.613 6  24058992.273
 -12976734.93247 -10073553.87845  21921924.0084                   21921925.4734
 -15881041.70648 -12340432.88345  21824606.6174                   21824605.8914
 11  8 26  2 10  0.0000000  0  9G10G25G29G12G26G05G15G30G02
  -2220756.37546  -1695582.27443  24280769.6644                   24280772.1724
 -16072888.101 8 -12512002.387 7  21689161.523
 -13748748.034 8 -10701826.452 7  21956681.617
 -13887109.860 8 -10809507.660 7  22053739.219
  -9571304.78547  -7399967.76244  23107875.6094                   23107877.4104
 -21870350.625 8 -17028473.663 8  20589859.727
  -3309336.758 6  -2565054.986 6  24040499.492
 -12945488.16147 -10049205.76345  21927870.0944                   21927871.9104
 -15838903.69948 -12307598.07546  21832625.3284                   21832624.5434
 11  8 26  2 10 30.0000000  0  9G10G25G29G12G26G05G15G30G02
  -2112398.53446  -1611147.62043  24301388.9144                   24301392.0234
 -16047892.957 8 -12492525.665 7  21693917.922
 -13825390.920 8 -10761548.171 7  21942096.695
 -13808509.177 8 -10748260.390 7  22068697.063
  -9663101.47047  -7471497.58144  23090407.6254                   23090409.6294
 -21828883.410 8 -16996161.539 8  20597750.789
  -3406559.263 6  -2640812.675 6  24021999.172
 -12913709.18247 -10024442.93645  21933917.0784                   21933918.6294
 -15796669.59948 -12274688.39845  21840662.0234                   21840660.6564
 11  8 26  2 11  0.0000000  0  9G10G25G29G12G26G05G15G30G02
  -2003968.27546  -1526656.52243  24322023.2034                   24322025.8874
 -16022360.416 8 -12472630.184 7  21698776.641
 -13901867.678 8 -10821140.462 7  21927543.859
 -13729592.592 8 -10686766.967 7  22083714.813
  -9754707.27847  -7542878.67244  23072975.7424                   23072977.3794
 -21786960.691 8 -16963494.479 8  20605728.281
  -3503818.516 6  -2716598.955 6  24003490.234
 -12881399.21047  -9999266.34645  21940065.7194                   21940067.3014
 -15754338.54448 -12241703.17145  21848717.1174                   21848716.4494
 11  8 26  2 11 30.0000000  0  9G10G25G29G12G26G05G15G30G02
  -1895468.65546  -1442111.38943  24342670.1174                   24342672.5124
 -15996292.191 8 -12452317.314 7  21703737.648
 -13978176.505 8 -10880601.864 7  21913022.383
 -13650363.406 8 -10625029.941 7  22098791.258
  -9846118.75847  -7614108.34844  23055580.2274                   23055582.4924
 -21744584.219 8 -16930473.843 8  20613792.047
  -3601111.730 7  -2792411.688 6  23984977.313
 -12848560.36548  -9973677.65345  21946314.9224                   21946316.4964
 -15711910.71047 -12208642.52245  21856790.8594                   21856790.0744
 11  8 26  2 12  0.0000000  0  9G10G25G29G12G26G05G15G30G02
  -1786901.11146  -1357513.34043  24363329.4064                   24363332.2234
 -15969688.902 8 -12431587.478 7  21708800.031
 -14054314.338 8 -10939930.053 7  21898533.852
 -13570823.145 8 -10563050.536 7  22113927.234
  -9937331.29047  -7685182.99844  23038223.7814                   23038225.0004
 -21701755.370 8 -16897100.702 8  20621941.945
  -3698435.196 7  -2868248.067 6  23966456.328
 -12815193.71947  -9947677.67745  21952664.4304                   21952666.2074
 -15669385.06347 -12175505.66545  21864883.1724                   21864882.3404
 11  8 26  2 12 30.0000000  0  9G10G25G29G12G26G05G15G30G02
  -1678269.19746  -1272865.13743  24384001.4454                   24384004.2154
 -15942553.536 8 -12410443.039 7  21713964.047
 -14130280.412 8 -10999124.367 7  21884078.258
 -13490976.354 8 -10500832.290 7  22129121.547
 -10028342.41146  -7756100.68844  23020904.1414                   23020906.0044
 -21658477.690 8 -16863377.832 8  20630177.867
  -3795787.739 6  -2944107.075 6  23947930.461
 -12781302.73547  -9921269.13045  21959113.7034                   21959114.9574
 -15626762.75547 -12142293.48045  21872993.9774                   21872993.4414
 11  8 26  2 13  0.0000000  0  9G10G25G29G12G26G05G15G30G02
  -1569573.51846  -1188167.21043  24404685.6254                   24404688.3364
 -15914885.693 8 -12388883.672 7  21719228.500
 -14206070.584 8 -11058181.618 7  21869655.305
 -13410824.163 8 -10438376.053 7  22144374.102
 -10119146.63547  -7826857.18644  23003624.4534                   23003627.2344
 -21614751.463 8 -16829305.427 8  20638498.477
  -3893164.364 7  -3019984.843 6  23929400.789
 -12746887.41048  -9894451.99645  21965662.8364                   21965664.1954
 -15584041.96847 -12109004.56345  21881123.6254                   21881122.7974
 11  8 26  2 13 30.0000000  0  9G10G25G29G12G26G05G15G30G02
  -1460818.63846  -1103423.18643  24425381.2194                   24425383.2624
 -15886689.323 8 -12366912.500 7  21724594.398
 -14281684.800 8 -11117101.771 7  21855266.281
 -13330371.875 8 -10375685.968 7  22159683.727
 -10209742.52047  -7897451.31144  22986384.5474                   22986386.6604
 -21570580.977 8 -16794886.850 8  20646903.891
  -3990564.572 6  -3095881.032 6  23910865.859
 -12711952.17848  -9867229.74145  21972310.9924                   21972311.7814
 -15541225.28448 -12075640.91445  21889271.4144                   21889270.7154
 11  8 26  2 14  0.0000000  0 10G10G25G29G12G26G05G15G30G02G21
  -1352004.35446  -1018632.90043  24446087.1564                   24446090.2464
 -15857963.265 8 -12344528.559 7  21730060.609
 -14357118.312 8 -11175881.082 7  21840912.016
 -13249619.623 8 -10312762.154 7  22175050.453
 -10300123.69247  -7967878.16744  22969185.7344                   22969188.1644
 -21525965.576 8 -16760121.600 8  20655393.898
  -4087982.701 6  -3171791.102 6  23892327.633
 -12676496.31248  -9839601.79945  21979057.6414                   21979059.1884
 -15498309.46147 -12042200.00545  21897437.8834                   21897436.6764
   -218706.46915                  25170506.266
 11  8 26  2 14 30.0000000  0 10G10G25G29G12G26G05G15G30G02G21
  -1243134.54746   -933799.27242  24466805.1484                   24466807.0864
 -15828711.065 8 -12321734.636 7  21735627.148
 -14432370.681 7 -11234519.278 7  21826591.984
 -13168572.181 8 -10249608.307 7  22190472.742
 -10390288.29947  -8038136.24044  22952027.7114                   22952030.4774
 -21480909.268 8 -16725012.789 8  20663968.195
  -4185417.878 6  -3247714.508 6  23873786.000
 -12640523.82648  -9811571.30645  21985903.0314                   21985904.1884
 -15455296.41147 -12008683.34545  21905623.0004                   21905622.0044
   -277098.394 5                  25159394.305
 11  8 26  2 15  0.0000000  0 10G10G25G29G12G26G05G15G30G02G21
  -1134212.69946   -848925.16842  24487532.2664                   24487534.3554
 -15798935.234 8 -12298532.691 7  21741293.234
 -14507440.458 7 -11293015.183 7  21812306.523
 -13087233.110 7 -10186227.239 7  22205951.469
 -10480233.65147  -8108223.46544  22934912.2114                   22934913.9614
 -21435415.129 7 -16689562.790 8  20672625.219
  -4282867.985 6  -3323649.544 6  23855242.250
 -12604037.62648  -9783140.50045  21992845.8914                   21992848.1764
 -15412186.91547 -11975091.53245  21913826.8674                   21913825.7774
   -335481.781 5                  25148284.570
 11  8 26  2 15 30.0000000  0 10G10G25G29G12G26G05G15G30G02G21
  -1025238.63646   -764010.26642  24508268.9064                   24508271.3094
 -15768635.061 8 -12274922.171 7  21747059.305
 -14582323.308 8 -11351365.420 7  21798056.883
 -13005603.158 8 -10122619.493 7  22221485.172
 -10569953.36447  -8178134.87544  22917838.3444                   22917841.3834
 -21389483.007 8 -16653771.527 8  20681365.805
  -4380327.623 6  -3399591.987 6  23836695.273
 -12567037.38848  -9754309.16745  21999887.5554                   21999888.6254
 -15368978.20447 -11941422.40145  21922049.0474                   21922048.4144
   -393854.430 6                  25137176.719
 11  8 26  2 16  0.0000000  0 10G10G25G29G12G26G05G15G30G02G21
   -916217.602 6                  24529014.375
 -15737815.222 8 -12250906.687 7  21752924.063
 -14657019.788 8 -11409570.452 7  21783842.375
 -12923688.194 7 -10058789.680 7  22237072.570
 -10659446.85447  -8247870.01644  22900808.8754                   22900810.4534
 -21343117.924 8 -16617642.873 7  20690188.297
  -4477797.299 6  -3475542.251 6  23818147.719
 -12529528.36048  -9725081.35945  22007025.0004                   22007026.2274
 -15325673.24347 -11907678.28545  21930289.2734                   21930288.2894
   -452219.894 6                  25126070.734
 11  8 26  2 16 30.0000000  0 10G10G25G29G12G26G05G15G30G02G21
   -807150.355 6                  24549769.813
 -15706475.989 8 -12226486.522 7  21758887.672
 -14731526.149 7 -11467627.330 7  21769664.227
 -12841490.246 8  -9994739.345 7  22252714.734
 -10748709.04547  -8317424.89544  22883822.5474                   22883824.9414
 -21296320.296 8 -16581177.187 8  20699093.961
  -4575272.377 6  -3551496.762 6  23799598.711
 -12491511.13148  -9695457.54945  22014259.5784                   22014260.4774
 -15282270.59247 -11873858.04445  21938549.0554                   21938548.4144
   -510577.187 6                  25114965.023
 11  8 26  2 17  0.0000000  0 10G10G25G29G12G26G05G15G30G02G21
   -698038.713 6                  24570532.898
 -15674618.562 8 -12201662.550 7  21764950.117
 -14805839.595 7 -11525533.881 7  21755522.906
 -12759010.982 8  -9930469.814 7  22268410.305
 -10837735.37947  -8386796.01544  22866881.2274                   22866883.3754
 -21249092.118 8 -16544376.002 8  20708081.133
  -4672749.560 7  -3627452.876 6  23781049.703
 -12452987.36648  -9665439.05145  22021590.0554                   22021591.8444
 -15238769.54947 -11839961.12045  21946826.8204                   21946826.2034
   -568926.203 5                  25103861.445
 11  8 26  2 17 30.0000000  0 10G10G25G29G12G26G05G15G30G02G21
   -588878.79046   -502684.56953  24591306.2344                   24591309.8554
 -15642238.464 8 -12176431.292 7  21771111.648
 -14879951.651 7 -11583283.489 7  21741419.695
 -12676247.923 8  -9865979.117 7  22284159.055
 -10926516.19847  -8455975.79744  22849986.8754                   22849988.9304
 -21201429.206 8 -16507236.062 8  20717151.383
  -4770219.589 7  -3703403.393 6  23762501.797
 -12413953.04048  -9635022.70745  22029018.1564                   22029019.0204
 -15195163.71947 -11805982.54445  21955124.9924                   21955123.6294
   -627261.518 6                  25092761.164
 11  8 26  2 18  0.0000000  0  9G25G29G12G26G05G15G30G02G21
 -15609352.176 8 -12150805.617 7  21777369.375
 -14953874.615 7 -11640885.766 7  21727352.898
 -12593218.474 8  -9801280.867 7  22299959.625
 -11015062.27947  -8524972.68544  22833137.0314                   22833139.2424
 -21153348.434 8 -16469770.521 7  20726300.664
  -4867694.138 7  -3779357.509 6  23743952.305
 -12374424.95048  -9604221.61345  22036539.8594                   22036541.5594
 -15151467.87148 -11771933.82645  21963440.2974                   21963438.9964
   -685598.048 6                  25081659.633
 11  8 26  2 18 30.0000000  0  9G25G29G12G26G05G15G30G02G21
 -15575951.931 8 -12124779.461 7  21783725.492
 -15027597.021 7 -11698331.765 7  21713323.734
 -12509915.764 8  -9736369.686 7  22315811.281
 -11103360.63147  -8593776.54344  22816334.8984                   22816336.6804
 -21104842.405 8 -16431973.619 7  20735530.773
  -4965160.710 7  -3855305.365 6  23725405.320
 -12334395.84948  -9573030.12845  22044157.3674                   22044159.2154
 -15107672.06747 -11737807.20845  21971773.9774                   21971772.7274
   -743926.68146    416325.68052  25070560.5314                   25070561.8714
 11  8 26  2 19  0.0000000  0  9G25G29G12G26G05G15G30G02G21
 -15542043.039 8 -12098356.950 7  21790177.883
 -15101119.802 8 -11755622.210 7  21699332.789
 -12426346.413 8  -9671250.722 7  22331714.156
 -11191410.50747  -8662386.78144  22799579.0234                   22799580.9344
 -21055917.157 8 -16393850.054 8  20744841.227
  -5062620.083 6  -3931247.622 6  23706859.172
 -12293871.47948  -9541452.69445  22051868.8834                   22051870.5944
 -15063779.40047 -11703605.12245  21980126.7504                   21980125.5664
   -802251.35746    370877.93343  25059461.9774                   25059463.6884
 11  8 26  2 19 30.0000000  0  9G25G29G12G26G05G15G30G02G21
 -15507624.722 8 -12071537.490 7  21796727.609
 -15174438.182 8 -11812753.403 7  21685381.242
 -12342510.707 8  -9605924.219 7  22347667.766
 -11279205.88747  -8730798.72444  22782871.9064                   22782873.7664
 -21006571.807 8 -16355399.118 8  20754231.070
  -5160066.701 7  -4007179.978 6  23688316.203
 -12252851.43548  -9509489.02045  22059674.5864                   22059676.5314
 -15019787.22547 -11669325.50645  21988498.1024                   21988497.0474
   -860569.97446    325434.92443  25048363.1884                   25048366.1454
 11  8 26  2 20  0.0000000  0  9G25G29G12G26G05G15G30G02G21
 -15472699.589 8 -12044323.113 7  21803374.406
 -15247550.575 8 -11869724.068 7  21671468.102
 -12258412.525 7  -9540393.184 7  22363670.984
 -11366743.87847  -8799010.09144  22766213.8594                   22766215.6174
 -20956809.174 8 -16316623.032 8  20763700.695
  -5257498.330 6  -4083100.651 6  23669774.703
 -12211338.80148  -9477141.51445  22067574.5314                   22067576.2734
 -14975696.28147 -11634968.89545  21996888.4064                   21996886.8284
   -918883.97946    279995.58142  25037266.1414                   25037269.1334
 11  8 26  2 20 30.0000000  0  9G25G29G12G26G05G15G30G02G21
 -15437271.219 8 -12016716.600 7  21810115.469
 -15320456.270 7 -11926533.677 7  21657594.297
 -12174056.621 8  -9474661.322 7  22379723.320
 -11454022.18247  -8867019.11544  22749605.9454                   22749607.0594
 -20906633.318 8 -16277524.958 8  20773248.789
  -5354913.529 6  -4159008.499 6  23651237.500
 -12169337.54047  -9444413.27245  22075566.7344                   22075568.4414
 -14931507.88447 -11600536.38945  22005297.0554                   22005296.2114
   -977195.22446    234558.32642  25026169.6094                   25026172.5514
 11  8 26  2 21  0.0000000  0  9G25G29G12G26G05G15G30G02G21
 -15401338.420 8 -11988717.021 7  21816953.430
 -15393149.848 7 -11983177.993 7  21643761.352
 -12089442.779 7  -9408728.475 7  22395824.648
 -11541034.12647  -8934820.57844  22733047.6804                   22733049.7154
 -20856043.429 8 -16238104.272 8  20782875.813
  -5452306.208 6  -4234898.802 6  23632703.945
 -12126846.83047  -9411303.63645  22083652.4534                   22083654.8164
 -14887219.14347 -11566025.66945  22013725.1254                   22013723.5234
  -1035501.43946    189125.01542  25015074.6644                   25015077.7114
 11  8 26  2 21 30.0000000  0  9G25G29G12G26G05G15G30G02G21
 -15364904.486 8 -11960326.961 7  21823886.539
 -15465630.566 7 -12039656.429 7  21629968.594
 -12004575.401 7  -9342598.082 7  22411974.016
 -11627777.30847  -9002412.62244  22716540.9304                   22716542.9144
 -20805043.406 8 -16198363.981 8  20792580.500
  -5549674.972 6  -4310770.525 6  23614175.250
 -12083870.41247  -9377815.52345  22091830.6484                   22091832.8134
 -14842830.88347 -11531437.40845  22022171.5944                   22022170.6914
  -1093804.39046    143694.31842  25003979.0784                   25003983.4694
 11  8 26  2 22  0.0000000  0  9G25G29G12G26G05G15G30G02G21
 -15327972.012 8 -11931548.415 7  21830914.711
 -15537896.694 7 -12095967.663 7  21616216.625
 -11919457.819 7  -9276272.680 7  22428171.352
 -11714248.58647  -9069792.79844  22700085.8754                   22700087.1414
 -20753636.074 8 -16158306.315 7  20802363.383
  -5647017.441 6  -4386621.690 6  23595651.453
 -12040411.34247  -9343951.32645  22100100.1484                   22100102.9264
 -14798343.69047 -11496772.05745  22030637.5004                   22030636.0434
  -1152104.88446     98265.44742  24992885.7424                   24992888.8014
 11  8 26  2 22 30.0000000  0  9G25G29G12G26G05G15G30G02G21
 -15290544.179 8 -11902383.893 7  21838037.195
 -15609947.148 8 -12152110.863 7  21602506.406
 -11834094.370 7  -9209755.743 7  22444415.914
 -11800445.79947  -9136959.40944  22683683.3914                   22683685.5164
 -20701824.768 8 -16117933.868 8  20812222.875
  -5744331.801 6  -4462450.992 6  23577132.828
 -11996473.20048  -9309713.82645  22108461.1644                   22108464.1414
 -14753758.57247 -11462030.39445  22039121.9304                   22039120.6484
  -1210404.93246     52836.89842  24981791.9924                   24981794.7384
 11  8 26  2 23  0.0000000  0  9G25G29G12G26G05G15G30G02G21
 -15252622.148 8 -11872834.253 7  21845253.211
 -15681778.690 8 -12208083.469 7  21588837.383
 -11748487.694 7  -9143049.276 7  22460706.359
 -11886364.03347  -9203908.65344  22667333.7734                   22667334.9264
 -20649610.987 8 -16077247.798 7  20822158.484
  -5841614.243 7  -4538255.432 6  23558621.406
 -11952057.51947  -9275104.21545  22116913.6094                   22116916.4924
 -14709074.42547 -11427211.57245  22047624.3364                   22047623.3444
  -1268703.98346      7409.18543  24970697.4774                   24970700.1914
 11  8 26  2 23 30.0000000  0  9G25G29G12G26G05G15G30G02G21
 -15214206.196 8 -11842899.764 7  21852563.711
 -15753387.362 8 -12263882.421 7  21575210.875
 -11662638.569 7  -9076153.852 7  22477042.992
 -11971997.91747  -9270636.29044  22651037.9694                   22651038.5004
 -20596995.045 8 -16036248.363 7  20832171.180
  -5938859.920 7  -4614031.165 6  23540115.313
 -11907164.96947  -9240123.02245  22125456.8284                   22125458.4654
 -14664289.26847 -11392314.04445  22056146.7974                   22056146.0084
  -1327000.92246    -38016.84442  24959603.7424                   24959606.4964
 11  8 26  2 24  0.0000000  0  9G25G29G12G26G05G15G30G02G21
 -15175299.817 8 -11812583.108 7  21859967.406
 -15824772.323 8 -12319507.020 7  21561626.492
 -11576551.826 7  -9009073.291 7  22493424.609
 -12057345.08947  -9337140.53544  22634796.4064                   22634798.5984
 -20543980.761 8 -15994938.525 7  20842259.109
  -6036067.353 7  -4689777.160 6  23521618.133
 -11861799.47447  -9204773.30245  22134089.4614                   22134091.6884
 -14619404.54647 -11357338.94545  22064687.7814                   22064686.8714
  -1385297.52146    -83442.71543  24948510.5164                   24948512.8634
 11  8 26  2 24 30.0000000  0  9G25G29G12G26G05G15G30G02G21
 -15135904.816 8 -11781885.716 7  21867463.680
 -15895930.771 8 -12374955.127 7  21548084.992
 -11490230.390 7  -8941809.844 6  22509851.453
 -12142401.80147  -9403418.44544  22618611.0634                   22618613.1914
 -20490570.344 8 -15953320.010 7  20852422.898
  -6133233.542 7  -4765490.993 6  23503127.938
 -11815963.24547  -9169056.76245  22142811.7114                   22142813.6134
 -14574419.67047 -11322285.79245  22073247.7424                   22073247.2114
  -1443594.53546   -128868.86043  24937415.9534                   24937419.3204
 11  8 26  2 25  0.0000000  0  9G25G29G12G26G05G15G30G02G21
 -15096023.534 8 -11750809.399 7  21875052.977
 -15966861.055 8 -12430225.447 7  21534587.734
 -11403677.228 7  -8874365.841 7  22526322.023
 -12227164.57947  -9469467.30944  22602481.1564                   22602482.2704
 -20436766.338 8 -15911394.791 7  20862661.625
  -6230355.611 7  -4841170.428 6  23484645.750
 -11769659.07247  -9132975.58845  22151622.9844                   22151625.8204
 -14529334.87847 -11287154.81045  22081827.3524                   22081826.2464
  -1501892.36246   -174295.62443  24926321.9614                   24926325.6954
 11  8 26  2 25 30.0000000  0  9G25G29G12G26G05G15G30G02G21
 -15055657.622 8 -11719355.445 7  21882734.445
 -16037560.297 8 -12485315.711 7  21521134.391
 -11316895.118 7  -8806743.409 7  22542835.953
 -12311629.09047  -9535283.75744  22586408.1564                   22586409.6724
 -20382570.539 8 -15869164.287 8  20872974.367
  -6327430.096 7  -4916812.798 6  23466173.367
 -11722888.88847  -9096531.30545  22160522.9224                   22160526.1804
 -14484149.36347 -11251945.30845  22090426.3984                   22090425.2814
  -1560191.01746   -219723.06143  24915228.3134                   24915231.1604
 11  8 26  2 26  0.0000000  0  9G25G29G12G26G05G15G30G02G21
 -15014809.912 8 -11687526.031 7  21890507.602
 -16108026.797 8 -12540224.660 7  21507724.992
 -11229887.539 7  -8738945.302 7  22559392.414
 -12395792.38447  -9600865.47044  22570392.0004                   22570393.8954
 -20327985.833 8 -15826630.741 8  20883361.758
  -6424454.774 7  -4992416.387 6  23447710.031
 -11675655.94347  -9059726.40645  22169511.6094                   22169513.7344
 -14438863.61447 -11216657.71145  22099043.8984                   22099042.5394
  -1618491.56346   -265151.91842  24904133.7424                   24904137.1994
 11  8 26  2 26 30.0000000  0  9G25G29G12G26G05G15G30G02G21
 -14973482.565 8 -11655322.921 7  21898371.977
 -16178258.017 8 -12594950.264 7  21494360.281
 -11142657.745 7  -8670974.057 7  22575992.266
 -12479650.94047  -9666209.75144  22554434.2274                   22554436.0984
 -20273014.869 8 -15783796.220 7  20893822.438
  -6521426.599 7  -5067978.778 6  23429257.273
 -11627962.85647  -9022562.97645  22178587.3134                   22178588.7734
 -14393477.41747 -11181291.84945  22107680.4064                   22107678.7974
  -1676794.57246   -310582.72243  24893040.3134                   24893042.7504
 11  8 26  2 27  0.0000000  0  9G25G29G12G26G05G15G30G02G21
 -14931677.556 8 -11622747.586 7  21906327.258
 -16248251.760 8 -12649490.792 7  21481040.617
 -11055208.297 7  -8602831.635 7  22592633.180
 -12563200.77547  -9731313.46244  22538535.4694                   22538537.3094
 -20217659.355 8 -15740662.051 8  20904356.109
  -6618342.292 7  -5143497.434 6  23410814.242
 -11579812.01047  -8985042.83645  22187749.6174                   22187751.6094
 -14347990.39447 -11145847.42245  22116336.6804                   22116335.1454
  -1735100.46446   -356015.75743  24881943.8754                   24881947.3014
 11  8 26  2 27 30.0000000  0  9G25G29G12G26G05G15G30G02G21
 -14889395.497 8 -11589800.520 7  21914373.203
 -16318004.135 8 -12703843.256 7  21467767.328
 -10967541.362 7  -8534519.761 7  22609315.617
 -12646436.76647  -9796172.62045  22522695.9224                   22522698.4064
 -20161920.354 8 -15697229.042 7  20914962.922
  -6715197.250 7  -5218968.755 6  23392383.508
 -11531204.26747  -8947166.67645  22196999.5474                   22197001.5124
 -14302400.80847 -11110323.08345  22125012.2034                   22125010.4384
  -1793408.17746   -401450.22343  24870848.0634                   24870851.1054
 11  8 26  2 28  0.0000000  0  9G25G29G12G26G05G15G30G02G21
 -14846641.171 8 -11556485.455 7  21922508.742
 -16387515.287 8 -12758007.748 7  21454539.984
 -10879661.994 7  -8466042.344 7  22626038.695
 -12729357.62047  -9860786.22945  22506916.5864                   22506918.0084
 -20105802.750 8 -15653501.033 7  20925641.719
  -6811991.104 7  -5294392.490 6  23373964.508
 -11482144.80747  -8908938.53245  22206335.3204                   22206337.1914
 -14256710.91847 -11074720.59045  22133706.6254                   22133705.5744
  -1851720.63346   -446888.38643  24859752.2664                   24859754.8134
 11  8 26  2 28 30.0000000  0  9G25G29G12G26G05G15G30G02G21
 -14803415.918 8 -11522803.440 7  21930734.422
 -16456782.052 8 -12811981.835 7  21441358.820
 -10791572.490 7  -8397401.188 7  22642801.820
 -12811958.93547  -9925150.81644  22491198.8754                   22491200.0084
 -20049307.962 8 -15609479.118 7  20936392.375
  -6908719.959 7  -5369765.565 6  23355557.508
 -11432635.47447  -8870359.84945  22215757.0004                   22215758.8554
 -14210919.78548 -11039039.18845  22142420.6174                   22142418.7894
  -1910037.55346   -492330.00243  24848654.6094                   24848657.1684
 11  8 26  2 29  0.0000000  0  9G25G29G12G26G05G15G30G02G21
 -14759721.505 8 -11488755.836 7  21939049.180
 -16525801.519 8 -12865763.193 7  21428224.648
 -10703275.434 7  -8328598.310 7  22659604.094
 -12894236.57847  -9989263.20445  22475541.6884                   22475543.3754
 -19992438.133 8 -15565164.941 7  20947214.625
  -7005380.298 7  -5445085.242 6  23337163.484
 -11382678.31947  -8831432.17745  22225263.4454                   22225264.5824
 -14165026.77947 -11003278.43345  22151153.6484                   22151152.0594
  -1968358.85946   -537775.12343  24837556.7344                   24837558.4454
 11  8 26  2 29 30.0000000  0  9G25G29G12G26G05G15G30G02G21
 -14715560.703 8 -11454344.827 7  21947452.844
 -16594572.071 8 -12919350.580 7  21415137.836
 -10614774.573 7  -8259636.600 7  22676444.891
 -12976187.26247 -10053120.83645  22459946.3834                   22459947.8404
 -19935195.974 8 -15520560.659 7  20958106.750
  -7101969.515 7  -5520349.487 6  23318782.758
 -11332276.54647  -8792158.05745  22234854.0864                   22234855.7544
 -14119031.96648 -10967438.31345  22159906.1254                   22159904.9344
  -2026685.67546   -583224.46243  24826456.5314                   24826459.1414
 11  8 26  2 30  0.0000000  0  9G25G29G12G26G05G15G30G02G21
 -14670934.984 8 -11419571.531 7  21955944.625
 -16663090.461 8 -12972741.486 7  21402099.102
 -10526072.147 7  -8190517.870 7  22693324.047
 -13057806.61847 -10116720.25945  22444414.8054                   22444416.5824
 -19877582.911 8 -15475667.361 7  20969070.609
  -7198484.031 6  -5595555.564 6  23300416.344
 -11281431.97147  -8752538.92145  22244529.9224                   22244531.3244
 -14072934.05948 -10931517.85345  22168678.0164                   22168676.8444
  -2085017.41846   -628677.64243  24815356.9454                   24815359.3204
 11  8 26  2 30 30.0000000  0  9G25G29G12G26G05G15G30G02G21
 -14625846.638 8 -11384437.750 7  21964524.586
 -16731354.395 8 -13025934.132 7  21389108.953
 -10437171.091 7  -8121244.325 7  22710241.578
 -13139090.89247 -10180058.61145  22428946.9454                   22428948.6954
 -19819601.238 7 -15430486.822 7  20980103.992
  -7294920.780 7  -5670700.998 6  23282065.727
 -11230147.30847  -8712576.85945  22254288.9534                   22254290.4454
 -14026733.12848 -10895517.14545  22177469.8834                   22177468.4494
  -2143354.83446   -674135.27143  24804255.6484                   24804258.1414
 11  8 26  2 31  0.0000000  0  9G25G29G12G26G05G15G30G02G21
 -14580299.091 8 -11348946.167 7  21973192.281
 -16799362.493 8 -13078927.432 7  21376167.352
 -10348075.809 7  -8051819.445 7  22727196.078
 -13220037.86847 -10243134.13944  22413543.2734                   22413544.5904
 -19761254.771 8 -15385022.036 7  20991206.891
  -7391277.722 7  -5745784.246 6  23263729.133
 -11178426.25747  -8672274.73045  22264131.6954                   22264132.0944
 -13980429.94248 -10859436.72945  22186280.5704                   22186279.6484
  -2201699.41246   -719598.45243  24793152.9304                   24793155.4694
 11  8 26  2 31 30.0000000  0  9G25G29G12G26G05G15G30G02G21
 -14534293.034 8 -11313097.294 7  21981946.797
 -16867110.804 8 -13131718.298 7  21363275.336
 -10258787.506 7  -7982244.183 7  22744187.391
 -13300641.90747 -10305942.45145  22398204.4144                   22398206.3524
 -19702544.269 8 -15339273.599 7  21002378.992
  -7487550.085 7  -5820801.615 6  23245409.211
 -11126269.86347  -8631633.38445  22274056.2584                   22274057.8674
 -13934022.78548 -10823275.33845  22195112.3284                   22195111.4344
  -2260050.47746   -765066.72243  24782047.9614                   24782051.3284
 11  8 26  2 32  0.0000000  0  9G25G29G12G26G05G15G30G02G21
 -14487833.445 8 -11276895.024 7  21990787.898
 -16934599.802 8 -13184307.097 7  21350432.203
 -10169311.730 7  -7912522.820 7  22761214.352
 -13380902.14847 -10368482.83645  22382931.6174                   22382933.9924
 -19643474.565 8 -15293245.251 7  21013619.758
  -7583737.750 7  -5895752.978 6  23227105.016
 -11073683.52647  -8590657.03145  22284063.6024                   22284064.2734
 -13887514.01748 -10787034.74145  22203962.5784                   22203961.2234
  -2318410.15246   -810541.67243  24770943.7274                   24770945.9614
 11  8 26  2 32 30.0000000  0  9G25G29G12G26G05G15G30G02G21
 -14440921.018 8 -11240339.901 7  21999714.859
 -17001825.437 8 -13236690.661 7  21337639.586
 -10079650.148 7  -7842656.653 7  22778276.477
 -13460813.13547 -10430751.10145  22367725.2424                   22367726.7624
 -19584046.638 8 -15246937.775 7  21024928.906
  -7679835.523 7  -5970634.290 6  23208819.156
 -11020668.34747  -8549346.50545  22294151.5164                   22294153.3714
 -13840901.45948 -10750713.27745  22212832.4614                   22212831.6374
  -2376777.63946   -856022.71043  24759835.5784                   24759838.8554
 11  8 26  2 33  0.0000000  0  9G25G29G12G26G05G15G30G02G21
 -14393558.144 8 -11203433.760 7  22008727.930
 -17068785.097 8 -13288866.972 7  21324897.547
  -9989805.986 7  -7772648.216 6  22795373.227
 -13540371.48347 -10492744.57045  22352585.9144                   22352587.3404
 -19524262.480 8 -15200352.715 7  21036305.438
  -7775840.604 7  -6045443.397 6  23190549.242
 -10967226.95647  -8507703.86145  22304320.8284                   22304322.0984
 -13794185.04848 -10714310.87045  22221722.4454                   22221721.5274
  -2435153.82446   -901510.56343  24748728.1564                   24748729.9884
 11  8 26  2 33 30.0000000  0  9G25G29G12G26G05G15G30G02G21
 -14345747.334 8 -11166178.600 7  22017825.570
 -17135476.642 8 -13340834.386 7  21312207.000
  -9899782.230 7  -7702499.825 6  22812503.914
 -13619573.50947 -10554460.39345  22337513.8364                   22337515.3634
 -19464125.042 8 -15153492.371 7  21047749.094
  -7871750.220 7  -6120178.102 6  23172297.906
 -10913362.28647  -8465731.39145  22314571.3524                   22314572.6804
 -13747364.75548 -10677827.51945  22230632.0234                   22230630.8444
  -2493539.15446   -947005.53943  24737616.7974                   24737619.4844
 11  8 26  2 34  0.0000000  0  9G25G29G12G26G05G15G30G02G21
 -14297490.551 8 -11128575.915 7  22027009.070
 -17201897.565 8 -13392590.927 7  21299567.469
  -9809581.350 7  -7632213.434 6  22829668.664
 -13698415.21547 -10615895.41845  22322511.0704                   22322512.6214
 -19403636.030 8 -15106358.055 7  21059259.852
  -7967560.665 7  -6194835.505 6  23154065.797
 -10859076.68547  -8423430.95345  22324901.5394                   22324902.9494
 -13700439.36448 -10641262.28345  22239561.4304                   22239560.4884
  -2551933.22846   -992507.33143  24726505.3364                   24726506.8594
 11  8 26  2 34 30.0000000  0  9G25G29G12G26G05G15G30G02G21
 -14248790.967 8 -11090628.201 7  22036276.172
 -17268046.095 8 -13444135.220 7  21286979.773
  -9719207.246 7  -7561792.073 6  22846865.648
 -13776893.72947 -10677047.47545  22307576.6254                   22307578.8634
 -19342798.623 8 -15058952.283 7  21070836.617
  -8063269.542 7  -6269413.792 6  23135853.273
 -10804373.55947  -8380805.13545  22335311.2424                   22335312.4574
 -13653409.70147 -10604615.79945  22248510.7894                   22248510.2154
  -2610337.49447  -1038017.05443  24715391.1644                   24715391.5664
 11  8 26  2 35  0.0000000  0  9G25G29G12G26G05G15G30G02G21
 -14199650.785 8 -11052337.148 7  22045626.930
 -17333919.894 8 -13495465.437 7  21274444.570
  -9628663.063 7  -7491238.159 7  22864096.367
 -13855005.13747 -10737913.44945  22292712.6024                   22292714.3054
 -19281615.019 8 -15011276.749 7  21082479.625
  -8158873.696 7  -6343910.490 6  23117659.953
 -10749255.60047  -8337856.05545  22345799.7814                   22345801.0164
 -13606275.33547 -10567887.71845  22257480.2974                   22257479.4414
  -2668752.36546  -1083535.08143  24704275.2504                   24704275.8204
 11  8 26  2 35 30.0000000  0  9G25G29G12G26G05G15G30G02G21
 -14150073.121 8 -11013705.208 7  22055061.492
 -17399516.850 8 -13546579.921 7  21261961.930
  -9537952.450 7  -7420554.574 6  22881357.711
 -13932746.53747 -10798491.12145  22277919.1254                   22277921.0984
 -19220088.279 8 -14963333.837 7  21094187.367
  -8254370.518 7  -6418323.529 6  23099486.891
 -10693726.16947  -8294586.37745  22356366.5234                   22356368.0984
 -13559036.57847 -10531078.28245  22266469.2664                   22266468.3054
  -2727178.62446  -1129061.95843  24693156.8364                   24693158.2894
 11  8 26  2 36  0.0000000  0  9G25G29G12G26G05G15G30G02G21
 -14100059.126 8 -10974733.280 7  22064578.617
 -17464833.422 8 -13597475.918 7  21249532.211
  -9447076.832 7  -7349742.405 7  22898650.563
 -14010113.11647 -10858776.71645  22263196.5234                   22263198.4574
 -19158219.606 8 -14915124.485 7  21105960.945
  -8349755.733 7  -6492649.595 6  23081336.406
 -10637786.75847  -8250997.22945  22367011.2664                   22367013.0354
 -13511691.67247 -10494186.15145  22275479.3674                   22275477.7854
  -2785615.27046  -1174596.89843  24682036.8834                   24682037.0984
 11  8 26  2 36 30.0000000  0  9G25G29G12G26G05G15G30G02G21
 -14049611.049 8 -10935423.100 7  22074178.859
 -17529866.865 8 -13648151.297 7  21237156.883
  -9356039.295 7  -7278804.065 6  22915974.438
 -14087101.01948 -10918767.23045  22248545.8524                   22248548.0944
 -19096010.924 8 -14866650.199 7  21117798.922
  -8445026.037 7  -6566886.114 6  23063206.758
 -10581439.97247  -8207090.65244  22377733.9844                   22377734.6884
 -13464240.32247 -10457211.04745  22284508.5864                   22284507.2974
  -2844062.70446  -1220140.28943  24670913.5864                   24670915.2814
 11  8 26  2 37  0.0000000  0  9G25G29G12G26G05G15G30G02G21
 -13998733.217 8 -10895778.063 7  22083860.609
 -17594616.907 8 -13698605.846 7  21224835.453
  -9264844.846 7  -7207743.464 7  22933328.352
 -14163708.32347 -10978461.19745  22233968.2504                   22233970.1134
 -19033466.498 8 -14817914.256 7  21129700.539
  -8540180.165 7  -6641032.155 6  23045099.688
 -10524690.47147  -8162870.27645  22388532.7664                   22388534.6724
 -13416683.98347 -10420154.15345  22293558.0004                   22293557.1294
  -2902523.47346  -1265694.06743  24659789.2504                   24659790.5164
 11  8 26  2 37 30.0000000  0  9G25G29G12G26G05G15G30G02G21
 -13947427.953 8 -10855799.939 7  22093624.016
 -17659080.975 8 -13748837.570 7  21212567.586
  -9173496.001 7  -7136562.578 7  22950710.945
 -14239931.32547 -11037855.68545  22219463.4844                   22219465.1684
 -18970588.471 8 -14768918.398 7  21141665.695
  -8635214.877 7  -6715085.080 6  23027015.063
 -10467540.99047  -8118338.21545  22399408.0004                   22399409.8914
 -13369022.02147 -10383014.94945  22302628.0864                   22302626.6094
  -2960997.43746  -1311258.10543  24648662.5004                   24648663.6294
 11  8 26  2 38  0.0000000  0  9G25G29G12G26G05G15G30G02G21
 -13895696.231 8 -10815489.541 7  22103468.219
 -17723255.042 8 -13798843.296 7  21200356.141
  -9081994.273 7  -7065262.550 6  22968123.469
 -14315765.03547 -11096946.83345  22205033.0394                   22205034.6684
 -18907378.120 8 -14719663.597 7  21153694.336
  -8730125.391 7  -6789041.276 6  23008954.273
 -10409992.72947  -8073495.43745  22410359.0084                   22410360.7974
 -13321252.72047 -10345792.10645  22311718.1954                   22311717.0514
  -3019483.78246  -1356831.81043  24637532.8364                   24637533.9924
 11  8 26  2 38 30.0000000  0 10G18G25G29G12G26G05G15G30G02G21
    506695.96615                  24681350.680
 -13843541.199 8 -10774849.260 7  22113392.547
 -17787137.333 8 -13848621.672 7  21188199.727
  -8990343.337 7  -6993846.245 6  22985564.430
 -14391206.30147 -11155732.19245  22190676.5784                   22190678.7194
 -18843838.329 8 -14670152.068 7  21165785.547
  -8824909.165 7  -6862898.673 6  22990917.422
 -10352049.16947  -8028344.62545  22421385.8444                   22421387.0594
 -13273376.28147 -10308485.77745  22320829.0394                   22320827.2464
  -3077983.47446  -1402415.92843  24626400.5004                   24626401.6174
 11  8 26  2 39  0.0000000  0 10G18G25G29G12G26G05G15G30G02G21
    416699.582 5                  24664223.641
 -13790971.343 8 -10733885.758 7  22123396.570
 -17850731.524 8 -13898175.540 7  21176098.352
  -8898552.598 7  -6922320.980 6  23003031.742
 -14466257.70847 -11214213.74345  22176394.7974                   22176396.9574
 -18779977.582 8 -14620390.447 7  21177937.883
  -8919569.222 7  -6936659.715 6  22972903.813
 -10293719.22047  -7982892.72345  22432485.1644                   22432487.0784
 -13225398.15548 -10271100.22445  22329959.1094                   22329957.5944
  -3136502.70646  -1448015.26843  24615264.3134                   24615266.2194
 11  8 26  2 39 30.0000000  0 10G18G25G29G12G26G05G15G30G02G21
    326867.22915                  24647132.430
 -13737979.672 8 -10692593.567 7  22133480.234
 -17914025.598 8 -13947495.571 7  21164053.781
  -8806615.233 7  -6850681.485 6  23020525.953
 -14540905.93247 -11272381.16245  22162189.9924                   22162191.0904
 -18715788.296 8 -14570372.817 7  21190152.656
  -9014092.503 7  -7010314.177 6  22954916.984
 -10234996.07947  -7937134.44845  22443659.6804                   22443662.6054
 -13177308.89147 -10233628.05445  22339110.2814                   22339108.9964
  -3195032.37446  -1493622.69243  24604126.8204                   24604128.2664
 11  8 26  2 40  0.0000000  0 10G18G25G29G12G26G05G15G30G02G21
    237196.50315                  24630066.445
 -13684572.050 8 -10650977.250 7  22143643.680
 -17977020.298 8 -13996582.313 7  21152066.391
  -8714537.553 7  -6778932.665 6  23038047.938
 -14615150.76847 -11330234.21645  22148061.1024                   22148062.5594
 -18651276.486 8 -14520103.882 7  21202428.664
  -9108479.719 7  -7083862.581 6  22936955.383
 -10175885.99147  -7891074.66845  22454908.5474                   22454910.4104
 -13129111.15847 -10196071.38145  22348281.0634                   22348280.7234
  -3253576.31446  -1539241.30443  24592986.8444                   24592988.0944
 11  8 26  2 40 30.0000000  0 10G18G25G29G12G26G05G15G30G02G21
  -1427733.52715                  24613032.031
 -13630753.953 8 -10609041.058 7  22153884.641
 -18039716.432 7 -14045436.420 7  21140135.477
  -8622325.030 7  -6707078.768 7  23055596.039
 -14688991.71147 -11387772.56945  22134009.7034                   22134011.1844
 -18586447.380 8 -14469587.687 7  21214765.477
  -9202730.362 7  -7157304.569 6  22919020.508
 -10116394.78847  -7844717.89245  22466229.1174                   22466231.2114
 -13080807.63547 -10158432.27645  22357473.3674                   22357472.3204
  -3312137.77746  -1584873.51343  24581842.2034                   24581844.0594
 11  8 26  2 41  0.0000000  0 10G18G25G29G12G26G05G15G30G02G21
  -1517075.381 5                  24596031.383
 -13576520.788 8 -10566781.456 7  22164205.133
 -18102104.345 7 -14094050.359 7  21128263.406
  -8529974.532 7  -6635117.328 6  23073169.836
 -14762417.93447 -11444987.74745  22120037.3674                   22120038.6294
 -18521296.278 8 -14418820.611 7  21227163.297
  -9296834.162 7  -7230632.118 6  22901112.953
 -10056518.12647  -7798060.76945  22477623.3204                   22477625.2814
 -13032390.71047 -10120704.80345  22366687.1954                   22366685.4384
  -3370709.97946  -1630514.14043  24570697.0394                   24570698.0824
 11  8 26  2 41 30.0000000  0 10G18G25G29G12G26G05G15G30G02G21
  -1606254.071 5                  24579062.125
 -13521882.253 8 -10524205.982 7  22174602.234
 -18164188.836 8 -14142427.853 7  21116449.000
  -8437495.856 7  -6563056.043 6  23090766.914
 -14835433.00847 -11501882.58045  22106142.8524                   22106144.2274
 -18455832.255 8 -14367809.686 7  21239620.711
  -9390795.149 7  -7303848.416 6  22883232.664
  -9996265.98247  -7751111.08845  22489088.8674                   22489091.0004
 -12983867.23847 -10082894.30945  22375920.7424                   22375919.5204
  -3429300.22846  -1676168.79743  24559547.3054                   24559548.5594
 11  8 26  2 42  0.0000000  0 10G18G25G29G12G26G05G15G30G02G21
  -1695266.49445   -445196.24652  24562122.8524                   24562125.3094
 -13466838.930 8 -10481315.085 7  22185076.695
 -18225964.898 7 -14190565.016 7  21104693.461
  -8344889.799 7  -6490895.493 6  23108389.836
 -14908031.37547 -11558452.67645  22092327.7114                   22092329.4804
 -18390056.280 8 -14316555.672 7  21252137.602
  -9484607.882 7  -7376949.187 7  22865380.672
  -9935639.30547  -7703869.52545  22500625.4924                   22500627.9924
 -12935234.87847 -10044998.95945  22385175.0554                   22385173.9964
  -3487906.87446  -1721836.23843  24548395.4924                   24548396.0944
 11  8 26  2 42 30.0000000  0 10G18G25G29G12G26G05G15G30G02G21
  -1784111.29945   -514425.74342  24545215.4774                   24545219.0514
 -13411393.240 8 -10438110.641 7  22195627.703
 -18287430.977 8 -14238460.641 7  21092996.930
  -8252159.084 7  -6418637.810 6  23126035.945
 -14980209.32447 -11614695.18445  22078592.9064                   22078594.5204
 -18323970.448 8 -14265060.224 7  21264713.391
  -9578269.171 7  -7449931.935 6  22847556.938
  -9874640.85047  -7656338.27845  22512233.3594                   22512235.4494
 -12886492.87848 -10007018.19245  22394450.1644                   22394449.2544
  -3546530.24547  -1767516.68443  24537239.5554                   24537239.9534
 11  8 26  2 43  0.0000000  0 10G18G25G29G12G26G05G15G30G02G21
  -1872788.36246   -583524.55942  24528341.4694                   24528344.6524
 -13355549.144 7 -10394595.769 7  22206254.711
 -18348585.587 8 -14286113.554 7  21081360.102
  -8159308.110 7  -6346286.414 6  23143704.906
 -15051964.69847 -11670608.40945  22064938.6334                   22064940.1994
 -18257578.461 8 -14213326.194 7  21277347.219
  -9671777.285 7  -7522795.330 7  22829763.461
  -9813274.82247  -7608520.61945  22523911.2424                   22523912.1454
 -12837642.34448  -9968952.81445  22403746.3834                   22403745.0514
  -3605172.17746  -1813211.63643  24526079.4614                   24526080.7704
 11  8 26  2 43 30.0000000  0 10G18G25G29G12G26G05G15G30G02G21
  -1961294.69546   -652490.33842  24511499.4844                   24511502.8984
 -13299307.701 8 -10350771.272 7  22216957.117
 -18409424.535 8 -14333520.504 7  21069782.859
  -8066338.304 7  -6273842.411 6  23161396.672
 -15123292.39547 -11726188.40045  22051365.0704                   22051366.4344
 -18190880.975 8 -14161354.135 7  21290039.102
  -9765127.261 7  -7595535.505 7  22811999.352
  -9751542.54247  -7560417.54345  22535658.1094                   22535659.9304
 -12788680.79447  -9930800.97045  22413063.4224                   22413062.1954
  -3663831.28246  -1858919.91843  24514916.2974                   24514918.7194
 11  8 26  2 44  0.0000000  0 10G18G25G29G12G26G05G15G30G02G21
  -2049630.01746   -721322.82642  24494688.6644                   24494692.8754
 -13242672.367 7 -10306639.827 7  22227734.227
 -18469946.301 7 -14380680.277 7  21058265.453
  -7973253.569 7  -6201308.894 6  23179109.914
 -15194189.74448 -11781433.03045  22037873.3364                   22037874.8714
 -18123881.119 8 -14109146.441 7  21302788.938
  -9858316.924 7  -7668150.749 7  22794265.695
  -9689447.71647  -7512031.98745  22547474.6024                   22547475.9224
 -12739609.04647  -9892563.25245  22422401.3754                   22422400.0044
  -3722508.76046  -1904642.53743  24503750.8984                   24503751.7504
 11  8 26  2 44 30.0000000  0 10G18G25G29G12G26G05G15G30G02G21
  -2137792.70545   -790020.82042  24477911.8914                   24477916.6414
 -13185645.221 7 -10262203.077 7  22238586.242
 -18530147.968 8 -14427590.628 7  21046809.523
  -7880056.283 6  -6128687.649 6  23196844.242
 -15264652.62247 -11836339.12345  22024464.9224                   22024466.4694
 -18056581.064 8 -14056704.836 7  21315595.438
  -9951342.615 7  -7740638.229 7  22776563.609
  -9626992.85447  -7463365.85245  22559359.5554                   22559359.8834
 -12690426.29647  -9854239.03845  22431760.9384                   22431759.5864
  -3781204.28046  -1950379.23243  24492581.2734                   24492582.5394
 11  8 26  2 45  0.0000000  0 10G18G25G29G12G26G05G15G30G02G21
  -2225781.53345   -858583.41442  24461167.5164                   24461172.5514
 -13128229.476 7 -10217463.524 7  22249511.883
 -18590027.681 8 -14474250.120 7  21035414.422
  -7786749.975 7  -6055981.465 6  23214600.469
 -15334678.04747 -11890904.35945  22011139.5004                   22011140.7704
 -17988983.302 8 -14004031.247 7  21328459.266
 -10044201.480 7  -7812995.704 7  22758893.352
  -9564181.38747  -7414421.87045  22571311.4304                   22571313.5984
 -12641132.71547  -9815828.46645  22441141.0004                   22441139.9884
  -3839918.80246  -1996130.71543  24481407.6174                   24481409.2234
 11  8 26  2 45 30.0000000  0 10G18G25G29G12G26G05G15G30G02G21
  -2313595.84546   -927009.91942  24444457.3054                   24444462.2704
 -13070428.051 7 -10172423.464 7  22260511.203
 -18649583.135 8 -14520656.944 7  21024081.820
  -7693338.102 7  -5983193.019 6  23232376.023
 -15404262.87348 -11945126.23445  21997898.1024                   21997899.0234
 -17921090.680 8 -13951127.892 7  21341378.766
 -10136890.561 7  -7885220.933 7  22741254.984
  -9501016.51747  -7365202.49545  22583331.9144                   22583333.5354
 -12591728.02247  -9777331.29445  22450542.3984                   22450541.1294
  -3898652.81146  -2041897.41643  24470231.6334                   24470231.9924
 11  8 26  2 46  0.0000000  0 10G18G25G29G12G26G05G15G30G02G21
  -2401234.70645   -995299.77442  24427780.4144                   24427784.9104
 -13012244.237 7 -10127085.415 7  22271583.250
 -18708812.608 8 -14566809.751 7  21012810.477
  -7599823.784 7  -5910324.766 6  23250171.203
 -15473404.15447 -11999002.53045  21984740.5704                   21984742.0274
 -17852906.246 8 -13897997.156 7  21354353.648
 -10229407.249 7  -7957311.774 6  22723649.789
  -9437501.90147  -7315710.58045  22595418.9694                   22595419.9024
 -12542212.28047  -9738747.60245  22459965.0474                   22459963.9844
  -3957407.15046  -2087679.94743  24459050.9844                   24459051.6174
 11  8 26  2 46 30.0000000  0 10G18G25G29G12G26G05G15G30G02G21
  -2488695.07546  -1063450.54642  24411137.2114                   24411140.8594
 -12953679.036 7 -10081450.179 7  22282727.766
 -18767712.082 8 -14612705.407 7  21001601.938
  -7506208.369 7  -5837377.683 6  23267985.633
 -15542096.85947 -12052529.25945  21971668.7034                   21971670.0354
 -17784430.310 8 -13844639.281 7  21367384.313
 -10321746.609 7  -8029264.467 7  22706078.164
  -9373638.56747  -7265946.95645  22607571.4924                   22607572.3134
 -12492583.34847  -9700075.71045  22469408.9844                   22469407.7274
  -4016180.66046  -2133477.44843  24447866.0004                   24447868.1454
 11  8 26  2 47  0.0000000  0 10G18G25G29G12G26G05G15G30G02G21
  -2575977.48646  -1131462.61142  24394528.4774                   24394530.9184
 -12894736.573 7 -10035520.984 7  22293944.102
 -18826280.642 7 -14658343.205 7  20990456.977
  -7412496.571 7  -5764355.527 6  23285818.445
 -15610338.86147 -12105704.80245  21958683.0164                   21958684.2624
 -17715666.950 8 -13791057.434 7  21380469.492
 -10413907.205 7  -8101077.876 6  22688539.984
  -9309431.15447  -7215915.18945  22619789.3834                   22619791.0474
 -12442842.39747  -9661316.53345  22478873.7344                   22478873.5554
  -4074975.10846  -2179291.18943  24436678.2734                   24436679.8164
 11  8 26  2 47 30.0000000  0 10G18G25G29G12G26G05G15G30G02G21
  -2663079.88845  -1199334.45142  24377952.6414                   24377955.6884
 -12835419.208 7  -9989299.632 7  22305232.031
 -18884515.348 8 -14703720.865 7  20979375.211
  -7318690.563 7  -5691259.979 6  23303669.789
 -15678126.40947 -12158526.23145  21945783.3054                   21945784.4574
 -17646618.219 8 -13737253.217 7  21393609.102
 -10505885.425 7  -8172749.167 6  22671037.719
  -9244882.19647  -7165617.30145  22632072.9304                   22632074.5004
 -12392988.69647  -9622469.50645  22488361.2194                   22488360.1914
  -4133790.40246  -2225121.21543  24425486.7584                   24425487.3444
 11  8 26  2 48  0.0000000  0 10G18G25G29G12G26G05G15G30G02G21
  -2750002.91346  -1267066.50542  24361410.7814                   24361415.0984
 -12775731.231 7  -9942789.527 7  22316590.336
 -18942415.606 8 -14748837.915 7  20968357.313
  -7224795.200 7  -5618094.748 6  23321536.773
 -15745457.52847 -12210991.99045  21932970.7664                   21932972.1054
 -17577288.118 8 -13683229.747 7  21406802.109
 -10597679.501 7  -8244276.955 6  22653569.258
  -9179996.22347  -7115056.79745  22644420.1414                   22644421.5044
 -12343023.15647  -9583535.31745  22497868.8204                   22497868.1564
  -4192628.15446  -2270968.70943  24414289.8674                   24414291.9304
 11  8 26  2 48 30.0000000  0 10G18G25G29G12G26G05G15G30G02G21
  -2836743.13146  -1334656.16843  24344905.6564                   24344908.0744
 -12715673.397 7  -9895991.190 7  22328018.711
 -18999976.656 8 -14793690.642 7  20957403.633
  -7130811.535 7  -5544860.758 6  23339421.469
 -15812326.83447 -12263097.90945  21920245.5004                   21920247.0274
 -17507676.870 8 -13628987.196 7  21420048.625
 -10689284.110 7  -8315657.116 7  22636137.766
  -9114774.34147  -7064234.54245  22656831.5234                   22656833.3134
 -12292943.47047  -9544512.19545  22507399.0084                   22507398.5354
  -4251486.81746  -2316832.55143  24403089.0634                   24403090.6334
 11  8 26  2 49  0.0000000  0 10G18G25G29G12G26G05G15G30G02G21
  -2923300.85146  -1402103.57443  24328433.7424                   24328435.9414
 -12655249.814 7  -9848907.855 7  22339517.086
 -19057197.494 8 -14838278.286 8  20946515.000
  -7036743.339 7  -5471560.870 6  23357322.289
 -15878732.45448 -12314842.49845  21907609.3444                   21907610.5634
 -17437788.183 8 -13574528.487 7  21433348.070
 -10780697.716 7  -8386888.455 6  22618742.391
  -9049220.89247  -7013153.93745  22669305.9304                   22669307.9144
 -12242750.59647  -9505400.86545  22516950.6414                   22516949.9804
  -4310368.28146  -2362714.09343  24391884.5634                   24391885.9844
 11  8 26  2 49 30.0000000  0 10G18G25G29G12G26G05G15G30G02G21
  -3009673.01446  -1469406.34643  24311997.6884                   24312000.4064
 -12594461.263 7  -9801540.154 7  22351084.563
 -19114074.091 8 -14882597.661 7  20935691.367
  -6942592.073 7  -5398196.259 6  23375239.414
 -15944668.94048 -12366221.55645  21895061.8594                   21895062.9104
 -17367622.435 8 -13519853.859 7  21446700.086
 -10871915.180 7  -8457966.930 7  22601383.406
  -8983336.91747  -6961815.75545  22681842.8364                   22681844.9654
 -12192442.19647  -9466199.52245  22526523.5234                   22526522.7974
  -4369270.78846  -2408612.10643  24380675.4614                   24380677.2424
 11  8 26  2 50  0.0000000  0 10G18G25G29G12G26G05G15G30G02G21
  -3095861.20046  -1536565.79343  24295596.7734                   24295598.2934
 -12533313.412 7  -9753892.481 7  22362720.578
 -19170606.830 8 -14926649.109 8  20924933.656
  -6848363.782 7  -5324771.619 6  23393169.328
 -16010136.09947 -12417234.88245  21882604.1804                   21882604.7894
 -17297185.110 8 -13464967.625 7  21460104.258
 -10962936.045 7  -8528892.216 6  22584063.242
  -8917128.33847  -6910224.64845  22694442.5784                   22694443.9494
 -12142020.63547  -9426909.99045  22536118.0394                   22536116.8094
  -4428197.44846  -2454528.89443  24369462.3054                   24369463.2234
 11  8 26  2 50 30.0000000  0 10G18G25G29G12G26G05G15G30G02G21
  -3181861.05746  -1603578.44743  24279231.2344                   24279232.6684
 -12471806.126 7  -9705964.710 7  22374424.688
 -19226790.248 8 -14970428.363 7  20914242.414
  -6754058.075 7  -5251286.686 6  23411115.273
 -16075127.15447 -12467877.22145  21870236.5704                   21870237.5514
 -17226475.429 8 -13409869.179 7  21473559.438
 -11053754.125 7  -8599659.471 7  22566781.180
  -8850595.22747  -6858380.65645  22707102.8754                   22707104.9064
 -12091482.98547  -9387530.00445  22545735.7894                   22545734.3954
  -4487145.60646  -2500462.43143  24358244.1954                   24358245.2274
 11  8 26  2 51  0.0000000  0 10G18G25G29G12G26G05G15G30G02G21
  -3267673.09746  -1670444.77343  24262900.8444                   24262903.5984
 -12409943.675 7  -9657760.189 7  22386196.711
 -19282623.832 8 -15013935.020 7  20903617.844
  -6659679.243 7  -5177744.746 6  23429074.656
 -16139640.52147 -12518147.34745  21857959.8754                   21857960.7934
 -17155497.383 8 -13354561.587 7  21487066.266
 -11144367.548 7  -8670267.268 7  22549537.891
  -8783742.10047  -6806287.29445  22719824.7274                   22719826.3834
 -12040829.56247  -9348059.79645  22555374.1804                   22555373.3164
  -4546116.89546  -2546414.01543  24347023.2194                   24347022.7974
 11  8 26  2 51 30.0000000  0 10G18G25G29G12G26G05G15G30G02G21
  -3353298.23146  -1737165.45242  24246607.1334                   24246609.6374
 -12347730.947 7  -9609282.738 7  22398035.227
 -19338107.047 8 -15057168.660 7  20893059.328
  -6565232.564 7  -5104149.935 6  23447047.547
 -16203675.15647 -12568044.42745  21845774.6884                   21845775.8364
 -17084255.385 8 -13299048.354 7  21500622.953
 -11234775.617 7  -8740715.038 7  22532333.641
  -8716574.17147  -6753948.64145  22732605.3984                   22732608.4774
 -11990062.13047  -9308500.75045  22565035.4924                   22565034.5354
  -4605113.84646  -2592385.60243  24335796.0394                   24335796.3014
 11  8 26  2 52  0.0000000  0 10G18G25G29G12G26G05G15G30G02G21
  -3438731.94646  -1803737.04243  24230349.3674                   24230351.9344
 -12285167.576 7  -9560532.068 7  22409941.445
 -19393234.456 8 -15100125.047 7  20882569.047
  -6470717.909 7  -5030502.210 6  23465033.352
 -16267224.28347 -12617563.17945  21833681.4144                   21833682.1214
 -17012748.775 8 -13243328.924 7  21514230.375
 -11324971.936 7  -8810997.814 7  22515169.719
  -8649091.26947  -6701364.57845  22745447.8444                   22745450.5514
 -11939177.52347  -9268850.40745  22574718.5164                   22574717.7774
  -4664133.74146  -2638375.03543  24324564.3834                   24324566.4614
 11  8 26  2 52 30.0000000  0 10G18G25G29G12G26G05G15G30G02G21
  -3523975.04946  -1870159.98843  24214127.7344                   24214130.7854
 -12222257.932 7  -9511511.542 7  22421912.109
 -19448005.202 8 -15142803.518 7  20872146.555
  -6376139.579 7  -4956804.816 6  23483031.461
 -16330286.18647 -12666702.28845  21821680.9064                   21821681.9144
 -16940981.123 8 -13187406.065 7  21527887.531
 -11414954.746 7  -8881114.246 7  22498047.094
  -8581298.00447  -6648538.64645  22758347.5554                   22758350.1054
 -11888176.70047  -9229109.48545  22584423.6174                   22584422.5004
  -4723178.18346  -2684383.58943  24313328.5234                   24313330.2624
 11  8 26  2 53  0.0000000  0 10G18G25G29G12G26G05G15G30G02G21
  -3609025.99746  -1936433.26143  24197942.8524                   24197946.1414
 -12159004.874 7  -9462223.445 7  22433948.836
 -19502416.746 8 -15185202.077 7  20861792.672
  -6281500.496 7  -4883060.072 6  23501039.742
 -16392857.68747 -12715459.27945  21809774.1954                   21809774.8834
 -16868954.859 8 -13131281.693 7  21541592.883
 -11504720.900 7  -8951061.840 7  22480964.914
  -8513197.47447  -6595473.31144  22771307.5784                   22771309.6024
 -11837059.45347  -9189277.86445  22594151.0164                   22594149.8874
  -4782247.48346  -2730411.55643  24302088.1254                   24302089.8054
 11  8 26  2 53 30.0000000  0 10G18G25G29G12G26G05G15G30G02G21
  -3693882.32846  -2002554.88043  24181795.5944                   24181797.7854
 -12095409.816 7  -9412668.847 7  22446050.961
 -19556465.275 8 -15227317.788 8  20851507.461
  -6186802.134 7  -4809269.178 6  23519061.086
 -16454934.23847 -12763830.56945  21797961.1804                   21797962.2774
 -16796671.005 8 -13074956.616 7  21555348.859
 -11594265.721 7  -9020836.948 7  22463925.133
  -8444791.30347  -6542169.79744  22784324.3834                   22784327.2584
 -11785823.90547  -9149354.06845  22603900.8594                   22603899.2854
  -4841340.36846  -2776457.88343  24290843.1414                   24290844.6134
 11  8 26  2 54  0.0000000  0 10G18G25G29G12G26G05G15G30G02G21
  -3778546.21747  -2068526.59743  24165684.5394                   24165686.3054
 -12031479.134 7  -9362852.729 7  22458216.805
 -19610152.335 8 -15269151.833 7  20841291.039
  -6092051.096 7  -4735437.229 6  23537091.641
 -16516516.00347 -12811816.32745  21786242.6094                   21786243.7624
 -16724135.566 8 -13018435.497 7  21569151.648
 -11683589.606 7  -9090439.908 7  22446927.031
  -8376086.16947  -6488633.32544  22797399.3284                   22797400.9574
 -11734472.53147  -9109340.01645  22613673.0164                   22613671.4734
  -4900460.81546  -2822525.69443  24279593.0394                   24279594.7504
 11  8 26  2 54 30.0000000  0 10G18G25G29G12G26G05G15G30G02G21
  -3863014.51846  -2134345.85143  24149610.3284                   24149612.6884
 -11967213.345 7  -9312775.482 7  22470445.789
 -19663473.141 8 -15310700.494 7  20831144.219
  -5997247.951 7  -4661564.653 6  23555131.977
 -16577597.33447 -12859412.13245  21774618.9384                   21774619.8554
 -16651348.395 8 -12961718.206 7  21583002.578
 -11772687.040 7  -9159866.438 7  22429972.313
  -8307082.75747  -6434864.45644  22810530.4454                   22810532.2114
 -11683002.58547  -9069233.55745  22623466.9774                   22623465.1724
  -4959606.58646  -2868613.23843  24268337.7424                   24268338.8594
 11  8 26  2 55  0.0000000  0 10G18G25G29G12G26G05G15G30G02G21
  -3947286.09146  -2200011.89743  24133574.5784                   24133575.3364
 -11902615.347 7  -9262439.369 7  22482738.508
 -19716425.352 8 -15351961.930 8  20821067.594
  -5902395.424 7  -4587653.597 6  23573181.797
 -16638175.23948 -12906615.64945  21763091.7974                   21763092.7114
 -16578311.943 8 -12904806.681 7  21596901.156
 -11861554.928 7  -9229114.086 7  22413061.352
  -8237784.23147  -6380865.59644  22823716.6884                   22823718.6804
 -11631414.08947  -9029034.72045  22633283.7194                   22633282.6294
  -5018778.08046  -2914720.84743  24257077.4384                   24257078.9804
 11  8 26  2 55 30.0000000  0 10G18G25G29G12G26G05G15G30G02G21
  -4031360.59346  -2265524.33343  24117574.8054                   24117576.9184
 -11837689.004 7  -9211847.401 7  22495093.086
 -19769007.625 8 -15392935.107 8  20811061.719
  -5807497.504 7  -4513707.199 6  23591240.273
 -16698247.35047 -12953425.05845  21751659.9534                   21751661.3634
 -16505029.531 8 -12847703.496 7  21610845.820
 -11950191.092 7  -9298181.159 7  22396194.773
  -8168194.59547  -6326639.90644  22836959.1254                   22836961.6094
 -11579707.77747  -8988744.09745  22643123.5944                   22643122.1644
  -5077976.55546  -2960849.46243  24245812.0164                   24245813.9144
 11  8 26  2 56  0.0000000  0 10G18G25G29G12G26G05G15G30G02G21
  -4115236.52747  -2330882.05643  24101613.8984                   24101615.6414
 -11772436.582 7  -9161001.353 7  22507510.773
 -19821216.807 8 -15433617.574 7  20801126.648
  -5712556.450 7  -4439727.170 6  23609306.625
 -16757809.77447 -12999837.28945  21740326.1804                   21740326.4454
 -16431502.856 8 -12790409.993 7  21624837.617
 -12038591.587 7  -9367064.608 7  22379372.297
  -8098316.37947  -6272189.35144  22850256.8284                   22850258.7194
 -11527882.18847  -8948360.52645  22652985.3914                   22652984.0124
  -5137201.39446  -3006998.58243  24234542.1484                   24234543.4414
 11  8 26  2 56 30.0000000  0 10G18G25G29G12G26G05G15G30G02G21
  -4198912.57946  -2396084.05043  24085691.5554                   24085692.3634
 -11706860.655 7  -9109903.225 7  22519989.531
 -19873050.432 8 -15474007.379 7  20791263.109
  -5617574.721 6  -4365715.475 6  23627380.805
 -16816859.25147 -13045849.83945  21729089.3984                   21729090.2854
 -16357733.826 8 -12732927.612 7  21638875.430
 -12126752.872 7  -9435761.647 7  22362595.445
  -8028152.36747  -6217516.08444  22863608.5474                   22863610.2154
 -11475936.57847  -8907883.43645  22662870.7584                   22662869.0664
  -5196452.46746  -3053168.19443  24223266.9774                   24223268.3324
 11  8 26  2 57  0.0000000  0 10G18G25G29G12G26G05G15G30G02G21
  -4282388.36246  -2461130.00943  24069805.9534                   24069807.4574
 -11640965.082 7  -9058556.020 7  22532529.031
 -19924507.239 8 -15514103.566 8  20781471.016
  -5522556.556 7  -4291675.363 6  23645462.750
 -16875393.64447 -13091461.01345  21717950.4224                   21717951.3014
 -16283725.731 8 -12675258.975 7  21652958.695
 -12214673.020 7  -9504270.802 7  22345864.852
  -7957706.61747  -6162623.29844  22877014.6414                   22877015.1334
 -11423871.56347  -8867313.29645  22672777.5474                   22672777.3054
  -5255731.27046  -3099359.35243  24211986.1644                   24211988.4654
 11  8 26  2 57 30.0000000  0 10G18G25G29G12G26G05G15G30G02G21
  -4365662.26447  -2526018.61943  24053959.3674                   24053960.7774
 -11574752.037 7  -9006961.430 7  22545128.477
 -19975584.198 8 -15553903.778 8  20771751.117
  -5427504.045 7  -4217608.518 6  23663550.305
 -16933408.95247 -13136667.71645  21706910.2894                   21706910.4694
 -16209480.445 8 -12617405.509 7  21667087.148
 -12302348.068 7  -9572588.971 7  22329180.766
  -7886981.57447  -6107512.89644  22890472.4844                   22890473.9804
 -11371686.13947  -8826649.33544  22682708.5234                   22682707.3634
  -5315037.16646  -3145571.68043  24200700.7584                   24200702.7114
 11  8 26  2 58  0.0000000  0 10G18G25G29G12G26G05G15G30G02G21
  -4448734.08646  -2590749.79943  24038150.9144                   24038152.6954
 -11508225.473 7  -8955122.567 7  22557788.641
 -20026280.098 8 -15593407.038 8  20762104.078
  -5332420.879 6  -4143517.743 6  23681644.773
 -16990903.18247 -13181468.37645  21695969.5704                   21695970.6684
 -16135001.192 8 -12559369.715 7  21681260.133
 -12389775.839 7  -9640714.426 7  22312544.094
  -7815981.34747  -6052188.01044  22903983.2194                   22903984.6724
 -11319380.57947  -8785891.75544  22692662.3364                   22692660.5824
  -5374371.61147  -3191806.21643  24189410.4924                   24189411.1994
 11  8 26  2 58 30.0000000  0 10G18G25G29G12G26G05G15G30G02G21
  -4531601.96146  -2655322.04643  24022381.7114                   24022383.5634
 -11441387.294 7  -8903040.854 7  22570506.789
 -20076591.389 8 -15632610.627 8  20752530.594
  -5237308.903 7  -4069404.549 6  23699743.719
 -17047872.18148 -13225859.77545  21685128.9384                   21685129.8524
 -16060289.340 8 -12501152.686 7  21695477.164
 -12476951.960 7  -9708643.817 6  22295954.680
  -7744708.00647  -5996650.32944  22917546.6094                   22917547.5864
 -11266953.54847  -8745039.52844  22702638.7344                   22702637.0864
  -5433733.80547  -3238062.35544  24178113.7504                   24178114.2814
 11  8 26  2 59  0.0000000  0 10G18G25G29G12G26G05G15G30G02G21
  -4614263.75346  -2719733.70243  24006651.6564                   24006653.8674
 -11374239.715 7  -8850718.065 7  22583284.500
 -20126514.899 8 -15671512.049 7  20743030.422
  -5142170.421 7  -3995270.701 6  23717848.070
 -17104312.25547 -13269839.02845  21674388.4144                   21674389.3524
 -15985346.449 8 -12442755.633 7  21709737.789
 -12563872.591 7  -9776374.112 7  22279414.305
  -7673163.92747  -5940901.72644  22931160.3594                   22931162.7194
 -11214403.87547  -8704091.73144  22712638.1644                   22712636.9494
  -5493122.81047  -3284339.39444  24166812.3134                   24166814.0314
 11  8 26  2 59 30.0000000  0 10G18G25G29G12G26G05G15G30G02G21
  -4696721.06646  -2783986.01343  23990960.5864                   23990962.0704
 -11306787.986 7  -8798158.277 7  22596120.930
 -20176050.913 8 -15710111.514 7  20733603.602
  -5047010.522 7  -3921120.119 6  23735955.742
 -17160222.64247 -13313405.52245  21663749.3594                   21663749.8204
 -15910177.098 8 -12384182.120 7  21724042.547
 -12650537.243 7  -9843904.946 7  22262922.414
  -7601354.77047  -5884946.54244  22944825.6804                   22944827.3834
 -11161733.28847  -8663049.70844  22722660.9454                   22722659.7814
  -5552541.35847  -3330639.46444  24155505.8674                   24155506.8054
 11  8 26  3  0  0.0000000  0 10G18G25G29G12G26G05G15G30G02G21
  -4778971.85746  -2848077.39343  23975308.4144                   23975310.4924
 -11239034.135 7  -8745363.047 7  22609013.867
 -20225196.364 8 -15748406.644 8  20724251.773
  -4951831.105 7  -3846954.373 6  23754068.555
 -17215599.21147 -13356556.06345  21653211.7974                   21653212.7584
 -15834782.556 8 -12325433.121 7  21738389.492
 -12736941.512 7  -9911232.905 7  22246480.039
  -7529282.57447  -5828786.39744  22958540.3524                   22958542.0594
 -11108940.59947  -8621912.55144  22732706.7424                   22732705.8524
  -5611988.96046  -3376962.16744  24144192.6414                   24144193.8364
 11  8 26  3  0 30.0000000  0 10G18G25G29G12G26G05G15G30G02G21
  -4861015.28946  -2912007.24443  23959695.3594                   23959697.8914
 -11170981.566 7  -8692335.059 7  22621963.891
 -20273949.339 8 -15786395.956 8  20714974.430
  -4856635.598 7  -3772776.068 6  23772183.359
 -17270439.68148 -13399288.87145  21642775.3524                   21642776.2234
 -15759165.831 8 -12266510.991 7  21752779.023
 -12823082.884 7  -9978355.983 7  22230088.031
  -7456950.94247  -5772424.06544  22972304.2114                   22972305.7234
 -11056025.54447  -8580680.04144  22742776.1094                   22742775.2894
  -5671466.22847  -3423307.98444  24132874.7664                   24132875.6334
 11  8 26  3  1  0.0000000  0 10G18G25G29G12G26G05G15G30G02G21
  -4942850.31746  -2975774.70243  23944122.7344                   23944125.0274
 -11102632.703 7  -8639076.203 7  22634969.672
 -20322306.942 8 -15824077.167 7  20705772.055
  -4761426.063 7  -3698586.834 6  23790301.133
 -17324740.40147 -13441601.07245  21632442.2814                   21632443.6644
 -15683328.708 8 -12207417.129 7  21767210.555
 -12908957.688 7 -10045271.357 7  22213746.672
  -7384362.50447  -5715861.64644  22986117.6644                   22986119.1564
 -11002987.37947  -8539351.61844  22752869.8754                   22752868.5904
  -5730972.59347  -3469676.47644  24121550.8914                   24121551.8524
 11  8 26  3  1 30.0000000  0 10G18G25G29G12G26G05G15G30G02G21
  -5024476.19346  -3039379.16543  23928590.0944                   23928592.6294
 -11033991.005 7  -8585589.157 7  22648031.797
 -20370267.559 8 -15861449.059 8  20696645.477
  -4666206.104 7  -3624389.492 6  23808421.172
 -17378498.82647 -13483490.72345  21622212.8444                   21622213.6524
 -15607274.078 8 -12148153.774 7  21781682.906
 -12994563.125 7 -10111976.845 7  22197456.953
  -7311520.90147  -5659101.92644  22999979.1334                   22999980.3954
 -10949826.21347  -8497927.30844  22762985.7344                   22762984.2154
  -5790508.73247  -3516068.20643  24110221.9534                   24110221.7814
 11  8 26  3  2  0.0000000  0 10G18G25G29G12G26G05G15G30G02G21
  -5105891.10046  -3102819.24243  23913097.1954                   23913099.6884
 -10965058.486 7  -8531875.502 7  22661149.117
 -20417828.037 8 -15898509.152 8  20687595.078
  -4570977.615 7  -3550185.505 6  23826542.352
 -17431711.27547 -13524954.93645  21612086.2424                   21612087.1564
 -15531002.809 8 -12088721.612 7  21796197.352
 -13079895.258 7 -10178469.370 7  22181218.734
  -7238428.34347  -5602146.70944  23013887.8204                   23013889.6524
 -10896540.66147  -8456406.08044  22773125.6884                   22773124.0204
  -5850074.19147  -3562482.73844  24098886.5784                   24098887.4414
 11  8 26  3  2 30.0000000  0 10G18G25G29G12G26G05G15G30G02G21
  -5187095.80346  -3166095.56643  23897645.0944                   23897645.9144
 -10895840.197 7  -8477939.185 7  22674321.641
 -20464988.028 8 -15935257.172 8  20678620.711
  -4475745.469 6  -3475978.676 6  23844664.203
 -17484376.79547 -13565992.96545  21602064.2734                   21602065.2074
 -15454519.590 8 -12029124.301 7  21810751.422
 -13164952.806 7 -10244747.930 7  22165032.695
  -7165090.06047  -5545000.00144  23027843.7424                   23027846.0234
 -10843131.93447  -8414788.89444  22783288.7114                   22783287.0434
  -5909670.64247  -3608921.41544  24087545.1174                   24087545.7114
 11  8 26  3  3  0.0000000  0 10G18G25G29G12G26G05G15G30G02G21
  -5268088.17046  -3229206.37043  23882231.9304                   23882233.8244
 -10826337.835 7  -8423781.477 7  22687546.797
 -20511743.976 8 -15971690.346 8  20669723.016
  -4380511.011 7  -3401770.059 6  23862787.422
 -17536491.00647 -13606601.40345  21592147.5704                   21592148.5394
 -15377825.177 8 -11969362.428 7  21825345.953
 -13249731.426 7 -10310809.144 7  22148899.359
  -7091507.88847  -5487663.22544  23041846.1094                   23041848.4614
 -10789598.42247  -8373074.46644  22793476.2344                   22793474.3594
  -5969297.16447  -3655383.52544  24076198.9614                   24076199.3444
 11  8 26  3  3 30.0000000  0 10G18G25G29G12G26G05G15G30G02G21
  -5348866.80847  -3292150.66243  23866860.1484                   23866861.6024
 -10756553.803 7  -8369404.301 7  22700826.734
 -20558093.120 8 -16007806.539 8  20660903.156
  -4285276.625 6  -3327561.441 6  23880909.281
 -17588050.52847 -13646777.62145  21582335.7894                   21582337.1414
 -15300921.637 8 -11909437.589 7  21839980.164
 -13334227.482 7 -10376650.189 7  22132820.391
  -7017684.45047  -5430138.45844  23055893.8054                   23055895.8984
 -10735939.55147  -8331262.33644  22803687.1484                   22803685.4494
  -6028953.52947  -3701868.93243  24064846.5234                   24064846.8554
 11  8 26  3  4  0.0000000  0 10G18G25G29G12G26G05G15G30G02G21
  -5429430.47847  -3354927.43743  23851529.7814                   23851531.0594
 -10686490.887 7  -8314809.838 7  22714159.414
 -20604033.201 8 -16043603.976 7  20652161.250
  -4190045.078 6  -3253355.045 6  23899031.266
 -17639052.54547 -13686519.41245  21572630.7424                   21572631.4414
 -15223811.177 8 -11849351.512 7  21854654.172
 -13418437.776 7 -10442268.568 7  22116795.844
  -6943622.61847  -5372427.96844  23069987.6804                   23069989.6374
 -10682154.27347  -8289351.73244  22813921.9534                   22813921.1454
  -6088639.85047  -3748377.67244  24053488.3984                   24053489.3014
 11  8 26  3  4 30.0000000  0 10G18G25G29G12G26G05G15G30G02G21
  -5509780.64747  -3417537.84343  23836239.8984                   23836241.0084
 -10616154.520 7  -8260002.262 7  22727543.680
 -20649564.389 8 -16079082.815 7  20643497.016
  -4094821.339 6  -3179154.804 6  23917151.344
 -17689496.40148 -13725826.27445  21563031.5234                   21563032.6454
 -15146497.859 7 -11789107.375 7  21869366.031
 -13502361.736 7 -10507663.806 7  22100825.523
  -6869328.07647  -5314536.07744  23084125.2424                   23084127.6414
 -10628244.55847  -8247344.18445  22824180.7814                   22824179.1454
  -6148358.77147  -3794911.77144  24042124.8444                   24042125.1524
 11  8 26  3  5  0.0000000  0 10G18G25G29G12G26G05G15G30G02G21
  -5589914.02547  -3479979.35043  23820990.6804                   23820991.8714
 -10545545.388 7  -8204982.151 7  22740980.359
 -20694682.274 8 -16114239.581 8  20634911.148
  -3999605.879 6  -3104960.975 6  23935270.563
 -17739376.98848 -13764694.23145  21553539.3204                   21553540.4224
 -15068981.932 8 -11728705.347 7  21884116.594
 -13585993.229 7 -10572831.146 7  22084911.211
  -6794801.56147  -5256463.48744  23098307.2814                   23098309.0314
 -10574207.54447  -8205237.42345  22834464.2664                   22834462.5434
  -6208107.75447  -3841469.31144  24030754.7194                   24030754.5944
 11  8 26  3  5 30.0000000  0 10G18G25G29G12G26G05G15G30G02G21
  -5669831.70447  -3542252.76843  23805783.2274                   23805783.9804
 -10474668.579 7  -8149753.458 7  22754467.391
 -20739386.462 8 -16149074.003 8  20626404.227
  -3904403.762 7  -3030777.581 6  23953387.070
 -17788693.76248 -13803122.83845  21544154.6884                   21544155.7814
 -14991267.570 8 -11668148.707 7  21898904.750
 -13669331.948 7 -10637770.371 7  22069052.094
  -6720048.47647  -5198214.30244  23112531.8444                   23112534.2544
 -10520044.88447  -8163032.73444  22844770.0394                   22844769.0124
  -6267888.91147  -3888051.92244  24019378.1804                   24019379.1604
 11  8 26  3  6  0.0000000  0 10G18G25G29G12G26G05G15G30G02G21
  -5749531.68447  -3604356.53543  23790616.6024                   23790617.1484
 -10403525.847 7  -8094317.552 7  22768005.594
 -20783673.773 8 -16183583.581 7  20617976.359
  -3809216.506 6  -2956605.725 6  23971500.125
 -17837442.36548 -13841108.74245  21534878.2274                   21534879.0824
 -14913356.290 8 -11607438.628 7  21913731.641
 -13752373.251 7 -10702477.831 7  22053249.438
  -6645070.72247  -5139790.05444  23126799.6804                   23126801.9184
 -10465755.01247  -8120728.96644  22855101.5234                   22855100.2704
  -6327701.63247  -3934659.14644  24007996.3674                   24007996.4774
 11  8 26  3  6 30.0000000  0 10G18G25G29G12G26G05G15G30G02G21
  -5829012.34146  -3666289.40643  23775491.6484                   23775491.9304
 -10332119.610 8  -8038676.338 7  22781593.664
 -20827541.252 8 -16217766.014 8  20609628.836
  -3714046.201 7  -2882447.111 6  23989611.367
 -17885619.73848 -13878649.49945  21525710.0004                   21525711.3714
 -14835249.593 7 -11546576.280 7  21928594.352
 -13835113.516 7 -10766950.718 7  22037504.523
  -6569870.69047  -5081192.61844  23141109.9144                   23141112.3364
 -10411337.04447  -8078325.33644  22865457.5084                   22865455.7544
  -6387545.42847  -3981290.60344  23996607.5864                   23996608.9184
 11  8 26  3  7  0.0000000  0 10G18G25G29G12G26G05G15G30G02G21
  -5908274.72746  -3728052.22143  23760408.1024                   23760409.0554
 -10260454.805 7  -7982833.627 7  22795230.695
 -20870988.647 8 -16251621.115 8  20601360.945
  -3618897.732 6  -2808305.454 6  24007717.609
 -17933224.99048 -13915744.47545  21516651.3984                   21516652.3754
 -14756951.517 7 -11485564.790 7  21943494.188
 -13917551.463 7 -10831188.054 7  22021817.328
  -6494453.53646  -5022426.03344  23155461.7814                   23155463.7034
 -10356792.12647  -8035822.79744  22875836.2274                   22875834.6454
  -6447421.95047  -4027947.55144  23985214.7584                   23985215.7154
 11  8 26  3  7 30.0000000  0 10G18G25G29G12G26G05G15G30G02G21
  -5987315.85846  -3789642.58943  23745366.8834                   23745368.4414
 -10188532.450 7  -7926790.253 7  22808917.461
 -20914011.898 8 -16285145.712 8  20593174.258
  -3523771.436 7  -2734181.165 6  24025819.477
 -17980253.18948 -13952389.78945  21507702.2344                   21507703.2074
 -14678462.401 8 -11424404.427 7  21958430.266
 -13999682.034 7 -10895185.846 7  22006188.289
  -6418820.50347  -4963491.21244  23169854.2664                   23169855.8794
 -10302117.80347  -7993219.43744  22886240.8444                   22886239.2974
  -6507329.39447  -4074628.65243  23973814.2664                   23973814.7774
 11  8 26  3  8  0.0000000  0 10G18G25G29G12G26G05G15G30G02G21
  -6066136.24046  -3851060.97943  23730368.2734                   23730369.3914
 -10116356.843 7  -7870549.495 7  22822652.086
 -20956610.211 8 -16318339.192 8  20585068.234
  -3428671.772 7  -2660077.566 6  24043916.289
 -18026703.32048 -13988584.68145  21498863.2504                   21498863.9804
 -14599785.407 7 -11363097.670 7  21973401.727
 -14081503.512 7 -10958942.794 7  21990617.891
  -6342975.98147  -4904391.54944  23184286.8674                   23184288.2544
 -10247315.04447  -7950515.96844  22896669.3594                   22896667.5664
  -6567269.32447  -4121334.98744  23962408.4304                   23962409.2194
 11  8 26  3  8 30.0000000  0 10G18G25G29G12G26G05G15G30G02G21
  -6144734.71346  -3912306.43743  23715411.3204                   23715411.9964
 -10043930.715 7  -7814113.581 7  22836433.758
 -20998781.009 8 -16351199.538 8  20577043.109
  -3333601.022 7  -2585996.463 6  24062007.445
 -18072572.04647 -14024326.51545  21490134.5474                   21490135.3284
 -14520922.404 8 -11301646.002 7  21988409.242
 -14163012.207 7 -11022456.018 7  21975107.234
  -6266922.84247  -4845129.37744  23198759.4924                   23198760.7584
 -10192383.07747  -7907711.87144  22907122.6094                   22907120.3404
  -6627241.13947  -4168066.20044  23950995.5704                   23950996.2344
 11  8 26  3  9  0.0000000  0 10G18G25G29G12G26G05G15G30G02G21
  -6223111.37346  -3973379.06243  23700496.3674                   23700497.3404
  -9971258.091 7  -7757485.550 7  22850263.094
 -21040523.022 8 -16383725.763 8  20569100.156
  -3238563.012 7  -2511940.914 6  24080092.844
 -18117857.89947 -14059614.16745  21481516.8054                   21481517.4264
 -14441877.177 8 -11240052.315 7  22003450.563
 -14244206.503 7 -11085724.247 7  21959656.797
  -6190665.30546  -4785707.92444  23213269.8524                   23213272.2704
 -10137322.44947  -7864807.49044  22917600.0474                   22917598.3324
  -6687246.22647  -4214823.35744  23939577.6884                   23939577.3834
 11  8 26  3  9 30.0000000  0 10G18G25G29G12G26G05G15G30G02G21
  -6301263.68646  -4034276.84843  23685624.1804                   23685625.2344
  -9898340.525 7  -7700666.660 7  22864139.297
 -21081832.911 8 -16415915.283 8  20561239.016
  -3143559.030 7  -2437911.876 6  24098171.797
 -18162556.70947 -14094444.38045  21473011.0554                   21473011.8244
 -14362649.984 7 -11178316.850 7  22018527.047
 -14325081.527 7 -11148743.710 7  21944267.063
  -6114204.96246  -4726128.45244  23227820.2504                   23227822.3204
 -10082130.99547  -7821801.18644  22928102.7584                   22928101.1294
  -6747283.54647  -4261605.57744  23928151.6174                   23928152.5394
 11  8 26  3 10  0.0000000  0 10G18G25G29G12G26G05G15G30G02G21
  -6379191.56446  -4094999.77143  23670794.9774                   23670796.0204
  -9825181.593 7  -7643659.707 7  22878061.016
 -21122708.835 8 -16447766.637 8  20553460.453
  -3048592.305 7  -2363911.860 6  24116242.953
 -18206666.57748 -14128815.67445  21464617.0314                   21464617.5474
 -14283243.769 7 -11116441.880 7  22033637.836
 -14405634.888 7 -11211512.526 7  21928938.039
  -6037545.53646  -4666393.84844  23242408.2584                   23242410.4184
 -10026808.81347  -7778693.00044  22938630.2274                   22938628.8794
  -6807352.99147  -4308412.84944  23916720.7814                   23916721.5354
 11  8 26  3 10 30.0000000  0 10G18G25G29G12G26G05G15G30G02G21
  -6456895.55746  -4155548.25443  23656008.1884                   23656008.9184
  -9751785.615 7  -7586468.046 7  22892027.234
 -21163150.592 8 -16479279.662 8  20545764.602
  -2953666.649 7  -2289943.861 6  24134306.688
 -18250185.97047 -14162726.86845  21456335.4534                   21456336.1604
 -14203662.144 8 -11054430.209 7  22048781.758
 -14485864.939 8 -11274029.394 7  21913670.477
  -5960691.55747  -4606507.63844  23257033.3134                   23257034.8404
  -9971357.09247  -7735483.87344  22949182.3054                   22949180.8484
  -6867456.54647  -4355246.69144  23905284.2734                   23905283.9384
 11  8 26  3 11  0.0000000  0 10G18G25G29G12G26G05G15G30G02G21
  -6534373.65047  -4215920.70044  23641264.4844                   23641266.0314
  -9678154.550 7  -7529093.174 7  22906039.016
 -21203154.422 8 -16510451.461 8  20538152.109
  -2858783.827 7  -2216009.242 6  24152362.641
 -18293111.46047 -14196175.28145  21448166.9454                   21448168.1094
 -14123905.954 7 -10992282.536 7  22063958.648
 -14565767.333 7 -11336290.955 7  21898465.492
  -5883644.98847  -4546471.36044  23271694.8134                   23271695.7664
  -9915774.16447  -7692172.52844  22959759.3674                   22959757.8324
  -6927592.97247  -4402106.16844  23893840.4844                   23893840.2934
 11  8 26  3 11 30.0000000  0 10G18G25G29G12G26G05G15G30G02G21
  -6611624.61047  -4276116.15844  23626564.2974                   23626565.5084
  -9604291.276 7  -7471537.379 7  22920094.813
 -21242718.299 8 -16541280.441 8  20530623.203
  -2763946.276 6  -2142109.928 6  24170409.234
 -18335440.23848 -14229158.71645  21440112.0314                   21440113.2584
 -14043977.191 7 -10930000.379 7  22079168.703
 -14645338.975 8 -11398294.783 7  21883323.977
  -5806408.84646  -4486287.34944  23286392.1334                   23286393.8324
  -9860058.93147  -7648758.06444  22970361.5864                   22970360.4264
  -6987762.01147  -4448991.04344  23882389.7974                   23882390.8794
 11  8 26  3 12  0.0000000  0 10G18G25G29G12G26G05G15G30G02G21
  -6688649.08947  -4336135.14144  23611907.4224                   23611908.2774
  -9530200.115 7  -7413804.020 7  22934193.961
 -21281841.410 8 -16571765.964 8  20523178.375
  -2669158.014 6  -2068248.994 6  24188446.797
 -18377171.27148 -14261676.36745  21432170.6564                   21432171.4384
 -13963879.498 7 -10867586.599 7  22094410.883
 -14724578.010 8 -11460039.443 7  21868244.828
  -5728987.70747  -4425959.20944  23301125.2424                   23301126.7814
  -9804212.28447  -7605241.21344  22980988.5634                   22980987.9344
  -7047965.17247  -4495902.51144  23870934.1094                   23870934.2384
 11  8 26  3 12 30.0000000  0 10G18G25G29G12G26G05G15G30G02G21
  -6765445.43547  -4395976.34744  23597292.8834                   23597294.1454
  -9455883.346 7  -7355894.850 7  22948336.297
 -21320520.992 8 -16601905.868 8  20515817.836
  -2574421.155 7  -1994428.106 6  24206474.875
 -18418301.24148 -14293725.67645  21424343.9694                   21424344.6954
 -13883614.459 7 -10805042.402 7  22109684.719
 -14803480.644 8 -11521521.964 7  21853230.258
  -5651383.88346  -4365488.69944  23315892.0784                   23315894.4064
  -9748233.51447  -7561621.41444  22991640.9614                   22991640.0314
  -7108201.61947  -4542839.92943  23859471.4454                   23859471.0744
 11  8 26  3 13  0.0000000  0 10G18G25G29G12G26G05G15G30G02G21
  -6842012.94447  -4455639.24344  23582723.2274                   23582723.9384
  -9381344.112 7  -7297812.319 7  22962520.758
 -21358754.939 7 -16631698.529 8  20508542.000
  -2479738.360 6  -1920649.362 6  24224492.539
 -18458827.70847 -14325304.70545  21416632.3134                   21416633.2934
 -13803184.138 7 -10742369.439 7  22124990.117
 -14882044.006 8 -11582740.122 7  21838280.563
  -5573600.62046  -4304878.32244  23330694.1174                   23330695.8754
  -9692122.02247  -7517898.17444  23002318.6174                   23002318.0864
  -7168471.58447  -4589803.46644  23848002.3594                   23848002.3054
 11  8 26  3 13 30.0000000  0 10G18G25G29G12G26G05G15G30G02G21
  -6918350.85647  -4515123.23244  23568196.3054                   23568196.9694
  -9306585.351 8  -7239558.756 7  22976746.797
 -21396541.038 8 -16661142.225 8  20501351.898
  -2385112.098 6  -1846914.701 6  24242499.328
 -18498747.99548 -14356411.39345  21409035.7974                   21409036.5004
 -13722590.327 7 -10679569.044 7  22140326.703
 -14960264.837 7 -11643691.369 7  21823394.820
  -5495640.96447  -4244130.55944  23345529.7344                   23345531.2154
  -9635877.23447  -7474071.08544  23013022.3834                   23013021.0204
  -7228775.12847  -4636793.14444  23836526.6024                   23836527.1134
 11  8 26  3 14  0.0000000  0 10G18G25G29G12G26G05G15G30G02G21
  -6994458.81747  -4574428.03844  23553713.0634                   23553713.9224
  -9231610.697 7  -7181136.948 7  22991012.945
 -21433877.946 8 -16690235.891 8  20494246.766
  -2290545.569 7  -1773226.560 6  24260494.930
 -18538060.53248 -14387044.51145  21401554.1484                   21401555.3794
 -13641835.883 7 -10616643.512 7  22155693.789
 -15038140.847 8 -11704373.935 7  21808575.805
  -5417508.57847  -4183248.18444  23360397.3594                   23360399.1454
  -9579499.11147  -7430140.09844  23023750.8444                   23023749.4384
  -7289112.14647  -4683808.91544  23825045.3984                   23825044.8204
 11  8 26  3 14 30.0000000  0 10G18G25G29G12G26G05G15G30G02G21
  -7070336.56547  -4633553.45543  23539273.7664                   23539275.1134
  -9156423.444 7  -7122549.483 6  23005321.711
 -21470764.118 8 -16718978.340 8  20487227.578
  -2196042.077 7  -1699587.528 6  24278478.531
 -18576763.18548 -14417202.40045  21394189.2344                   21394190.3984
 -13560923.409 7 -10553594.835 7  22171090.555
 -15115669.505 8 -11764785.840 7  21793822.258
  -5339206.97946  -4122233.95644  23375296.9924                   23375299.2894
  -9522987.57347  -7386105.14044  23034504.1564                   23034503.1484
  -7349483.52747  -4730851.48944  23813556.6334                   23813556.9264
 11  8 26  3 15  0.0000000  0 10G18G25G29G12G26G05G15G30G02G21
  -7145981.25147  -4692497.26543  23524879.0554                   23524880.5434
  -9081024.887 7  -7063797.362 6  23019669.297
 -21507195.637 8 -16747366.527 8  20480294.875
  -2101602.176 7  -1625998.030 6  24296449.352
 -18614851.76448 -14446881.78245  21386941.4774                   21386942.7664
 -13479853.304 7 -10490423.310 7  22186517.313
 -15192845.493 8 -11824922.913 7  21779136.266
  -5260737.54747  -4061088.91844  23390229.7734                   23390231.2034
  -9466340.31847  -7341964.42444  23045284.7274                   23045283.1484
  -7409887.63947  -4777919.53244  23802062.0784                   23802062.2974
 11  8 26  3 15 30.0000000  0 10G18G25G29G12G26G05G15G30G02G21
  -7221394.03047  -4751260.40143  23510528.8594                   23510529.6294
  -9005419.812 7  -7004884.319 6  23034056.555
 -21543172.046 8 -16775400.077 8  20473448.914
  -2007230.433 7  -1552461.690 6  24314408.023
 -18652325.73048 -14476082.24945  21379810.7034                   21379811.6884
 -13398629.125 7 -10427131.748 7  22201974.438
 -15269668.033 8 -11884784.592 7  21764517.195
  -5182105.08847  -3999816.90544  23405193.8754                   23405194.6954
  -9409558.70847  -7297718.99844  23056089.1564                   23056088.3874
  -7470326.16447  -4825014.40244  23790560.5704                   23790560.8444
 11  8 26  3 16  0.0000000  0 10G18G25G29G12G26G05G15G30G02G21
  -7296573.69547  -4809841.85444  23496222.4774                   23496223.7384
  -8929610.795 7  -6945812.365 7  23048481.977
 -21578691.115 8 -16803077.248 8  20466689.516
  -1912928.675 7  -1478979.844 6  24332353.313
 -18689182.27648 -14504801.60246  21372796.6884                   21372797.8594
 -13317252.675 7 -10363721.526 7  22217460.047
 -15346133.581 8 -11944368.108 7  21749966.531
  -5103312.35046  -3938419.95944  23420187.1644                   23420188.4304
  -9352641.81547  -7253368.18044  23066920.1484                   23066918.6484
  -7530798.42347  -4872135.56244  23779053.2584                   23779053.4654
 11  8 26  3 16 30.0000000  0 10G18G25G29G12G26G05G15G30G02G21
  -7371521.09147  -4868242.31243  23481960.3204                   23481960.3954
  -8853602.599 7  -6886585.192 6  23062946.313
 -21613752.466 7 -16830397.765 8  20460017.617
  -1818701.305 7  -1405555.942 6  24350284.195
 -18725420.66147 -14533039.27845  21365901.0084                   21365902.3634
 -13235727.589 7 -10300195.479 7  22232973.609
 -15422240.605 8 -12003672.241 7  21735483.672
  -5024364.24646  -3876901.93943  23435209.3134                   23435212.0904
  -9295590.74647  -7208912.79244  23077776.8444                   23077775.4574
  -7591306.23647  -4919284.41444  23767539.1884                   23767539.3094
 11  8 26  3 17  0.0000000  0 10G18G25G29G12G26G05G15G30G02G21
  -7446232.75947  -4926459.10243  23467742.8674                   23467743.7154
  -8777395.657 7  -6827203.157 6  23077447.359
 -21648351.572 8 -16857358.090 8  20453433.469
  -1724548.418 7  -1332190.121 6  24368200.602
 -18761036.31047 -14560791.71346  21359123.6174                   21359124.7854
 -13154053.421 7 -10236553.253 7  22248516.016
 -15497983.853 8 -12062692.918 7  21721070.406
  -4945261.08146  -3815263.12244  23450262.7274                   23450264.5554
  -9238402.40446  -7164350.44544  23088659.0474                   23088657.9144
  -7651846.79747  -4966458.79844  23756018.8204                   23756017.8794
 11  8 26  3 17 30.0000000  0 10G18G25G29G12G26G05G15G30G02G21
  -7520709.16247  -4984492.56443  23453570.7814                   23453571.0124
  -8700993.916 7  -6767669.348 6  23091986.453
 -21682487.500 8 -16883957.507 8  20446938.063
  -1630473.736 6  -1258885.230 6  24386102.156
 -18796027.80448 -14588057.78345  21352465.1024                   21352465.5434
 -13072233.300 7 -10172797.320 7  22264085.641
 -15573361.262 8 -12121428.517 7  21706726.594
  -4866007.08747  -3753506.75944  23465344.1414                   23465346.3054
  -9181077.38746  -7119681.62544  23099567.2114                   23099566.2344
  -7712421.12247  -5013659.46944  23744491.1884                   23744490.9494
 11  8 26  3 18  0.0000000  0 10G18G25G29G12G26G05G15G30G02G21
  -7594949.86647  -5042342.37943  23439443.4224                   23439443.6604
  -8624400.682 7  -6707986.324 7  23106561.828
 -21716158.437 8 -16910194.584 8  20440530.703
  -1536479.919 6  -1185643.344 6  24403989.797
 -18830393.35948 -14614836.10845  21345925.6094                   21345926.2814
 -12990269.521 7 -10108929.448 7  22279683.141
 -15648369.750 8 -12179876.652 7  21692452.945
  -4786605.62246  -3691635.51644  23480454.0004                   23480456.5394
  -9123615.23147  -7074905.90944  23110502.2504                   23110500.7854
  -7773029.41147  -5060886.66844  23732958.1724                   23732957.2934
 11  8 26  3 18 30.0000000  0 10G18G25G29G12G26G05G15G30G02G21
  -7668955.41047  -5100008.94544  23425359.7894                   23425360.5044
  -8547620.451 7  -6648157.584 7  23121172.422
 -21749363.915 8 -16936068.974 8  20434211.531
  -1442570.839 6  -1112467.496 6  24421858.383
 -18864131.94047 -14641125.88546  21339505.2894                   21339506.4104
 -12908165.484 8 -10044952.268 7  22295307.133
 -15723008.062 8 -12238036.325 7  21678249.352
  -4707061.22147  -3629652.85444  23495591.4304                   23495592.6994
  -9066017.27447  -7030024.39444  23121462.4454                   23121461.7504
  -7833673.13446  -5108141.41144  23721418.1884                   23721418.0984
 11  8 26  3 19  0.0000000  0 10G18G25G29G12G26G05G15G30G02G21
  -7742724.14347  -5157491.00044  23411322.2344                   23411322.9384
  -8470655.210 7  -6588184.675 7  23135818.805
 -21782101.028 8 -16961578.398 8  20427982.125
  -1348747.937 6  -1039358.785 6  24439712.844
 -18897240.53447 -14666924.75945  21333204.8364                   21333205.3404
 -12825922.193 8  -9980866.610 7  22310957.461
 -15797272.388 8 -12295904.591 7  21664117.461
  -4627375.95947  -3567560.44544  23510755.0164                   23510756.5354
  -9008281.68047  -6985035.63344  23132449.6644                   23132448.8834
  -7894350.85047  -5155422.67944  23709871.4694                   23709870.8094
 11  8 26  3 19 30.0000000  0 10G18G25G29G12G26G05G15G30G02G21
  -7816254.29847  -5214787.13944  23397329.8594                   23397330.7894
  -8393506.917 7  -6528069.135 7  23150499.430
 -21814366.804 8 -16986720.546 8  20421841.594
  -1255013.190 6   -966318.793 6  24457549.313
 -18929715.88348 -14692230.19946  21327025.2974                   21327025.7424
 -12743540.749 7  -9916673.251 7  22326633.305
 -15871158.584 8 -12353478.225 7  21650057.492
  -4547551.84446  -3505359.85144  23525945.1644                   23525946.3014
  -8950406.82147  -6939938.35044  23143462.7504                   23143461.8954
  -7955061.71647  -5202729.79444  23698318.3754                   23698317.7704
 11  8 26  3 20  0.0000000  0 10G18G25G29G12G26G05G15G30G02G21
  -7889547.73747  -5271898.83544  23383382.4614                   23383382.5004
  -8316181.370 7  -6467815.466 7  23165213.398
 -21846161.955 8 -17011495.973 8  20415791.438
  -1161371.792 6   -893351.533 6  24475369.688
 -18961558.59048 -14717042.69345  21320965.6024                   21320965.9884
 -12661025.867 8  -9852375.947 7  22342335.664
 -15944666.330 8 -12410756.959 7  21636069.328
  -4467594.75647  -3443055.63244  23541160.4454                   23541161.2114
  -8892395.27147  -6894734.55444  23154501.9924                   23154500.9224
  -8015808.19847  -5250064.62944  23686758.5234                   23686758.9804
 11  8 26  3 20 30.0000000  0 10G18G25G29G12G26G05G15G30G02G21
  -7962601.40147  -5328823.68144  23369480.0474                   23369481.0164
  -8238679.056 7  -6407424.081 7  23179962.391
 -21877481.790 8 -17035901.033 8  20409831.742
  -1067823.537 6   -820456.798 6  24493171.086
 -18992764.18948 -14741358.70846  21315026.8204                   21315027.5784
 -12578377.009 8  -9787974.244 7  22358063.094
 -16017790.345 8 -12467736.666 7  21622154.531
  -4387505.32447  -3380648.29444  23556400.8914                   23556402.5744
  -8834243.99247  -6849421.88744  23165568.2894                   23165566.2154
  -8076587.76547  -5297425.24644  23675192.3984                   23675192.0594
 11  8 26  3 21  0.0000000  0 10G18G25G29G12G26G05G15G30G02G21
  -8035415.58347  -5385561.96744  23355624.8134                   23355624.9694
  -8161004.287 7  -6346898.310 7  23194743.320
 -21908326.305 8 -17059935.704 8  20403962.406
   -974372.158 6   -747637.630 6  24510954.641
 -19023331.79848 -14765177.60045  21309210.6884                   21309210.7544
 -12495597.484 7  -9723470.717 7  22373815.734
 -16090528.706 8 -12524415.871 7  21608312.805
  -4307287.91946  -3318141.19844  23571665.4454                   23571667.1954
  -8775953.65947  -6804000.86344  23176660.2034                   23176658.8014
  -8137401.73247  -5344812.70244  23663620.4224                   23663619.2234
 11  8 26  3 21 30.0000000  0 10G18G25G29G12G26G05G15G30G02G21
  -8107990.73547  -5442113.97144  23341813.9844                   23341814.3914
  -8083160.714 7  -6286241.000 7  23209556.672
 -21938694.085 8 -17083598.896 8  20398183.422
   -881020.734 6   -674896.259 6  24528718.820
 -19053260.16147 -14788498.37445  21303515.0234                   21303516.2854
 -12412689.816 7  -9658867.322 7  22389591.852
 -16162879.495 8 -12580793.090 7  21594544.156
  -4226946.24846  -3255537.32744  23586954.7194                   23586956.0704
  -8717524.40946  -6758471.60244  23187778.8754                   23187777.8134
  -8198250.50747  -5392227.25544  23652040.0554                   23652040.3954
 11  8 26  3 22  0.0000000  0 10G18G25G29G12G26G05G15G30G02G21
  -8180325.26547  -5498478.46544  23328049.4384                   23328049.8014
  -8005150.317 7  -6225453.701 7  23224401.344
 -21968582.350 8 -17106888.435 8  20392495.813
   -787770.556 6   -602233.916 6  24546464.117
 -19082546.13048 -14811318.59145  21297942.0784                   21297943.0354
 -12329655.111 7  -9594164.962 7  22405393.086
 -16234838.649 8 -12636865.112 7  21580851.227
  -4146482.31946  -3192838.17144  23602266.0474                   23602267.8404
  -8658954.60146  -6712832.81644  23198924.5554                   23198923.3984
  -8259132.93446  -5439668.04044  23640454.7664                   23640454.7424
 11  8 26  3 22 30.0000000  0 10G18G25G29G12G26G05G15G30G02G21
  -8252419.21647  -5554655.50144  23314330.1644                   23314330.9494
  -7926977.187 7  -6164539.556 7  23239277.141
 -21997989.947 8 -17129803.434 8  20386899.844
   -694625.771 6   -529653.616 6  24564189.172
 -19111188.66148 -14833637.41945  21292491.1564                   21292492.2074
 -12246496.455 7  -9529366.022 7  22421218.039
 -16306404.214 8 -12692630.449 7  21567232.414
  -4065900.28947  -3130046.98744  23617600.0784                   23617602.4104
  -8600244.99647  -6667085.09844  23210096.6414                   23210095.0704
  -8320049.92446  -5487135.76344  23628862.8134                   23628862.3594
 11  8 26  3 23  0.0000000  0 10G18G25G29G12G26G05G15G30G02G21
  -8324271.05647  -5610643.88144  23300657.2504                   23300657.8914
  -7848643.615 7  -6103500.428 7  23254183.922
 -22026914.352 8 -17152341.921 8  20381395.492
   -601588.011 6   -457156.715 6  24581893.883
 -19139185.31647 -14855452.96045  21287163.9304                   21287164.9774
 -12163214.981 7  -9464471.368 7  22437066.070
 -16377572.748 8 -12748086.415 7  21553689.680
  -3985202.43246  -3067165.56044  23632956.7504                   23632958.9734
  -8541394.26646  -6621227.39044  23221295.3284                   23221294.0594
  -8381000.64646  -5534629.74644  23617263.6884                   23617264.3484
 11  8 26  3 23 30.0000000  0 10G18G25G29G12G26G05G15G30G02G21
  -8395881.53547  -5666444.20544  23287030.1174                   23287030.9964
  -7770153.694 7  -6042339.491 7  23269119.859
 -22055354.913 8 -17174503.398 8  20375983.609
   -508660.738 6   -384745.970 6  24599577.789
 -19166535.26547 -14876764.58445  21281959.4844                   21281959.8244
 -12079813.652 7  -9399483.322 7  22452936.328
 -16448342.375 8 -12803231.541 7  21540222.727
  -3904393.03346  -3004197.21444  23648334.1414                   23648335.5864
  -8482403.10646  -6575260.26644  23232520.9384                   23232519.8834
  -8441985.87047  -5582150.62444  23605659.0004                   23605659.2034
 11  8 26  3 24  0.0000000  0 10G18G25G29G12G26G05G15G30G02G21
  -8467249.54447  -5722055.56344  23273449.3444                   23273449.9774
  -7691510.116 7  -5981058.775 6  23284085.047
 -22083309.871 8 -17196286.468 8  20370663.938
   -415845.766 6   -312422.698 6  24617239.547
 -19193236.19948 -14897570.47945  21276878.3914                   21276879.1914
 -11996294.026 7  -9334403.112 7  22468829.906
 -16518709.852 8 -12858063.300 7  21526832.180
  -3823474.73346  -2941143.99144  23663733.0004                   23663733.5434
  -8423270.74546  -6529183.16544  23243773.7894                   23243772.5744
  -8503004.90247  -5629697.88044  23594047.5944                   23594047.7934
 11  8 26  3 24 30.0000000  0 10G18G25G29G12G26G05G15G30G02G21
  -8538374.16947  -5777477.31144  23259914.0784                   23259915.3914
  -7612715.539 7  -5919660.410 6  23299078.984
 -22110776.804 8 -17217689.262 8  20365437.000
   -323145.370 6   -240188.661 6  24634879.484
 -19219285.92548 -14917868.93945  21271921.0704                   21271922.1174
 -11912657.865 7  -9269232.058 7  22484745.484
 -16588672.110 8 -12912579.294 7  21513518.602
  -3742450.31047  -2878008.11944  23679150.8134                   23679152.7734
  -8363996.32646  -6482995.32644  23255053.5164                   23255052.8284
  -8564057.95747  -5677271.65744  23582429.8834                   23582429.6334
 11  8 26  3 25  0.0000000  0 10G18G25G29G12G26G05G15G30G02G21
  -8609254.82947  -5832708.93344  23246427.0394                   23246426.7774
  -7533773.109 7  -5858146.848 6  23314101.359
 -22137753.845 8 -17238710.327 8  20360303.320
   -230562.285 6   -168046.007 6  24652497.117
 -19244682.87448 -14937658.74145  21267088.1484                   21267089.1644
 -11828907.218 7  -9203971.822 7  22500683.000
 -16658226.229 8 -12966777.280 7  21500282.672
  -3661322.92846  -2814791.97743  23694589.4224                   23694590.0234
  -8304579.48146  -6436696.51944  23266359.9224                   23266358.8914
  -8625144.59747  -5724871.56544  23570805.0944                   23570805.3204
 11  8 26  3 25 30.0000000  0 10G18G25G29G12G26G05G15G30G02G21
  -8679892.22647  -5887750.99344  23232984.3594                   23232985.4574
  -7454686.877 7  -5796521.224 6  23329151.492
 -22164240.699 8 -17259349.431 8  20355263.086
   -138099.770 6    -95997.345 6  24670092.539
 -19269426.32948 -14956939.32145  21262379.6564                   21262380.6024
 -11745045.065 7  -9138624.681 7  22516641.219
 -16727370.803 8 -13020656.138 7  21487124.961
  -3580096.62946  -2751498.77643  23710044.7424                   23710047.1134
  -8245020.57146  -6390287.00844  23277693.1254                   23277692.2734
  -8686265.56447  -5772498.22944  23559174.1334                   23559173.5354
 11  8 26  3 26  0.0000000  0 10G18G25G29G12G26G05G15G30G02G21
  -8750284.43647  -5942602.02544  23219589.1484                   23219589.5474
  -7375458.830 7  -5734785.084 6  23344227.164
 -22190234.406 8 -17279604.254 8  20350316.484
    -45759.551 6    -24043.959 6  24687664.508
 -19293513.35748 -14975708.41445  21257796.1024                   21257796.3134
 -11661072.231 7  -9073191.285 7  22532620.336
 -16796101.612 8 -13074212.560 7  21474046.008
  -3498773.56346  -2688130.15944  23725520.6724                   23725522.5434
  -8185318.50647  -6343765.93944  23289054.5314                   23289053.5314
  -8747419.74747  -5820150.79744  23547537.9534                   23547536.8554
 11  8 26  3 26 30.0000000  0 10G18G25G29G12G26G05G15G30G02G21
  -8820431.43547  -5997261.96044  23206240.4614                   23206241.3134
  -7296092.629 7  -5672941.317 6  23359330.945
 -22215733.893 8 -17299473.979 8  20345463.984
     46455.590 6     47811.918 6  24705212.320
 -19316942.75848 -14993965.05245  21253337.2274                   21253338.3834
 -11576991.344 7  -9007673.735 7  22548621.039
 -16864416.716 8 -13127445.078 7  21461046.383
  -3417357.25946  -2624688.93843  23741013.4774                   23741015.8444
  -8125473.14747  -6297133.20344  23300442.1884                   23300441.6454
  -8808607.65347  -5867829.61644  23535893.4924                   23535892.5744
 11  8 26  3 27  0.0000000  0 10G18G25G29G12G26G05G15G30G02G21
  -8890332.90947  -6051730.58744  23192938.9224                   23192939.3094
  -7216591.278 7  -5610992.225 6  23374458.805
 -22240737.606 8 -17318957.386 8  20340706.094
    138543.205 6    119568.475 5  24722735.648
 -19339713.24847 -15011708.25645  21249004.3444                   21249005.4494
 -11492804.324 7  -8942073.482 7  22564641.211
 -16932313.359 8 -13180351.499 7  21448125.836
  -3335850.90046  -2561177.47043  23756524.1414                   23756525.1564
  -8065484.05847  -6250388.51344  23311857.7664                   23311857.1804
  -8869829.18747  -5915534.63544  23524242.6484                   23524242.5164
 11  8 26  3 27 30.0000000  0 10G18G25G29G12G26G05G15G30G02G21
  -8959989.19247  -6106008.12444  23179684.3054                   23179683.6214
  -7136958.403 7  -5548940.639 6  23389612.906
 -22265244.442 8 -17338053.613 8  20336042.852
    230500.279 5    191223.293 5  24740234.578
 -19361823.47048 -15028936.97145  21244796.5784                   21244797.8444
 -11408513.588 7  -8876392.404 7  22580681.172
 -16999789.264 8 -13232930.112 7  21435285.930
  -3254258.10747  -2497598.67443  23772050.5864                   23772051.7194
  -8005351.50347  -6203531.97744  23323300.8524                   23323299.9224
  -8931084.43647  -5963265.95144  23512586.5234                   23512586.5554
 11  8 26  3 28  0.0000000  0 10G18G25G29G12G26G05G15G30G02G21
  -9029399.11847  -6160093.73744  23166475.6724                   23166475.5004
  -7057196.819 7  -5486788.785 6  23404791.727
 -22289252.384 8 -17356761.095 8  20331473.922
    322324.537 5    262774.635 5  24757708.922
 -19383271.61548 -15045649.78445  21240715.5084                   21240716.6484
 -11324120.889 7  -8810631.855 7  22596740.336
 -17066841.770 7 -13285178.782 7  21422525.578
  -3172581.63846  -2433954.70443  23787592.6804                   23787594.5234
  -7945074.58347  -6156562.98444  23334771.6954                   23334770.1374
  -8992373.26547  -6011023.44944  23500923.8674                   23500923.6564
 11  8 26  3 28 30.0000000  0  9G18G25G29G26G05G15G30G02G21
  -9098561.68247  -6213986.58244  23153314.3284                   23153313.7854
  -6977308.876 7  -5424538.436 6  23419993.305
 -22312759.305 8 -17375078.166 8  20327001.063
 -19404055.69348 -15061845.15446  21236760.6954                   21236761.1054
 -11239627.265 7  -8744792.671 7  22612819.219
 -17133467.168 8 -13337094.621 7  21409847.203
  -3090824.03046  -2370247.47943  23803150.3524                   23803153.2194
  -7884652.48447  -6109480.83044  23346269.5554                   23346268.5004
  -9053694.80747  -6058806.43044  23489255.0944                   23489254.6294
 11  8 26  3 29  0.0000000  0  9G18G25G29G26G05G15G30G02G21
  -9167477.16647  -6267686.87244  23140199.8204                   23140200.1454
  -6897298.542 7  -5362192.768 7  23435218.906
 -22335764.187 8 -17393004.039 8  20322623.367
 -19424174.87048 -15077522.39845  21232931.7114                   21232932.5634
 -11155035.545 7  -8678877.052 7  22628916.023
 -17199663.623 8 -13388676.235 7  21397250.641
  -3008989.20046  -2306480.11644  23818724.1804                   23818725.8244
  -7824085.32147  -6062285.64944  23357794.6254                   23357793.1764
  -9115049.52347  -6106615.24244  23477578.8444                   23477579.2304
 11  8 26  3 29 30.0000000  0  9G18G25G29G26G05G15G30G02G21
  -9236145.05947  -6321194.27844  23127132.3914                   23127132.4574
  -6817168.508 7  -5299753.786 6  23450466.969
 -22358265.340 8 -17410537.385 8  20318341.406
 -19443627.30548 -15092680.11345  21229230.0634                   21229230.7424
 -11070347.424 7  -8612886.333 7  22645031.391
 -17265428.202 8 -13439921.313 7  21384736.469
  -2927079.92347  -2242654.74244  23834310.5474                   23834313.3444
  -7763372.77547  -6014977.18244  23369347.9304                   23369346.4884
  -9176437.08247  -6154449.68444  23465897.4774                   23465897.5474
 11  8 26  3 30  0.0000000  0  9G18G25G29G26G05G15G30G02G21
  -9304564.07847  -6374507.75044  23114113.0474                   23114112.7384
  -6736921.585 7  -5237223.740 7  23465737.563
 -22380260.914 8 -17427676.788 8  20314155.844
 -19462411.54048 -15107317.15845  21225655.6954                   21225656.1764
 -10985564.630 7  -8546821.801 7  22661164.344
 -17330758.033 8 -13490827.647 7  21372304.500
  -2845098.98847  -2178773.47944  23849910.9454                   23849913.3634
  -7702514.24747  -5967554.96944  23380929.1564                   23380927.8404
  -9237857.05547  -6202309.32844  23454209.5704                   23454209.2114
 11  8 26  3 30 30.0000000  0  9G18G25G29G26G05G15G30G02G21
  -9372734.89147  -6427627.79944  23101140.3834                   23101140.7774
  -6656561.798 7  -5174605.742 6  23481029.680
 -22401750.461 8 -17444421.889 8  20310066.672
 -19480526.68548 -15121432.83945  21222208.6024                   21222209.0944
 -10900689.912 7  -8480685.663 7  22677316.336
 -17395651.628 7 -13541394.055 7  21359955.438
  -2763050.34547  -2114839.49744  23865524.1804                   23865526.7704
  -7641509.91447  -5920019.16444  23392537.6024                   23392536.5434
  -9299309.95347  -6250194.68844  23442515.2734                   23442514.9414
 11  8 26  3 31  0.0000000  0  9G18G25G29G26G05G15G30G02G21
  -9440657.26247  -6480554.27144  23088215.0004                   23088215.3164
  -6576091.761 7  -5111901.828 7  23496342.914
 -22422732.219 8 -17460771.296 8  20306073.648
 -19497971.23748 -15135025.96645  21218888.7424                   21218889.5944
 -10815724.947 7  -8414479.206 7  22693484.430
 -17460106.314 8 -13591618.450 7  21347689.781
  -2680936.66647  -2050854.85844  23881150.5004                   23881152.0354
  -7580359.14747  -5872369.22443  23404174.1804                   23404172.8444
  -9360795.35947  -6298105.35344  23430814.9454                   23430814.5164
 11  8 26  3 31 30.0000000  0  9G18G25G29G26G05G15G30G02G21
  -9508330.34547  -6533286.48344  23075336.9534                   23075336.9884
  -6495514.503 7  -5049114.399 7  23511675.398
 -22443204.471 8 -17476723.689 8  20302178.258
 -19514744.04047 -15148095.65645  21215696.8754                   21215697.5824
 -10730671.514 7  -8348203.808 7  22709669.445
 -17524118.579 8 -13641498.104 7  21335508.906
  -2598761.13146  -1986821.98444  23896787.6954                   23896789.1254
  -7519061.58546  -5824604.89944  23415839.0704                   23415838.1214
  -9422313.01347  -6346041.16844  23419108.9924                   23419107.6884
 11  8 26  3 32  0.0000000  0  9G18G25G29G26G05G15G30G02G21
  -9575754.01047  -6585824.35544  23062506.9924                   23062506.8634
  -6414833.391 7  -4986246.012 7  23527029.289
 -22463165.934 8 -17492278.068 8  20298379.531
 -19530843.75048 -15160640.86745  21212633.6414                   21212634.0164
 -10645531.494 7  -8281860.932 7  22725871.969
 -17587686.639 8 -13691031.613 7  21323411.820
  -2516526.97846  -1922743.46043  23912436.8134                   23912437.8674
  -7457617.00546  -5776726.04244  23427531.9144                   23427530.8984
  -9483862.71547  -6394001.92344  23407396.2814                   23407395.8484
 11  8 26  3 32 30.0000000  0  9G18G25G29G26G05G15G30G02G21
  -9642927.09047  -6638166.95644  23049725.0554                   23049724.2814
  -6334050.668 7  -4923298.482 7  23542401.383
 -22482614.363 8 -17507432.679 8  20294678.508
 -19546268.54148 -15172660.15845  21209698.2504                   21209698.2664
 -10560306.120 7  -8215451.577 7  22742088.813
 -17650806.978 8 -13740216.260 7  21311400.703
  -2434236.54846  -1858621.04143  23928095.6024                   23928097.3134
  -7396024.31347  -5728731.70843  23439252.1644                   23439250.3444
  -9545443.93647  -6441987.27344  23395677.1564                   23395677.0634
 11  8 26  3 33  0.0000000  0  9G18G25G29G26G05G15G30G02G21
  -9709849.22847  -6690314.02644  23036989.5944                   23036989.5084
  -6253169.457 7  -4860274.170 7  23557792.492
 -22501548.671 8 -17522186.674 8  20291075.430
 -19561017.08148 -15184152.49445  21206891.7734                   21206892.1254
 -10474997.294 7  -8148977.196 7  22758322.805
 -17713477.295 8 -13789050.245 7  21299474.852
  -2351892.86446  -1794457.18443  23943764.9304                   23943767.1684
  -7334283.43646  -5680621.97043  23451001.3364                   23450999.4304
  -9607056.47847  -6489996.99944  23383952.7734                   23383952.3874
 11  8 26  3 33 30.0000000  0  9G18G25G29G26G05G15G30G02G21
  -9776520.94347  -6742265.94044  23024302.5004                   23024302.4804
  -6172193.714 7  -4797176.237 7  23573202.172
 -22519968.321 8 -17536539.643 8  20287570.406
 -19575089.03748 -15195117.64845  21204214.0164                   21204214.3914
 -10389608.155 7  -8082440.210 7  22774571.719
 -17775695.805 8 -13837532.162 7  21287635.039
  -2269500.02146  -1730255.01444  23959444.5084                   23959446.3914
  -7272394.83346  -5632397.09543  23462778.1024                   23462777.3954
  -9668700.85647  -6538031.53944  23372222.4694                   23372222.9614
 11  8 26  3 34  0.0000000  0  9G18G25G29G26G05G15G30G02G21
  -9842941.98447  -6794022.54644  23011662.9614                   23011662.6094
  -6091126.491 7  -4734007.013 7  23588628.477
 -22537871.853 8 -17550490.438 8  20284163.406
 -19588483.29648 -15205554.70845  21201665.3204                   21201665.6994
 -10304140.433 7  -8015841.983 7  22790836.578
 -17837459.848 8 -13885659.958 7  21275882.148
  -2187060.99946  -1666016.83743  23975131.1804                   23975133.6564
  -7210358.05546  -5584056.77144  23474583.7734                   23474582.3324
  -9730376.83647  -6586090.71444  23360485.7734                   23360485.5824
 11  8 26  3 34 30.0000000  0  9G18G25G29G26G05G15G30G02G21
  -9909112.07647  -6845583.61544  22999071.1094                   22999071.1524
  -6009970.929 7  -4670768.947 6  23604071.797
 -22555257.965 8 -17564038.056 8  20280854.781
 -19601198.82948 -15215462.89345  21199245.3054                   21199245.6214
 -10218595.675 7  -7949183.736 6  22807114.922
 -17898767.209 8 -13933431.890 7  21264215.391
  -2104578.89546  -1601745.12943  23990827.3594                   23990829.5164
  -7148172.60546  -5535600.55744  23486416.9534                   23486415.7584
  -9792084.31447  -6634174.43244  23348743.3444                   23348742.8244
 11  8 26  3 35  0.0000000  0  9G18G25G29G26G05G15G30G02G21
  -9975030.40847  -6896948.48844  22986526.8834                   22986527.6294
  -5928729.518 7  -4607463.980 6  23619531.055
 -22572124.858 8 -17577181.094 8  20277644.781
 -19613234.13348 -15224841.03145  21196954.7894                   21196955.2734
 -10132975.324 7  -7882466.587 7  22823408.008
 -17959615.017 8 -13980845.736 7  21252636.758
  -2022056.38146  -1537441.93743  24006530.7664                   24006533.4844
  -7085837.87046  -5487028.06343  23498278.5084                   23498277.6724
  -9853822.55347  -6682282.08744  23336995.5784                   23336994.5474
 11  8 26  3 35 30.0000000  0  9G18G25G29G26G05G15G30G02G21
 -10040696.64747  -6948116.92444  22974030.9454                   22974031.3674
  -5847405.517 7  -4544094.674 6  23635006.094
 -22588471.345 8 -17589918.610 8  20274534.141
 -19624588.20048 -15233688.33645  21194794.5554                   21194794.6564
 -10047281.399 7  -7815692.070 7  22839714.953
 -18020000.839 8 -14027899.588 7  21241145.430
  -1939496.48346  -1473109.58444  24022241.7894                   24022244.4844
  -7023353.77446  -5438339.16644  23510169.5784                   23510168.5704
  -9915591.55647  -6730413.75944  23325241.0474                   23325240.7114
 11  8 26  3 36  0.0000000  0  9G18G25G29G26G05G15G30G02G21
 -10106110.61747  -6999088.80244  22961583.2894                   22961583.3484
  -5766001.962 6  -4480663.386 6  23650497.000
 -22604296.167 8 -17602249.643 8  20271523.055
 -19635260.06448 -15242004.06145  21192763.5394                   21192764.2114
  -9961515.837 7  -7748861.786 7  22856035.625
 -18079922.444 8 -14074591.719 7  21229742.633
  -1856902.31646  -1408750.56443  24037958.8364                   24037961.8164
  -6960719.90846  -5389533.58243  23522088.4224                   23522086.9144
  -9977390.72947  -6778568.89644  23313480.1644                   23313480.0784
 11  8 26  3 36 30.0000000  0  9G18G25G29G26G05G15G30G02G21
 -10171272.25147  -7049864.02844  22949183.3364                   22949184.1604
  -5684521.956 7  -4417172.474 6  23666002.406
 -22619597.856 8 -17614173.032 8  20268611.148
 -19645248.89248 -15249787.53445  21190862.8984                   21190863.2464
  -9875680.418 7  -7681977.066 7  22872369.633
 -18139377.258 8 -14120920.121 7  21218428.352
  -1774277.08446  -1344367.27743  24053682.1884                   24053684.4844
  -6897935.91546  -5340611.01143  23534034.9774                   23534034.0904
 -10039219.86947  -6826747.39344  23301714.6644                   23301714.9614
 11  8 26  3 37  0.0000000  0  9G18G25G29G26G05G15G30G02G21
 -10236180.85047  -7100442.13444  22936831.5314                   22936831.6914
  -5602968.207 7  -4353624.159 6  23681521.945
 -22634375.176 8 -17625687.828 8  20265799.289
 -19654553.30548 -15257037.71345  21189092.0784                   21189092.4844
  -9789776.668 7  -7615039.085 7  22888716.164
 -18198362.637 8 -14166882.720 7  21207204.375
  -1691623.33546  -1279961.80543  24069410.8054                   24069412.7504
  -6835001.20746  -5291570.97544  23546011.5234                   23546011.0664
 -10101078.67547  -6874949.01644  23289943.2274                   23289943.3914
 11  8 26  3 37 30.0000000  0  9G18G25G29G26G05G15G30G02G21
 -10300836.97947  -7150823.45144  22924527.7274                   22924528.3594
  -5521344.901 7  -4290021.574 6  23697054.289
 -22648628.027 8 -17636793.947 8  20263087.219
 -19663173.47348 -15263754.70745  21187451.6724                   21187452.3324
  -9703807.566 7  -7548050.195 7  22905075.773
 -18256877.296 8 -14212478.532 7  21196069.070
  -1608945.37947  -1215537.47343  24085144.3834                   24085145.7624
  -6771916.64946  -5242414.20744  23558016.0314                   23558014.9774
 -10162967.54947  -6923174.07544  23278166.9614                   23278166.1994
 11  8 26  3 38  0.0000000  0  9G18G25G29G26G05G15G30G02G21
 -10365239.23147  -7201006.97344  22912272.0864                   22912273.1844
  -5439653.575 7  -4226366.036 6  23712600.281
 -22662353.546 8 -17647489.163 8  20260475.266
 -19671107.10548 -15269936.74045  21185941.9774                   21185942.7814
  -9617773.296 7  -7481010.528 6  22921447.211
 -18314917.468 8 -14257704.600 7  21185024.109
  -1526244.48546  -1151095.25043  24100881.7584                   24100882.9844
  -6708680.38946  -5193139.20844  23570049.3284                   23570048.9184
 -10224885.36147  -6971421.67244  23266383.7894                   23266383.0594
 11  8 26  3 38 30.0000000  0  9G18G25G29G26G05G15G30G02G21
 -10429388.61947  -7250993.47644  22900065.7344                   22900065.3204
  -5357898.758 7  -4162660.986 6  23728157.219
 -22675552.011 8 -17657773.678 8  20257963.672
 -19678354.79948 -15275584.28145  21184562.8364                   21184563.8054
  -9531677.230 7  -7413922.717 7  22937830.766
 -18372482.115 8 -14302560.140 7  21174070.422
  -1443525.45846  -1086638.88543  24116621.9774                   24116623.9574
  -6645293.62847  -5143746.94144  23582111.2114                   23582110.6254
 -10286832.88447  -7019692.41244  23254596.2114                   23254594.1844
 11  8 26  3 39  0.0000000  0  9G18G25G29G26G05G15G30G02G21
 -10493284.15647  -7300782.15644  22887906.6884                   22887906.3554
  -5276082.579 7  -4098908.154 6  23743727.180
 -22688221.643 8 -17667646.119 8  20255552.844
 -19684914.97147 -15280696.09145  21183314.4224                   21183315.1564
  -9445520.193 7  -7346787.354 6  22954225.820
 -18429568.472 8 -14347042.984 7  21163207.352
  -1360790.26547  -1022169.93643  24132366.1564                   24132368.1604
  -6581755.17247  -5094236.45544  23594201.8834                   23594201.8834
 -10348808.82147  -7067985.31344  23242802.3754                   23242801.1764
 11  8 26  3 39 30.0000000  0  9G18G25G29G26G05G15G30G02G21
 -10556925.74547  -7350372.93644  22875795.6094                   22875795.3714
  -5194207.973 7  -4035109.819 6  23759306.883
 -22700360.944 8 -17677105.313 8  20253242.586
 -19690786.68547 -15285271.43445  21182197.1804                   21182198.1134
  -9359303.717 7  -7279605.677 7  22970633.156
 -18486173.484 8 -14391150.747 7  21152435.445
  -1278041.81247   -957690.63443  24148113.1484                   24148114.4064
  -6518064.62347  -5044607.49144  23606322.7034                   23606321.6214
 -10410813.39747  -7116300.51244  23231002.9614                   23231002.3204
 11  8 26  3 40  0.0000000  0  9G18G25G29G26G05G15G30G02G21
 -10620312.79747  -7399765.41444  22863733.3524                   22863732.9264
  -5112277.843 7  -3971268.145 6  23774897.742
 -22711968.768 8 -17686150.370 8  20251033.883
 -19695968.89648 -15289309.50246  21181211.1804                   21181211.8204
  -9273029.833 7  -7212379.284 6  22987050.242
 -18542295.057 8 -14434881.830 7  21141756.063
  -1195283.09447   -893203.35843  24163861.3364                   24163862.8634
  -6454221.37046  -4994859.52544  23618471.4774                   23618470.3594
 -10472845.70947  -7164637.31044  23219198.2424                   23219198.1374
 11  8 26  3 40 30.0000000  0  9G18G25G29G26G05G15G30G02G21
 -10683445.41847  -7448959.60444  22851719.8674                   22851719.3874
  -5030295.576 7  -3907385.890 6  23790497.695
 -22723044.403 8 -17694780.735 8  20248925.992
 -19700461.60847 -15292810.30645  21180356.0634                   21180356.6134
  -9186700.275 7  -7145109.515 7  23003477.805
 -18597931.352 8 -14478234.748 7  21131168.664
  -1112517.31446   -828710.56743  24179611.2424                   24179613.1134
  -6390225.57947  -4944992.67944  23630649.5314                   23630648.5124
 -10534905.87947  -7212995.86344  23207388.6484                   23207388.5824
 11  8 26  3 41  0.0000000  0  9G18G25G29G26G05G15G30G02G21
 -10746323.35747  -7497955.36744  22839754.2344                   22839753.9414
  -4948264.024 7  -3843465.229 6  23806108.672
 -22733586.509 8 -17702995.360 8  20246919.852
 -19704263.68347 -15295772.94145  21179632.8054                   21179633.4844
  -9100316.794 7  -7077797.703 7  23019916.117
 -18653079.792 8 -14521207.533 7  21120674.172
  -1029747.31446   -764214.51643  24195362.0474                   24195363.4224
  -6326077.25846  -4895006.99744  23642856.1174                   23642855.9064
 -10596993.24047  -7261375.55844  23195574.0394                   23195573.8874
 11  8 26  3 41 30.0000000  0  9G18G25G29G26G05G15G30G02G21
 -10808947.12747  -7546753.06644  22827837.8204                   22827837.1994
  -4866187.008 7  -3779509.159 6  23821726.609
 -22743594.831 8 -17710794.049 8  20245015.477
 -19707375.65947 -15298197.82545  21179040.0394                   21179040.7074
  -9013882.009 7  -7010445.943 6  23036363.898
 -18707739.113 8 -14563799.191 7  21110272.766
   -946977.06546   -699718.22543  24211112.6484                   24211114.8324
  -6261776.67646  -4844902.67944  23655092.4774                   23655091.8054
 -10659108.48147  -7309777.01245  23183754.2344                   23183753.3554
 11  8 26  3 42  0.0000000  0  9G18G25G29G26G05G15G30G02G21
 -10871314.88747  -7595351.26744  22815969.2664                   22815969.2344
  -4784065.846 7  -3715518.677 6  23837353.953
 -22753066.216 8 -17718174.346 8  20243212.828
 -19709795.05347 -15300083.06745  21178579.9844                   21178580.6804
  -8927395.786 7  -6943054.091 7  23052821.789
 -18761905.272 8 -14606006.558 7  21099965.391
   -864207.71646   -635222.65943  24226862.5004                   24226864.5234
  -6197321.79146  -4794678.12444  23667357.2504                   23667357.6764
 -10721249.74947  -7358198.72444  23171928.8204                   23171928.4884
 11  8 26  3 42 30.0000000  0  9G18G25G29G26G05G15G30G02G21
 -10933428.05147  -7643751.10144  22804149.4694                   22804149.3134
  -4701905.063 7  -3651497.351 6  23852988.492
 -22762002.025 8 -17725137.303 8  20241512.797
 -19711522.87648 -15301429.40545  21178250.8284                   21178251.8404
  -8840861.350 7  -6875624.692 6  23069289.047
 -18815577.830 8 -14647829.294 7  21089752.016
   -781443.81346   -570731.31143  24242612.3134                   24242613.3324
  -6132714.05646  -4744334.43644  23679652.1884                   23679651.1644
 -10783418.08647  -7406641.54144  23160098.0634                   23160097.8404
 11  8 26  3 43  0.0000000  0  9G18G25G29G26G05G15G30G02G21
 -10995285.94047  -7691951.99344  22792377.9454                   22792377.9144
  -4619707.173 7  -3587447.111 6  23868631.320
 -22770400.565 8 -17731681.619 8  20239914.313
 -19712558.09247 -15302236.03846  21178053.9774                   21178054.7974
  -8754280.147 7  -6808158.812 7  23085765.117
 -18868753.930 8 -14689265.193 7  21079632.508
   -698687.64346   -506246.04243  24258359.9844                   24258361.9884
  -6067952.51646  -4693870.92644  23691975.7894                   23691975.2154
 -10845612.25847  -7455104.49044  23148263.3134                   23148262.1684
 11  8 26  3 43 30.0000000  0  9G18G25G29G26G05G15G30G02G21
 -11056888.80547  -7739954.16444  22780655.3284                   22780655.2074
  -4537475.449 7  -3523370.460 6  23884279.102
 -22778260.684 8 -17737806.383 8  20238418.750
 -19712900.29647 -15302502.68145  21177988.5554                   21177989.7234
  -8667653.995 7  -6740657.889 6  23102249.359
 -18921431.925 8 -14730312.967 7  21069608.125
   -615942.71646   -441769.51043  24274106.4064                   24274107.3244
  -6003037.19146  -4643287.59144  23704329.0164                   23704328.4654
 -10907832.50447  -7503587.76844  23136422.9224                   23136422.1134
 11  8 26  3 44  0.0000000  0  9G18G25G29G26G05G15G30G02G21
 -11118235.64447  -7787756.87544  22768981.1484                   22768981.3554
  -4455212.048 7  -3459269.168 6  23899932.805
 -22785580.822 8 -17743510.375 8  20237025.570
 -19712548.64447 -15302228.64946  21178055.5314                   21178056.5594
  -8580983.794 7  -6673122.686 6  23118742.195
 -18973608.586 8 -14770970.070 7  21059679.211
   -533211.04746   -377303.29143  24289849.5704                   24289850.8554
  -5937967.07347  -4592583.57344  23716712.1644                   23716709.9614
 -10970077.52947  -7552090.32944  23124578.0394                   23124576.6644
 11  8 26  3 44 30.0000000  0  9G18G25G29G26G05G15G30G02G21
 -11179326.61847  -7835360.15944  22757356.3674                   22757357.0124
  -4372920.100 7  -3395145.616 6  23915592.523
 -22792360.332 8 -17748793.110 8  20235735.688
 -19711502.68847 -15301413.59445  21178254.3444                   21178255.8054
  -8494271.261 7  -6605554.479 6  23135243.328
 -19025282.191 8 -14811235.194 7  21049846.086
   -450495.72946   -312849.84043  24305589.2114                   24305591.4574
  -5872742.07346  -4541758.91444  23729123.1954                   23729123.1994
 -11032347.42147  -7600612.28144  23112728.9454                   23112727.1604
 11  8 26  3 45  0.0000000  0  9G18G25G29G26G05G15G30G02G21
 -11240161.96747  -7882764.29644  22745779.9534                   22745779.8874
  -4290603.424 7  -3331002.796 6  23931257.500
 -22798598.878 8 -17753654.315 8  20234548.508
 -19709762.88947 -15300057.89645  21178585.7814                   21178586.0984
  -8407519.121 7  -6537955.390 6  23151750.867
 -19076451.243 8 -14851107.149 7  21040109.258
   -367800.48446   -248412.01343  24321325.0474                   24321328.2274
  -5807362.64846  -4490813.92343  23741565.0864                   23741563.0904
 -11094642.16547  -7649153.62244  23100874.3284                   23100873.4414
 11  8 26  3 45 30.0000000  0  9G18G25G29G26G05G15G30G02G21
 -11300741.18147  -7929968.82744  22734252.0314                   22734251.6024
  -4208264.097 6  -3266842.327 6  23946926.250
 -22804295.204 8 -17758093.008 8  20233464.602
 -19707327.58348 -15298160.23845  21179048.9144                   21179050.1564
  -8320727.769 7  -6470325.791 6  23168267.188
 -19127112.771 8 -14890583.642 7  21030468.469
   -285127.43846   -183991.55043  24337058.3204                   24337060.4264
  -5741827.71546  -4439747.80643  23754035.8754                   23754034.5704
 -11156960.53647  -7697713.34944  23089015.8914                   23089014.8204
 11  8 26  3 46  0.0000000  0  9G18G25G29G26G05G15G30G02G21
 -11361064.45047  -7976973.92844  22722772.9454                   22722772.8984
  -4125905.462 7  -3202666.831 6  23962598.422
 -22809448.129 8 -17762108.268 8  20232484.055
 -19704197.30347 -15295721.04145  21179644.6484                   21179645.3594
  -8233899.476 7  -6402667.358 7  23184789.867
 -19177265.224 8 -14929663.448 7  21020924.852
   -202479.79146   -119590.80943  24352785.9384                   24352787.8364
  -5676137.62446  -4388560.70643  23766536.2974                   23766534.7734
 -11219302.77447  -7746291.64244  23077152.1094                   23077151.6374
 11  8 26  3 46 30.0000000  0  9G18G25G29G26G05G15G30G02G21
 -11421131.98847  -8023779.75045  22711342.5474                   22711342.2034
  -4043530.843 7  -3138478.829 6  23978273.633
 -22814057.562 8 -17765700.034 8  20231606.883
 -19700372.07348 -15292740.31845  21180372.7584                   21180373.4804
  -8147036.177 7  -6334981.710 7  23201320.039
 -19226906.958 8 -14968345.295 7  21011478.227
   -119860.83846    -55212.46543  24368507.4614                   24368509.5354
  -5610292.21746  -4337252.62744  23779066.3754                   23779064.9534
 -11281668.65247  -7794888.37145  23065284.1414                   23065284.1564
 11  8 26  3 47  0.0000000  0  9G18G25G29G26G05G15G30G02G21
 -11480943.73247  -8070386.27544  22699960.5234                   22699960.2584
  -3961143.234 7  -3074280.712 6  23993951.523
 -22818122.974 8 -17768867.888 8  20230833.180
 -19695851.57048 -15289217.83845  21181232.7034                   21181233.7074
  -8060139.616 7  -6267270.088 7  23217855.352
 -19276036.210 8 -15006627.808 7  21002129.078
    -37273.57446      9141.21643  24384223.8054                   24384226.1644
  -5544291.21147  -4285823.29243  23791626.3134                   23791624.6024
 -11344057.51347  -7843503.00545  23053412.3444                   23053411.8594
 11  8 26  3 47 30.0000000  0  9G18G25G29G26G05G15G30G02G21
 -11540499.48147  -8116793.30945  22688627.2274                   22688626.5664
  -3878745.332 7  -3010074.606 6  24009632.000
 -22821642.904 8 -17771610.698 8  20230163.531
 -19690635.48747 -15285153.34046  21182225.4144                   21182226.2304
  -7973211.067 7  -6199533.552 7  23234396.953
 -19324650.289 8 -15044508.874 7  20992878.086
     45279.37246     73468.12843  24399933.0784                   24399935.0314
  -5478134.51947  -4234272.61143  23804215.0004                   23804213.9344
 -11406469.03247  -7892135.31345  23041535.5474                   23041535.3244
 11  8 26  3 48  0.0000000  0  9G18G25G29G26G05G15G30G02G21
 -11599798.71947  -8163000.47245  22677343.4844                   22677343.2504
  -3796339.928 7  -2945862.623 6  24025312.664
 -22824616.087 8 -17773927.465 8  20229597.797
 -19684723.25748 -15280546.38445  21183350.5864                   21183351.2464
  -7886251.917 7  -6131773.194 7  23250945.016
 -19372747.340 8 -15081987.059 7  20983725.938
    127795.33246    137766.25143  24415635.7274                   24415637.2974
  -5411821.64647  -4182600.24743  23816833.8524                   23816831.9694
 -11468901.83547  -7940784.19645  23029654.8134                   23029653.9964
 11  8 26  3 48 30.0000000  0  9G18G25G29G26G05G15G30G02G21
 -11658841.37747  -8209007.68545  22666107.5944                   22666106.9414
  -3713929.394 7  -2881646.667 6  24040994.789
 -22827041.945 8 -17775817.740 8  20229136.078
 -19678114.42448 -15275396.63445  21184608.7504                   21184608.9024
  -7799263.343 7  -6063989.881 6  23267498.242
 -19420324.768 8 -15119060.359 7  20974671.867
    210271.74546    202033.51643  24431329.8834                   24431332.4734
  -5345351.92346  -4130805.69443  23829482.8054                   23829481.7304
 -11531355.76647  -7989449.56545  23017770.4144                   23017769.0864
 11  8 26  3 49  0.0000000  0  9G18G25G29G26G05G15G30G02G21
 -11717627.10047  -8254814.71645  22654920.9844                   22654920.2734
  -3631516.821 7  -2817429.095 6  24056677.453
 -22828919.593 8 -17777280.850 8  20228778.516
 -19670808.98748 -15269704.07745  21185998.3134                   21185999.1294
  -7712247.196 7  -5996185.103 7  23284057.078
 -19467380.703 8 -15155727.296 7  20965717.781
    292705.80546    266267.83643  24447017.2664                   24447019.6024
  -5278725.31446  -4078888.83543  23842161.3674                   23842159.9614
 -11593830.78847  -8038131.36145  23005881.7584                   23005879.9184
 11  8 26  3 49 30.0000000  0  9G18G25G29G26G05G15G30G02G21
 -11776157.12347  -8300422.47745  22643782.8914                   22643782.9964
  -3549106.354 7  -2753213.169 6  24072359.461
 -22830249.691 8 -17778317.299 8  20228525.672
 -19662808.00348 -15263469.52645  21187521.0944                   21187521.2304
  -7625206.168 7  -5928360.955 6  23300620.430
 -19513914.397 8 -15191987.301 7  20956862.336
    375093.33846    330465.91543  24462693.7894                   24462696.4494
  -5211942.67846  -4026850.43643  23854869.5234                   23854869.1484
 -11656326.92747  -8086829.62144  22993989.0784                   22993987.1604
 11  8 26  3 50  0.0000000  0  9G18G25G29G26G05G15G30G02G21
 -11834429.99247  -8345829.88644  22632694.0314                   22632693.4304
  -3466699.400 7  -2688999.979 6  24088041.141
 -22831029.896 8 -17778925.252 8  20228377.227
 -19654109.99148 -15256691.83645  21189176.2274                   21189176.0474
  -7538140.253 7  -5860517.376 6  23317188.977
 -19559922.798 8 -15227837.970 7  20948107.227
    457433.09746    394626.73743  24478362.8204                   24478365.6454
  -5145002.21846  -3974689.04243  23867607.9534                   23867606.7664
 -11718842.40147  -8135542.93744  22982092.1644                   22982090.4964
 11  8 26  3 50 30.0000000  0  9G18G25G29G26G05G15G30G02G21
 -11892446.05047  -8391037.16345  22621654.0004                   22621653.3794
  -3384299.258 7  -2624792.105 6  24103721.523
 -22831259.840 8 -17779104.431 8  20228333.586
 -19644715.49248 -15249371.43845  21190963.6564                   21190963.7504
  -7451051.374 7  -5792655.922 6  23333760.930
 -19605404.436 8 -15263278.182 7  20939452.508
    539721.82546    458747.75843  24494021.5314                   24494025.1644
  -5077904.21746  -3922404.87443  23880376.1564                   23880374.7504
 -11781377.15847  -8184271.27645  22970192.4774                   22970191.1804
 11  8 26  3 51  0.0000000  0  9G18G25G29G26G05G15G30G02G21
 -11950205.73847  -8436044.65644  22610662.3594                   22610662.2234
  -3301909.012 7  -2560591.961 6  24119400.664
 -22830939.128 8 -17778854.534 8  20228394.453
 -19634624.62748 -15241508.41745  21192884.4614                   21192884.3444
  -7363941.298 7  -5724777.943 6  23350337.539
 -19650357.003 8 -15298306.122 7  20930898.328
    621956.42946    522826.59642  24509670.0784                   24509673.0824
  -5010648.77547  -3869998.07943  23893174.6564                   23893173.2194
 -11843931.27647  -8233014.70845  22958288.7424                   22958288.0234
 11  8 26  3 51 30.0000000  0  9G18G25G29G26G05G15G30G02G21
 -12007709.13147  -8480852.47844  22599719.7974                   22599719.1684
  -3219531.796 6  -2496401.951 6  24135074.883
 -22830067.282 8 -17778175.178 8  20228560.242
 -19623837.41848 -15233102.78745  21194937.0704                   21194936.8484
  -7276811.712 7  -5656884.756 6  23366917.664
 -19694779.418 8 -15332920.976 7  20922445.031
    704133.83446    586860.91842  24525307.9774                   24525311.1454
  -4943235.86046  -3817468.54543  23906002.9694                   23906001.5664
 -11906504.11747  -8281772.73745  22946381.8984                   22946380.8714
 11  8 26  3 52  0.0000000  0  9G18G25G29G26G05G15G30G02G21
 -12064956.49547  -8525460.77844  22588825.9304                   22588825.5784
  -3137170.599 7  -2432224.448 6  24150748.242
 -22828644.065 8 -17777066.181 8  20228831.266
 -19612354.39448 -15224154.95845  21197122.1644                   21197122.0314
  -7189664.428 7  -5588977.803 6  23383501.719
 -19738669.997 8 -15367121.392 7  20914092.555
    786251.15446    650848.43043  24540934.3754                   24540937.7234
  -4875665.32947  -3764816.20843  23918861.3134                   23918860.7974
 -11969095.05947  -8330544.87645  22934471.0084                   22934470.3524
 11  8 26  3 52 30.0000000  0  9G18G25G29G26G05G15G30G02G21
 -12121947.33547  -8569869.19345  22577980.8674                   22577980.5864
  -3054827.964 6  -2368061.401 6  24166418.469
 -22826668.336 8 -17775526.657 8  20229207.336
 -19600175.26448 -15214664.72045  21199439.5394                   21199439.9104
  -7102500.542 7  -5521057.876 6  23400087.367
 -19782026.427 8 -15400905.610 7  20905842.453
    868306.03045    714787.25542  24556549.3984                   24556552.6604
  -4807936.78046  -3712040.72643  23931748.9384                   23931748.4104
 -12031703.32847  -8379330.53645  22922557.2194                   22922556.9844
 11  8 26  3 53  0.0000000  0  9G18G25G29G26G05G15G30G02G21
 -12178681.65747  -8614077.72544  22567184.8594                   22567184.2274
  -2972506.758 6  -2303915.072 6  24182081.906
 -22824139.633 8 -17773556.235 8  20229688.391
 -19587300.21448 -15204632.20545  21201889.6644                   21201890.1564
  -7015321.522 7  -5453126.202 6  23416676.984
 -19824846.895 8 -15434272.178 7  20897693.836
    950295.27245    778674.94042  24572151.3284                   24572154.7854
  -4740050.15547  -3659142.08643  23944669.2114                   23944666.6414
 -12094328.42547  -8428129.27545  22910639.8284                   22910640.0204
 11  8 26  3 53 30.0000000  0  9G18G25G29G26G05G15G30G02G21
 -12235159.18947  -8658086.15845  22556437.9844                   22556437.1094
  -2890209.770 6  -2239787.616 6  24197744.016
 -22821057.024 8 -17771154.212 8  20230274.945
 -19573729.30048 -15194057.43845  21204471.9384                   21204472.2074
  -6928128.679 7  -5385183.740 6  23433269.961
 -19867129.756 8 -15467219.844 7  20889647.648
   1032216.56446    842509.60842  24587740.6094                   24587743.2504
  -4672005.16746  -3606120.03143  23957616.1174                   23957615.5314
 -12156969.53347  -8476940.51345  22898719.2894                   22898718.4964
 11  8 26  3 54  0.0000000  0  9G18G25G29G26G05G15G30G02G21
 -12291380.91347  -8701895.26544  22545738.6564                   22545738.5704
  -2807940.181 6  -2175681.507 7  24213398.711
 -22817420.635 8 -17768320.657 8  20230966.852
 -19559463.22548 -15182941.00645  21207186.8444                   21207187.0904
  -6840923.854 7  -5317231.964 6  23449864.492
 -19908873.670 8 -15499747.535 7  20881704.328
   1114066.68246    906288.91243  24603315.9694                   24603319.1454
  -4603801.76547  -3552974.51943  23970594.5314                   23970593.7774
 -12219626.78647  -8525764.31245  22886795.9924                   22886795.2274
 11  8 26  3 54 30.0000000  0  9G18G25G29G26G05G15G30G02G21
 -12347347.28147  -8745505.37545  22535088.5004                   22535088.6724
  -2725701.365 7  -2111599.354 6  24229048.938
 -22813230.574 8 -17765055.693 8  20231763.984
 -19544502.59548 -15171283.35945  21210033.7584                   21210034.1134
  -6753708.935 7  -5249272.269 6  23466460.727
 -19950077.346 8 -15531854.285 7  20873863.313
   1195842.43846    970010.22743  24618878.5474                   24618880.1134
  -4535440.38347  -3499705.91443  23983604.1724                   23983603.3714
 -12282299.74547  -8574600.35644  22874869.5944                   22874868.6454
 11  8 26  3 55  0.0000000  0  9G18G25G29G26G05G15G30G02G21
 -12403056.22147  -8788914.93045  22524487.5474                   22524487.3594
  -2643494.526 7  -2047542.101 6  24244692.180
 -22808484.645 8 -17761357.569 8  20232667.422
 -19528846.14848 -15159083.52145  21213012.7664                   21213013.2934
  -6666484.236 7  -5181305.013 6  23483059.492
 -19990737.262 8 -15563537.322 7  20866125.930
   1277542.46046   1033672.52643  24634424.6024                   24634426.3484
  -4466919.29347  -3446312.86043  23996643.0474                   23996641.6524
 -12344986.36047  -8623447.02145  22862940.8834                   22862939.6724
 11  8 26  3 55 30.0000000  0  9G18G25G29G26G05G15G30G02G21
 -12458509.79047  -8832125.45745  22513935.1954                   22513935.0044
  -2561324.125 6  -1983513.265 6  24260328.797
 -22803184.007 8 -17757227.206 8  20233676.039
 -19512495.78448 -15146342.96545  21216123.8594                   21216124.4344
  -6579252.470 7  -5113332.191 6  23499659.078
 -20030853.659 8 -15594796.824 7  20858491.867
   1359162.50946   1097272.53443  24649956.8204                   24649958.7774
  -4398239.87246  -3392796.43143  24009712.1644                   24009711.3674
 -12407687.71947  -8672305.19645  22851009.2584                   22851008.2194
 11  8 26  3 56  0.0000000  0  9G18G25G29G26G05G15G30G02G21
 -12513707.68447  -8875136.77245  22503431.1024                   22503430.6134
  -2479192.582 7  -1919514.663 6  24275958.227
 -22797327.874 8 -17752663.992 8  20234790.258
 -19495451.67148 -15133061.82145  21219367.6254                   21219368.0634
  -6492014.410 7  -5045354.481 6  23516260.250
 -20070424.578 8 -15625631.272 7  20850962.086
   1440700.25346   1160808.42843  24665473.7194                   24665475.1604
  -4329401.71346  -3339156.36143  24022811.9304                   24022810.6764
 -12470402.87547  -8721174.13445  22839074.8054                   22839073.8834
 11  8 26  3 56 30.0000000  0  9G18G25G29G26G05G15G30G02G21
 -12568649.34247  -8917948.42845  22492976.5394                   22492976.0904
  -2397102.071 7  -1855548.073 6  24291579.484
 -22790915.208 8 -17747667.110 8  20236010.711
 -19477713.36348 -15119239.75245  21222743.4844                   21222743.9024
  -6404771.446 7  -4977372.975 6  23532862.547
 -20109447.476 8 -15656038.721 7  20843536.156
   1522153.48546   1224278.45843  24680972.8834                   24680975.0354
  -4260403.89046  -3285391.83643  24035942.2274                   24035941.0634
 -12533130.60347  -8770052.86045  22827137.9224                   22827137.2624
 11  8 26  3 57  0.0000000  0  9G18G25G29G26G05G15G30G02G21
 -12623334.77347  -8960560.42345  22482570.2194                   22482570.0354
  -2315055.292 6  -1791615.547 6  24307192.406
 -22783945.475 8 -17742236.150 8  20237337.109
 -19459281.43947 -15104877.21545  21226250.5474                   21226251.2814
  -6317524.413 7  -4909388.294 6  23549464.313
 -20147920.890 8 -15686017.969 7  20836214.547
   1603519.63546   1287680.61143  24696456.3524                   24696459.2114
  -4191246.36246  -3231502.90443  24049101.2274                   24049100.8714
 -12595869.69547  -8818940.44945  22815199.7114                   22815198.6484
